[[{"header":{"parameterUnit":"m.s-1","parameterCategory":1,"la1":30.6,"la2":29.2853,"lo1":-89.7004,"lo2":-87.6739,"dy":0.0162,"dx":0.0183,"nx":112,"ny":82,"refTime":"2024-03-16T18:00:00:Z","depth":0,"parameterNumber":2,"parameterNumberName":"U-component_of_WINDS"},"data":[0.0,0.0,0.0,0.0,0.0,0.0,0.0,0.0,0.0,0.0,0.0,0.0,0.0,0.0,0.0,0.0,0.0,0.0,0.0,0.0,0.0,0.0,0.0,0.0,0.0,0.0,0.0,0.0,0.0,0.0,0.0,0.0,0.0,0.0,0.0,0.0,0.0,0.0,0.0,0.0,0.0,0.0,0.0,0.0,0.0,0.0,0.0,0.0,0.0,0.0,0.0,0.0,0.0,0.0,0.0,0.0,0.0,0.0,0.0,0.0,0.0,0.0,0.0,0.0,0.0,0.0,0.0,0.0,0.0,0.0,0.0,0.0,0.0,0.0,0.0,0.0,0.0,0.0,0.0,0.0,0.0,0.0,0.0,0.0,0.0,0.0,0.0,0.0,0.0,0.0,-0.4419,-0.3983,-0.3677,-0.3495,-0.35,-0.3535,-0.4119,-0.5384,0.0,0.0,0.0,0.0,0.0,0.0,0.0,0.0,0.0,0.0,0.0,0.0,0.0,0.0,0.0,0.0,0.0,0.0,0.0,0.0,0.0,0.0,0.0,0.0,0.0,0.0,0.0,0.0,0.0,0.0,0.0,0.0,0.0,0.0,0.0,0.0,0.0,0.0,0.0,0.0,0.0,0.0,0.0,0.0,0.0,0.0,0.0,0.0,0.0,0.0,0.0,0.0,0.0,0.0,0.0,0.0,0.0,0.0,0.0,0.0,0.0,0.0,0.0,0.0,0.0,0.0,0.0,0.0,0.0,0.0,0.0,0.0,0.0,0.0,0.0,0.0,0.0,0.0,0.0,0.0,0.0,0.0,0.0,0.0,0.0,0.0,0.0,0.0,0.0,0.0,0.0,0.0,0.0,0.0,0.0,0.0,0.0,0.0,0.0,0.0,0.0,0.0,0.0,0.0,-0.4492,-0.3384,-0.3398,-0.3259,-0.2644,-0.3358,-0.4159,-0.488,0.0,0.0,0.0,0.0,0.0,0.0,0.0,0.0,0.0,0.0,0.0,0.0,0.0,0.0,0.0,0.0,0.0,0.0,0.0,0.0,0.0,0.0,0.0,0.0,0.0,0.0,0.0,0.0,0.0,0.0,0.0,0.0,0.0,0.0,0.0,0.0,0.0,0.0,0.0,0.0,0.0,0.0,0.0,0.0,0.0,0.0,0.0,0.0,0.0,0.0,0.0,0.0,0.0,0.0,0.0,0.0,0.0,0.0,0.0,0.0,0.0,0.0,0.0,0.0,0.0,0.0,0.0,0.0,0.0,0.0,0.0,0.0,0.0,0.0,0.0,0.0,0.0,0.0,0.0,0.0,0.0,0.0,0.0,0.0,0.0,0.0,0.0,0.0,0.0,0.0,0.0,0.0,0.0,0.0,0.0,0.0,0.0,0.0,0.0,0.0,0.0,0.0,0.0,-0.4739,-0.4058,-0.3197,-0.3052,-0.2878,-0.2537,-0.3064,-0.3578,-0.3959,-0.5661,0.0,0.0,0.0,0.0,0.0,0.0,0.0,0.0,0.0,0.0,0.0,0.0,0.0,0.0,0.0,0.0,0.0,0.0,0.0,0.0,0.0,0.0,0.0,0.0,0.0,0.0,0.0,0.0,0.0,0.0,0.0,0.0,0.0,0.0,0.0,0.0,0.0,0.0,0.0,0.0,0.0,0.0,0.0,0.0,0.0,0.0,0.0,0.0,0.0,0.0,0.0,0.0,0.0,0.0,0.0,0.0,0.0,0.0,0.0,0.0,0.0,0.0,0.0,0.0,0.0,0.0,0.0,0.0,0.0,0.0,0.0,0.0,0.0,0.0,0.0,0.0,0.0,0.0,0.0,0.0,0.0,0.0,0.0,0.0,0.0,0.0,0.0,0.0,0.0,0.0,0.0,0.0,0.0,0.0,0.0,0.0,0.0,0.0,0.0,0.0,0.0,0.0,-0.4138,-0.3352,-0.2948,-0.268,-0.2501,-0.2416,-0.2602,-0.2881,-0.3248,-0.5832,0.0,0.0,0.0,0.0,0.0,0.0,0.0,0.0,0.0,0.0,0.0,0.0,0.0,0.0,0.0,0.0,0.0,0.0,0.0,0.0,0.0,0.0,0.0,0.0,0.0,0.0,0.0,0.0,0.0,0.0,0.0,0.0,0.0,0.0,0.0,0.0,0.0,0.0,0.0,0.0,0.0,0.0,0.0,0.0,0.0,0.0,0.0,0.0,0.0,0.0,0.0,0.0,0.0,0.0,0.0,0.0,0.0,0.0,0.0,0.0,0.0,0.0,0.0,0.0,0.0,0.0,0.0,0.0,0.0,0.0,0.0,0.0,0.0,0.0,0.0,0.0,0.0,0.0,0.0,0.0,0.0,0.0,0.0,0.0,0.0,0.0,0.0,0.0,0.0,0.0,0.0,0.0,0.0,0.0,0.0,0.0,0.0,0.0,0.0,0.0,0.0,0.0,-0.3364,-0.2339,-0.2351,-0.233,-0.2198,-0.1878,-0.1868,-0.2257,-0.315,-0.5661,0.0,0.0,0.0,0.0,0.0,0.0,0.0,0.0,0.0,0.0,0.0,0.0,0.0,0.0,0.0,0.0,0.0,0.0,0.0,0.0,0.0,0.0,0.0,0.0,0.0,0.0,0.0,0.0,0.0,0.0,0.0,0.0,0.0,0.0,0.0,0.0,0.0,0.0,0.0,0.0,0.0,0.0,0.0,0.0,0.0,0.0,0.0,0.0,0.0,0.0,0.0,0.0,0.0,0.0,0.0,0.0,0.0,0.0,0.0,0.0,0.0,0.0,0.0,0.0,0.0,0.0,0.0,0.0,0.0,0.0,0.0,0.0,0.0,0.0,0.0,0.0,0.0,0.0,0.0,0.0,0.0,0.0,0.0,0.0,0.0,0.0,0.0,0.0,0.0,0.0,0.0,0.0,0.0,0.0,0.0,0.0,0.0,0.0,0.0,0.0,0.0,0.0,-0.3792,-0.2876,0.0,-0.1773,-0.1528,-0.1778,-0.1792,-0.2205,-0.3139,0.0,0.0,0.0,0.0,0.0,0.0,0.0,0.0,0.0,0.0,0.0,0.0,0.0,0.0,0.0,0.0,0.0,0.0,0.0,0.0,0.0,0.0,0.0,0.0,0.0,0.0,0.0,0.0,0.0,0.0,0.0,0.0,0.0,0.0,0.0,0.0,0.0,0.0,0.0,0.0,0.0,0.0,0.0,0.0,0.0,0.0,0.0,0.0,0.0,0.0,0.0,0.0,0.0,0.0,0.0,0.0,0.0,0.0,0.0,0.0,0.0,0.0,0.0,0.0,0.0,0.0,0.0,0.0,0.0,0.0,0.0,0.0,0.0,0.0,0.0,0.0,0.0,0.0,0.0,0.0,0.0,0.0,0.0,0.0,0.0,0.0,0.0,0.0,0.0,0.0,0.0,0.0,0.0,0.0,0.0,0.0,0.0,0.0,0.0,0.0,0.0,0.0,-0.4574,-0.3648,-0.2758,0.0,-0.1317,-0.0985,-0.1204,-0.1231,-0.1776,-0.3062,0.0,0.0,0.0,0.0,0.0,0.0,0.0,0.0,0.0,0.0,0.0,0.0,0.0,0.0,0.0,0.0,0.0,0.0,0.0,0.0,0.0,0.0,0.0,0.0,0.0,0.0,0.0,0.0,0.0,0.0,0.0,0.0,0.0,0.0,0.0,0.0,0.0,0.0,0.0,0.0,0.0,0.0,0.0,0.0,0.0,0.0,0.0,0.0,0.0,0.0,0.0,0.0,0.0,0.0,0.0,0.0,0.0,0.0,0.0,0.0,0.0,0.0,0.0,0.0,0.0,0.0,0.0,0.0,0.0,0.0,0.0,0.0,0.0,0.0,0.0,0.0,0.0,0.0,0.0,0.0,0.0,0.0,0.0,0.0,0.0,0.0,0.0,0.0,0.0,0.0,0.0,0.0,0.0,0.0,0.0,0.0,0.0,0.0,0.0,0.0,0.0,0.0,-0.3957,-0.2707,-0.1642,-0.1245,-0.1026,-0.0663,-0.0055,0.0,-0.0862,0.0,0.0,0.0,0.0,0.0,0.0,0.0,0.0,0.0,0.0,0.0,0.0,0.0,0.0,0.0,0.0,0.0,0.0,0.0,0.0,0.0,0.0,0.0,0.0,0.0,0.0,0.0,0.0,0.0,0.0,0.0,0.0,0.0,0.0,0.0,0.0,0.0,0.0,0.0,0.0,0.0,0.0,0.0,0.0,0.0,0.0,0.0,0.0,0.0,0.0,0.0,0.0,0.0,0.0,0.0,0.0,0.0,0.0,0.0,0.0,0.0,0.0,0.0,0.0,0.0,0.0,0.0,0.0,0.0,0.0,0.0,0.0,0.0,0.0,0.0,0.0,0.0,0.0,0.0,0.0,0.0,0.0,0.0,0.0,0.0,0.0,0.0,0.0,0.0,0.0,0.0,0.0,0.0,0.0,0.0,0.0,0.0,0.0,0.0,0.0,0.0,0.0,0.0,-0.3795,-0.241,-0.1389,-0.1407,-0.1484,-0.1115,-0.0089,0.0,-0.0862,-0.2869,0.0,0.0,0.0,0.0,0.0,0.0,0.0,0.0,0.0,0.0,0.0,0.0,0.0,0.0,0.0,0.0,0.0,0.0,0.0,0.0,0.0,0.0,0.0,0.0,0.0,0.0,0.0,0.0,0.0,0.0,0.0,0.0,0.0,0.0,0.0,0.0,0.0,0.0,0.0,0.0,0.0,0.0,0.0,0.0,0.0,0.0,0.0,0.0,0.0,0.0,0.0,0.0,0.0,0.0,0.0,0.0,0.0,0.0,0.0,0.0,0.0,0.0,0.0,0.0,0.0,0.0,0.0,0.0,0.0,0.0,0.0,0.0,0.0,0.0,0.0,0.0,0.0,0.0,0.0,0.0,0.0,0.0,0.0,0.0,0.0,0.0,0.0,0.0,0.0,0.0,0.0,0.0,0.0,0.0,0.0,0.0,0.0,0.0,0.0,0.0,0.0,0.0,-0.356,-0.2282,-0.1321,-0.1335,-0.1502,-0.1268,-0.0428,-0.0137,-0.051,-0.1724,0.0,0.0,0.0,0.0,0.0,0.0,0.0,0.0,0.0,0.0,0.0,0.0,0.0,0.0,0.0,0.0,0.0,0.0,0.0,0.0,0.0,0.0,0.0,0.0,0.0,0.0,0.0,0.0,0.0,0.0,0.0,0.0,0.0,0.0,0.0,0.0,0.0,0.0,0.0,0.0,0.0,0.0,0.0,0.0,0.0,0.0,0.0,0.0,0.0,0.0,0.0,0.0,0.0,0.0,0.0,0.0,0.0,0.0,0.0,0.0,0.0,0.0,0.0,0.0,0.0,0.0,0.0,0.0,0.0,0.0,0.0,0.0,0.0,0.0,0.0,0.0,0.0,0.0,0.0,0.0,0.0,0.0,0.0,0.0,0.0,0.0,0.0,0.0,0.0,0.0,0.0,0.0,0.0,0.0,0.0,0.0,0.0,0.0,0.0,0.0,0.0,0.0,-0.3326,-0.2269,-0.1362,-0.1106,-0.1193,-0.1153,-0.0872,-0.0326,0.0,0.0,0.0,0.0,0.0,0.0,0.0,0.0,0.0,0.0,0.0,0.0,0.0,0.0,0.0,0.0,0.0,0.0,0.0,0.0,0.0,0.0,0.0,0.0,0.0,0.0,0.0,0.0,0.0,0.0,0.0,0.0,0.0,0.0,0.0,0.0,0.0,0.0,0.0,0.0,0.0,0.0,0.0,0.0,0.0,0.0,0.0,0.0,0.0,0.0,0.0,0.0,0.0,0.0,0.0,0.0,0.0,0.0,0.0,0.0,0.0,0.0,-0.7269,0.0,0.0,0.0,0.0,0.0,0.0,0.0,0.0,0.0,0.0,0.0,0.0,0.0,0.0,0.0,0.0,0.0,0.0,0.0,0.0,0.0,0.0,0.0,0.0,0.0,0.0,0.0,0.0,0.0,0.0,0.0,0.0,0.0,0.0,0.0,0.0,0.0,0.0,0.0,0.0,0.0,-0.3352,-0.21,-0.112,-0.0957,-0.0965,-0.0859,-0.0533,-0.0195,0.0,0.0,-0.0568,0.0,0.0,0.0,0.0,0.0,0.0,0.0,0.0,0.0,0.0,0.0,0.0,0.0,0.0,0.0,0.0,0.0,0.0,0.0,0.0,0.0,0.0,0.0,0.0,0.0,0.0,0.0,0.0,0.0,0.0,0.0,0.0,0.0,0.0,0.0,0.0,0.0,0.0,0.0,0.0,0.0,0.0,0.0,0.0,0.0,0.0,0.0,0.0,0.0,0.0,0.0,0.0,0.0,0.0,0.0,0.0,0.0,0.0,0.0,0.0,-0.7439,0.0,0.0,0.0,0.0,0.0,0.0,0.0,0.0,0.0,0.0,0.0,0.0,0.0,0.0,0.0,0.0,0.0,0.0,0.0,0.0,0.0,0.0,0.0,0.0,0.0,0.0,0.0,0.0,0.0,0.0,0.0,0.0,0.0,0.0,0.0,0.0,0.0,0.0,0.0,0.0,-0.3442,-0.2123,-0.1149,-0.1005,-0.0939,-0.0764,-0.043,-0.0155,0.0,0.0,0.0,0.0,0.0,0.0,0.0,0.0,0.0,0.0,0.0,0.0,0.0,0.0,0.0,0.0,0.0,0.0,0.0,0.0,0.0,0.0,0.0,0.0,0.0,0.0,0.0,0.0,0.0,0.0,0.0,0.0,0.0,0.0,0.0,0.0,0.0,0.0,0.0,0.0,0.0,0.0,0.0,0.0,0.0,0.0,0.0,0.0,0.0,0.0,0.0,0.0,0.0,0.0,0.0,0.0,-0.839,-0.8053,-0.7907,-0.8195,-0.7466,-0.6037,-0.6277,-0.6278,-0.6174,0.0,0.0,0.0,0.0,0.0,0.0,0.0,0.0,0.0,0.0,0.0,0.0,0.0,0.0,0.0,0.0,0.0,0.0,0.0,0.0,0.0,0.0,0.0,0.0,0.0,-0.4115,-0.4234,0.0,0.0,0.0,0.0,0.0,0.0,0.0,0.0,0.0,0.0,0.0,0.0,-0.338,-0.2173,-0.1303,-0.1152,-0.1031,-0.0824,-0.0512,-0.0188,0.0,0.0,0.0,0.0,0.0,0.0,0.0,0.0,0.0,0.0,0.0,0.0,0.0,0.0,0.0,0.0,0.0,0.0,0.0,0.0,0.0,0.0,0.0,0.0,0.0,0.0,0.0,0.0,0.0,0.0,0.0,0.0,0.0,0.0,0.0,0.0,-0.9876,-1.482,0.0,0.0,0.0,0.0,0.0,0.0,0.0,0.0,0.0,0.0,0.0,0.0,0.0,-1.0639,-1.0352,-0.9785,-0.9643,-0.9892,-0.8513,-0.7606,-0.7141,-0.7126,-0.6908,-0.6453,-0.5479,0.0,-0.5405,-0.5103,0.0,0.0,0.0,0.0,0.0,0.0,0.0,0.0,0.0,0.0,0.0,0.0,0.0,0.0,0.0,0.0,0.0,0.0,0.0,0.0,0.0,0.0,-0.3548,-0.3618,-0.3432,-0.329,0.0,-0.4484,-0.5322,-0.5248,0.0,0.0,0.0,0.0,0.0,0.0,0.0,0.0,-0.282,-0.2038,-0.1482,-0.1293,-0.1203,-0.1072,-0.0858,-0.0322,0.0,0.0,0.0,0.0,0.0,-0.0317,0.0,0.0,0.0,0.0,0.0,0.0,0.0,0.0,0.0,0.0,0.0,0.0,0.0,0.0,0.0,0.0,0.0,0.0,0.0,0.0,0.0,0.0,0.0,0.0,0.0,0.0,0.0,0.0,0.0,-1.0662,-1.1776,-1.5016,-1.4531,-1.4316,0.0,0.0,0.0,0.0,0.0,0.0,0.0,0.0,0.0,-1.0427,-1.0346,-0.998,-0.929,-0.8995,-0.8845,-0.8849,-0.8063,-0.7485,-0.7112,-0.6977,-0.6593,-0.6006,-0.5367,-0.5016,-0.4911,-0.4837,-0.5288,-0.6066,0.0,0.0,0.0,0.0,-0.7153,-0.7333,-0.6421,-0.6126,0.0,0.0,0.0,0.0,0.0,0.0,0.0,0.0,0.0,0.0,0.0,0.0,0.0,-0.3273,-0.3045,-0.3004,-0.2676,-0.306,-0.3669,0.0,-0.5037,-0.5424,-0.5227,0.0,0.0,0.0,0.0,-0.3475,-0.2798,-0.205,-0.1562,-0.1475,-0.1336,-0.1226,-0.1125,-0.0571,-0.0161,-0.0009,0.0,0.0,0.0,0.0,-0.0716,0.0,0.0,0.0,0.0,0.0,0.0,0.0,0.0,0.0,0.0,0.0,0.0,0.0,0.0,0.0,0.0,0.0,0.0,0.0,0.0,0.0,0.0,0.0,0.0,0.0,0.0,0.0,0.0,-1.1738,-1.3124,-1.3997,-1.3182,-1.3182,0.0,0.0,0.0,0.0,0.0,0.0,-1.1496,-1.1277,-1.0713,-0.9718,-0.9529,-0.9035,-0.8185,-0.8171,-0.8119,-0.8026,-0.7826,-0.7591,-0.7349,-0.7144,-0.6677,-0.5984,-0.5704,-0.5384,-0.5053,-0.4943,-0.4972,-0.5241,-0.6564,-0.6913,-0.6732,-0.6842,-0.7014,-0.7014,-0.617,-0.5951,-0.6138,-0.6584,0.0,-0.7023,-0.7091,0.0,0.0,0.0,0.0,-0.6129,-0.504,-0.4957,-0.4741,-0.3188,-0.2969,-0.2982,-0.2519,-0.2674,-0.3018,0.0,-0.4441,-0.5192,-0.5076,0.0,0.0,0.0,0.0,-0.3202,-0.2624,-0.2023,-0.1645,-0.1645,-0.1519,-0.1434,-0.1434,-0.088,-0.0377,-0.0023,0.0,0.0,0.0,0.0,0.0,0.0,0.0,0.0,0.0,0.0,0.0,0.0,0.0,0.0,0.0,0.0,0.0,0.0,0.0,0.0,0.0,0.0,0.0,0.0,0.0,0.0,0.0,0.0,0.0,0.0,0.0,0.0,0.0,0.0,0.0,-1.0748,-1.1379,0.0,0.0,0.0,0.0,-1.1505,-1.1969,-1.1553,-0.9824,-1.0248,-1.002,-0.8908,-0.8793,-0.8641,-0.8387,-0.8374,-0.8374,-0.8377,-0.8171,-0.7965,-0.7767,-0.7562,-0.7336,-0.7095,-0.6574,-0.6339,-0.6229,-0.5079,-0.5359,-0.6516,-0.6672,-0.7395,-0.8218,-0.6852,-0.6502,-0.6608,-0.5797,-0.536,-0.5442,-0.7108,-0.8105,-0.8391,-0.6823,-0.6823,0.0,0.0,-0.5571,-0.5263,-0.3928,-0.359,-0.3576,-0.3486,-0.3275,-0.3089,-0.3068,-0.3952,-0.4208,0.0,-0.1968,-0.2245,-0.2924,0.0,-0.3031,-0.3006,-0.296,-0.2662,-0.1949,-0.1818,-0.1792,-0.1792,-0.1785,-0.1782,-0.1782,-0.1218,-0.0624,-0.0037,0.0,0.0,0.0,0.0,0.0,0.0,-0.3493,0.0,0.0,0.0,0.0,0.0,0.0,0.0,0.0,0.0,0.0,0.0,0.0,0.0,0.0,0.0,0.0,0.0,0.0,0.0,0.0,0.0,0.0,0.0,0.0,0.0,0.0,0.0,0.0,-1.1848,-1.1263,0.0,-1.2939,-1.2316,-1.1631,-1.1256,-1.0895,-1.0385,-0.9706,-0.9708,-0.9539,-0.9132,-0.8929,-0.876,-0.8592,-0.8592,-0.853,-0.8403,-0.8335,-0.82,-0.7979,-0.7781,-0.7577,-0.7381,-0.7197,-0.7039,-0.6908,-0.673,-0.6311,-0.579,-0.603,-0.6377,-0.6731,-0.6366,-0.6301,-0.6332,-0.5911,-0.5576,-0.5438,-0.5886,-0.621,-0.6275,-0.5512,-0.5451,-0.5499,-0.4696,-0.4482,-0.4311,-0.3667,-0.3506,-0.3506,-0.3506,-0.3421,-0.3309,-0.3132,-0.3439,-0.3421,-0.2267,-0.2858,-0.3396,-0.2978,-0.2514,-0.2354,-0.2837,-0.249,-0.209,-0.1825,-0.1803,-0.1803,-0.1803,-0.1803,-0.1803,-0.1803,-0.1607,-0.1061,-0.0062,0.0,0.0,0.0,0.0,0.0,0.0,-0.2381,-0.2976,0.0,0.0,0.0,0.0,0.0,0.0,0.0,0.0,0.0,0.0,0.0,0.0,0.0,0.0,0.0,0.0,0.0,0.0,0.0,0.0,0.0,0.0,0.0,0.0,0.0,0.0,-1.1347,-1.3042,-1.1709,-1.1095,-1.2241,-1.1728,-1.1291,-1.1249,-1.059,-1.0205,-1.0161,-0.9924,-0.9644,-0.9367,-0.9099,-0.8946,-0.8902,-0.8863,-0.8789,-0.8698,-0.8655,-0.853,-0.8335,-0.8169,-0.7994,-0.7796,-0.7811,-0.7724,-0.7621,-0.7824,-0.7246,-0.6245,-0.6262,-0.6238,-0.618,-0.6301,-0.6271,-0.6183,-0.5973,-0.5782,-0.5595,-0.533,-0.5185,-0.5059,-0.4785,-0.4626,-0.4466,-0.4027,-0.3911,-0.3828,-0.3569,-0.3506,-0.3506,-0.3506,-0.3506,-0.3442,-0.3266,-0.3319,-0.3195,-0.249,-0.3106,-0.3463,-0.267,-0.2124,-0.2096,-0.2935,-0.2342,-0.1931,-0.2295,-0.2031,-0.1803,-0.1803,-0.1803,-0.1803,-0.1803,-0.2238,-0.1907,-0.0493,-0.0339,-0.0302,-0.0302,-0.0605,-0.0779,-0.0779,-0.168,-0.1939,-0.1498,0.0,0.0,0.0,0.0,0.0,0.0,0.0,0.0,0.0,0.0,0.0,0.0,0.0,0.0,0.0,0.0,0.0,0.0,0.0,0.0,0.0,0.0,0.0,-1.3935,-1.2591,-1.2161,-1.3863,-1.2572,-1.1546,-1.1538,-1.1419,-1.1348,-1.1348,-1.1142,-1.1061,-1.1098,-1.0848,-1.0331,-0.9518,-0.9237,-0.9159,-0.9303,-0.9169,-0.9169,-0.9303,-0.9159,-0.8998,-0.8812,-0.8731,-0.8592,-0.8415,-0.8415,-0.8403,-0.8374,-0.8198,-0.8115,-0.8048,-0.7457,-0.7096,-0.6894,-0.6706,-0.6453,-0.6201,-0.5991,-0.5918,-0.5874,-0.5595,-0.5328,-0.5069,-0.4805,-0.4547,-0.4293,-0.4007,-0.3911,-0.3848,-0.3584,-0.3506,-0.3506,-0.3519,-0.3519,-0.3519,-0.3532,-0.3774,-0.3741,-0.2886,-0.2464,-0.2132,-0.1847,-0.1803,-0.2162,-0.3201,-0.2458,0.0,-0.3224,-0.2453,-0.1806,-0.1854,-0.1854,-0.1854,-0.1854,-0.3069,-0.3097,-0.1398,-0.1063,-0.0926,-0.0926,-0.1797,-0.231,-0.2362,-0.1554,-0.152,-0.2301,0.0,0.0,0.0,0.0,0.0,0.0,0.0,0.0,0.0,0.0,0.0,0.0,0.0,0.0,0.0,0.0,0.0,0.0,0.0,0.0,0.0,-1.3276,-1.2796,-1.3045,-1.2705,-1.2597,-1.3028,-1.271,-1.2418,-1.2377,-1.2257,-1.2164,-1.2164,-1.2029,-1.17,-1.1135,-1.0848,-1.0331,-0.9518,-0.934,-0.9274,-0.9303,-0.9257,-0.9274,-0.9303,-0.9159,-0.9068,-0.9009,-0.8806,-0.8669,-0.8604,-0.8467,-0.8403,-0.8415,-0.8488,-0.845,-0.8267,-0.7824,-0.7607,-0.7532,-0.7334,-0.7031,-0.6681,-0.6475,-0.6271,-0.6076,-0.5863,-0.5734,-0.563,-0.5358,-0.5233,-0.5069,-0.4606,-0.4354,-0.413,-0.3869,-0.3647,-0.3559,-0.3794,-0.3871,-0.3908,-0.4115,-0.4061,-0.3847,-0.3377,-0.3057,-0.2632,-0.1913,-0.1803,-0.1905,-0.2189,-0.1983,0.0,-0.2211,-0.1983,-0.2083,-0.28,-0.2936,-0.2936,-0.289,-0.2567,-0.2601,-0.313,-0.2138,-0.1559,-0.1559,-0.1798,-0.2564,-0.387,-0.249,-0.1932,0.0,0.0,0.0,0.0,0.0,0.0,0.0,0.0,0.0,0.0,0.0,0.0,0.0,0.0,0.0,0.0,0.0,0.0,0.0,0.0,0.0,0.0,-1.4087,-1.386,-1.4241,-1.3406,-1.2737,-1.2709,-1.3069,-1.315,-1.2746,-1.2921,-1.3083,-1.3083,-1.299,-1.273,-1.226,-1.1682,-1.1002,-1.0202,-0.9671,-0.9412,-0.9474,-0.9412,-0.9412,-0.9474,-0.934,-0.9274,-0.9247,-0.899,-0.8858,0.0,-0.8684,-0.8612,-0.8624,-0.8736,-0.8724,0.0,0.0,0.0,0.0,0.0,-0.7349,-0.7112,-0.6921,-0.6743,-0.6575,-0.6289,-0.6195,-0.6123,-0.5782,-0.5587,-0.5406,-0.4991,-0.4677,-0.4406,-0.413,-0.3952,-0.3858,-0.3935,-0.406,-0.4183,-0.4232,-0.4207,-0.4034,-0.3591,0.0,0.0,-0.2298,-0.2066,-0.2086,-0.2426,-0.2142,-0.2058,-0.2498,-0.2202,-0.2199,-0.279,-0.2811,-0.2808,-0.2769,-0.2572,0.0,0.0,0.0,-0.2354,-0.211,-0.2084,0.0,0.0,0.0,-0.1803,-0.1331,0.0,0.0,0.0,0.0591,-0.004,0.0,0.0,0.0,0.0,0.0,0.0,0.0,0.0,0.0,0.0,0.0,0.0,0.0,0.0,0.0,0.0,-1.5463,-1.5676,-1.6657,-1.4752,-1.3233,-1.3134,-1.3811,-1.3979,-1.3198,-1.3773,-1.419,-1.419,-1.4036,-1.3907,-1.38,0.0,0.0,0.0,0.0,-0.9682,-0.9713,-0.9591,-0.9583,-0.9698,-0.9559,-0.95,-0.95,-0.9228,-0.9119,-0.9109,-0.9001,-0.8936,-0.8925,-0.8925,-0.8913,-0.8869,-0.8506,-0.8281,-0.8115,-0.7766,-0.7591,0.0,0.0,0.0,0.0,-0.6789,-0.6651,-0.6549,-0.6106,-0.5834,-0.5613,-0.5312,-0.5067,-0.4861,-0.4574,-0.447,-0.4403,-0.4188,-0.4343,-0.4456,-0.4256,-0.4347,-0.429,-0.3756,-0.3609,-0.3436,-0.2885,-0.2495,-0.252,-0.3259,-0.2611,-0.2392,-0.3388,-0.2746,-0.2255,-0.237,0.0,0.0,-0.2179,-0.2934,-0.2965,-0.1876,-0.2701,-0.2985,-0.247,-0.242,-0.2466,-0.2591,-0.2249,-0.1456,-0.021,-0.0722,-0.1283,-0.1866,-0.1866,-0.1769,0.0,0.0,0.0,0.0,0.0,0.0,0.0,0.0,0.0,0.0,0.0,0.0,0.0,0.0,0.0,-1.794,-1.7138,-1.6772,-1.8304,-1.7491,-1.6483,-1.584,-1.5903,-1.5946,-1.5777,-1.5913,-1.6003,-1.6003,-1.5235,-1.4487,-1.3838,-1.3454,-1.2632,-1.1225,-1.0875,-1.0398,-0.9789,-0.975,-0.9739,-0.9698,0.0,0.0,-0.95,-0.934,-0.9257,-0.9247,-0.9228,-0.9159,-0.9057,-0.9057,-0.9001,-0.8891,-0.8818,-0.8691,-0.8579,-0.8501,-0.8158,-0.7738,-0.7709,-0.7472,-0.718,-0.7101,-0.6983,-0.6794,-0.6544,-0.662,0.0,-0.6138,-0.611,-0.6156,-0.5768,-0.5506,-0.5398,-0.5624,-0.542,-0.5277,-0.5487,-0.5103,-0.4679,-0.4564,-0.4368,-0.4038,-0.3442,-0.2928,-0.273,-0.3115,-0.2679,-0.2486,-0.2968,-0.2548,-0.2506,-0.3326,-0.3437,-0.3375,-0.3235,-0.3414,-0.3067,-0.1879,-0.2005,-0.2115,-0.2106,-0.2005,-0.1957,-0.1975,-0.1892,-0.1726,-0.1445,-0.0626,-0.0283,-0.0397,-0.0408,-0.0387,0.0,0.0,0.0,0.0,0.0,0.0,0.0,0.0,0.0,0.0,0.0,-1.6151,-1.6538,0.0,-1.8146,-1.8916,-1.8705,-1.8725,-1.9542,-1.89,-1.8042,-1.7196,-1.7099,-1.7105,-1.7106,-1.7099,-1.6926,-1.6522,-1.6029,-1.537,-1.4558,-1.3548,-1.2657,-1.192,-1.0967,-1.0262,-0.9857,-0.9818,-0.9771,-0.9747,-0.9649,-0.9601,-0.9601,-0.9456,-0.9394,-0.9394,-0.9331,-0.9257,-0.9189,-0.9189,-0.9159,-0.9088,-0.9033,-0.8913,-0.8794,-0.8729,-0.8501,-0.8227,-0.8022,-0.7824,-0.7621,-0.7455,-0.7444,-0.7414,-0.6906,-0.7113,-0.7339,-0.6562,-0.6572,-0.6708,-0.63,-0.6104,-0.5952,-0.5795,-0.571,-0.5605,-0.5398,-0.5055,-0.4807,-0.4807,-0.4575,-0.4303,-0.4,-0.3731,-0.3447,-0.3152,-0.2962,-0.2959,-0.3293,-0.3207,-0.3193,-0.3486,-0.3467,-0.3317,-0.3014,-0.2868,-0.2522,-0.1835,-0.1803,-0.184,-0.1892,-0.1896,-0.1896,-0.1896,-0.1943,-0.1957,-0.1958,-0.1371,-0.094,-0.065,-0.0204,-0.0,0.0,0.0,0.0,0.0,0.0,0.0,0.0,-1.6176,-1.6542,-1.6686,-1.7264,-1.7773,-1.788,-1.9316,-2.0369,-1.9935,-2.0288,-2.0698,-2.081,-1.9926,-1.8929,-1.8069,-1.7959,-1.7953,-1.7953,-1.7953,-1.7606,-1.6792,-1.658,-1.6118,-1.5247,-1.3787,-1.2852,-1.2626,-1.1149,-1.0295,-1.0167,-0.9957,-0.9919,-1.0074,-0.9849,-0.9725,-0.9721,-0.9607,-0.9641,-0.9761,-0.9627,-0.9581,-0.9581,-0.9581,-0.9473,-0.9311,-0.9512,-0.9409,-0.9134,-0.9,-0.8944,-0.8899,-0.8709,-0.8511,-0.8307,-0.8154,-0.8146,-0.8093,-0.7498,-0.7746,-0.8015,-0.7067,-0.7054,-0.7241,-0.6761,-0.666,-0.6509,-0.5874,-0.5871,-0.5831,-0.5152,-0.4953,-0.4894,-0.4894,-0.4736,-0.4556,-0.4496,-0.4489,-0.4243,-0.3546,-0.3457,-0.3581,-0.39,-0.3987,-0.384,-0.349,-0.3335,-0.3125,-0.2792,-0.2388,-0.2121,-0.2015,-0.1938,-0.1872,-0.1872,-0.196,-0.2011,-0.2011,-0.2018,-0.204,-0.2041,-0.2132,-0.193,-0.147,-0.0817,-0.0336,-1.7309,-1.6757,-1.6357,-1.6278,-1.6433,-1.681,0.0,-1.7076,-1.6614,-1.6678,-1.6777,-1.707,-1.7776,-1.9316,-2.0945,-2.2337,-2.2001,-2.1826,-2.2591,-2.1238,-1.985,-1.9043,-1.8886,-1.8857,-1.8857,-1.8857,-1.8491,-1.7626,-1.6907,-1.6118,-1.5247,-1.4844,-1.4035,-1.2723,-1.2256,-1.1748,-1.1141,-1.0363,-1.0345,-1.1024,-1.0239,-0.985,-0.9777,-0.9771,-1.012,-1.0739,-1.0594,-1.0546,-1.0546,-1.0546,-1.0058,-0.9427,-1.0787,-1.0808,-1.0048,-0.9903,-0.9781,-0.9765,-1.0392,-0.9961,-0.9249,-0.9747,-0.928,-0.8588,-0.8794,-0.9115,-0.9185,-0.8128,-0.819,-0.8442,-0.7739,-0.7549,-0.7454,-0.7021,-0.6665,-0.6309,-0.5861,-0.5505,-0.523,-0.523,-0.5235,-0.5097,-0.4807,-0.4761,-0.4719,-0.4629,-0.4332,-0.421,-0.4457,-0.4199,-0.3993,-0.3923,-0.3909,-0.3842,-0.3659,-0.3129,-0.2793,-0.2772,-0.24,-0.216,-0.216,-0.2047,-0.2011,-0.2011,-0.1882,-0.1844,-0.1831,-0.2026,-0.2106,-0.2107,-0.2319,-0.1528,-1.7643,-1.7612,-1.7788,-1.7278,-1.829,-1.9396,-1.9306,-1.8988,-1.8746,-1.8884,-1.8507,-1.8415,-1.9315,-2.0485,-2.1534,-2.2191,-2.2422,-2.2455,-2.2271,-2.1152,-1.9862,-1.8494,-1.8314,-1.8484,-1.8941,-1.8549,-1.8087,-1.7741,-1.6946,-1.6118,-1.5247,-1.4641,-1.4042,-1.342,-1.2842,-1.2404,-1.2113,-1.1684,-1.1384,-1.1241,-1.0847,-1.0383,-0.9882,-1.0296,-1.0901,-1.159,-1.1534,-1.1515,-1.1479,-1.1013,-1.0858,-1.0893,-1.0438,-1.057,-1.0977,-1.0732,-1.0599,-1.0597,-1.0812,-1.0505,-1.0034,-1.0156,-0.9824,-0.9317,-0.9149,-0.9417,-0.9565,-0.8582,-0.8529,-0.8679,-0.8166,-0.8089,-0.7946,-0.7271,-0.6976,-0.6672,-0.6044,-0.5585,-0.5331,-0.5498,-0.5397,-0.5383,-0.5564,-0.5464,-0.5372,-0.5578,-0.5009,-0.4669,-0.4954,-0.4858,-0.4634,-0.4377,-0.4129,-0.3956,-0.382,-0.3572,-0.3373,-0.3267,-0.2832,-0.2617,-0.2617,-0.2395,-0.2294,-0.2294,-0.2204,-0.2215,-0.2335,-0.2421,-0.2452,-0.2486,-0.2086,-0.1777,-1.8041,-1.8487,-1.9127,-1.8273,-1.9796,-2.1284,-2.0482,-2.0444,-2.0488,-2.0198,-1.9634,-1.9333,-1.9763,-2.0761,-2.1504,-2.1477,-2.2393,-2.2818,-2.1879,-2.0984,-1.9864,-1.8358,-1.7757,-1.7791,-1.8583,-1.8101,-1.7626,-1.7395,-1.683,-1.6215,-1.5599,-1.471,-1.432,-1.4613,-1.3769,-1.3352,-1.3392,-1.3286,-1.2823,-1.2025,-1.1969,-1.149,-1.0633,-1.1377,-1.2006,-1.2493,-1.2493,-1.2464,-1.237,-1.1563,-1.1581,-1.1984,-1.0737,-1.0928,-1.1887,-1.1781,-1.1603,-1.1454,-1.1552,-1.1299,-1.0914,-1.0873,-1.058,-1.0186,-0.9731,-0.9876,-0.9982,-0.902,-0.8878,-0.8883,-0.8425,-0.8349,-0.8165,-0.7262,-0.7049,-0.6844,-0.6123,-0.5742,-0.5618,-0.5798,-0.5665,-0.5692,-0.6122,-0.6014,-0.5912,-0.6162,-0.5538,-0.5126,-0.5371,-0.5331,-0.5182,-0.4826,-0.4538,-0.4305,-0.4218,-0.411,-0.3973,-0.3821,-0.3298,-0.2994,-0.297,-0.2661,-0.2465,-0.2424,-0.2359,-0.24,-0.2548,-0.2544,-0.2513,-0.2448,-0.1829,-0.1956,-1.8875,-1.9383,-1.9975,-1.9158,-2.0235,-2.1297,-2.0482,-2.0946,-2.1125,-1.957,-1.9211,-1.8952,-1.8127,-1.9383,-2.0559,-2.0625,-2.207,-2.2891,-2.2012,-2.1086,-2.0157,-1.9262,-1.7672,-1.6957,0.0,-1.7805,-1.7443,-1.6606,-1.6503,-1.6484,-1.6465,-1.551,-1.54,-1.6388,-1.5445,-1.4998,-1.5112,-1.5112,-1.4689,-1.3819,-1.3819,-1.3325,-1.2438,-1.3178,-1.3495,-1.3458,-1.3458,-1.3392,-1.3206,-1.2388,-1.2076,-1.2139,-1.2465,-1.2627,-1.2727,-1.3169,-1.2888,-1.2365,-1.3075,-1.2706,-1.2025,-1.2396,-1.1914,-1.1112,-1.09,-1.0869,-1.0667,-0.9661,-0.9419,-0.9285,-0.8521,-0.8349,-0.8137,-0.7139,-0.6909,-0.6781,-0.6283,-0.6162,-0.6169,-0.6176,-0.6169,-0.6169,-0.6189,-0.6189,-0.6182,-0.6196,-0.5885,-0.5691,-0.5698,-0.5451,-0.5277,-0.5284,-0.5277,-0.5246,-0.5264,-0.4845,-0.4584,-0.4579,-0.376,-0.323,-0.3091,-0.2725,-0.2417,-0.2221,-0.2143,-0.2118,-0.2125,-0.2174,-0.2073,-0.1837,-0.206,-0.2351,-1.985,-2.0756,-2.1854,-2.16,-2.2378,-2.3157,-2.2874,-2.215,-2.108,-1.9463,-1.9134,-1.8889,-1.81,-1.889,-2.0046,-2.1267,-2.1953,-2.2246,-2.1934,-2.2089,-2.1268,-1.8709,-1.7885,0.0,0.0,0.0,0.0,-1.7247,-1.6802,-1.6731,-1.7279,-1.6983,-1.6938,-1.7292,-1.6964,-1.6804,-1.6849,-1.6849,-1.6445,-1.5618,-1.4459,-1.4283,-1.5014,-1.468,-1.4741,-1.51,-1.51,-1.4709,-1.4022,-1.3225,-1.3214,-1.3585,-1.2425,-1.2595,-1.3437,-1.2877,-1.2821,-1.3074,-1.3312,-1.2955,-1.2419,-1.2549,-1.1989,-1.1227,-1.0968,-1.0739,-1.0458,-0.9893,-0.9407,-0.8973,-0.8706,-0.8508,-0.8211,-0.7466,-0.7324,-0.7228,-0.6702,-0.6373,-0.625,-0.6445,-0.633,-0.6317,-0.6667,-0.6573,-0.6485,-0.6485,-0.6025,-0.5645,-0.5451,-0.5344,-0.5309,-0.5309,-0.5309,-0.5309,-0.5309,-0.5151,-0.4928,-0.4628,-0.4081,-0.3593,-0.3238,-0.2858,-0.2613,-0.2533,-0.2496,-0.251,-0.251,-0.2513,-0.2171,-0.1487,-0.2205,-0.2584,-2.0699,-2.1866,-2.3227,-2.3254,-2.3687,-2.3937,-2.3321,-2.1831,-2.0058,-1.8119,-1.7705,-1.7563,-1.7112,-1.7462,-1.8492,-2.0596,-2.0955,-2.1191,-2.1816,-2.2344,-2.1953,-2.0059,-1.9297,-1.8827,0.0,0.0,0.0,-1.7708,-1.7548,-1.7639,-1.8152,-1.7876,-1.7984,-1.86,-1.8337,-1.8318,-1.8638,-1.8638,-1.8215,-1.7375,-1.5945,-1.5799,-1.6785,-1.6211,-1.5994,-1.6035,-1.5996,-1.5444,-1.4504,-1.365,-1.3765,-1.4348,-1.2723,-1.2832,-1.3832,-1.3129,-1.3101,-1.3396,-1.3396,-1.3104,-1.2741,-1.263,-1.2159,-1.152,-1.1062,-1.0739,-1.0523,-1.0263,-0.9713,-0.9215,-0.9102,-0.8958,-0.8649,-0.7918,-0.7913,-0.7926,-0.7567,-0.7266,-0.7102,-0.7067,-0.6908,-0.6862,-0.6961,-0.7031,-0.6954,-0.6646,-0.6446,-0.6124,-0.5699,-0.5443,-0.539,-0.5605,-0.5498,-0.5478,-0.5618,-0.5625,-0.5491,-0.5181,-0.4774,-0.4356,-0.3966,-0.3395,-0.3034,-0.2907,-0.2779,-0.2712,-0.2712,-0.2712,-0.2218,-0.1326,-0.2262,-0.2712,-2.155,-2.2777,-2.4082,-2.4082,-2.411,-2.3629,-2.1793,-2.0111,-1.8208,-1.5651,-1.517,-1.5218,-1.5284,-1.5303,-1.6164,-1.8765,-1.9254,-1.9902,-2.1641,-2.2012,-2.2344,-2.3027,-2.1699,-2.1034,-2.1788,0.0,0.0,-1.8207,0.0,-1.9215,-1.9141,-1.8344,-1.8645,-2.0254,-1.955,-1.953,-2.035,-2.0369,-1.9946,-1.9126,-1.8203,-1.7799,-1.783,-1.7792,-1.7262,-1.641,-1.6279,-1.5687,-1.4743,-1.3858,-1.3912,-1.4476,-1.3503,-1.3451,-1.3913,-1.3949,-1.3731,-1.343,-1.3447,-1.3259,-1.2961,-1.2687,-1.2416,-1.2045,-1.1187,-1.0897,-1.0876,-1.0749,-1.0371,-0.9968,-0.9727,-0.9667,-0.9422,-0.8523,-0.8604,-0.8869,-0.8793,-0.8756,-0.8635,-0.807,-0.7953,-0.7746,-0.7189,-0.7572,-0.7643,-0.6852,-0.7114,-0.7137,-0.6297,-0.5705,-0.5571,-0.6172,-0.5941,-0.5845,-0.6206,-0.6226,-0.6189,-0.6132,-0.572,-0.5341,-0.5044,-0.4222,-0.3642,-0.3294,-0.2907,-0.2712,-0.2712,-0.2712,-0.2242,-0.1392,-0.2283,-0.2712,-2.3399,-2.4168,-2.4822,-2.4245,-2.411,-2.3321,-2.0319,-1.8792,-1.7304,-1.4755,-1.4755,-1.522,-1.5217,-1.5276,-1.6166,-1.8781,-1.9253,-1.9902,-2.1641,-2.3535,-2.4336,-2.3301,-2.2793,-2.2598,-2.2753,-2.2578,0.0,0.0,-2.1352,-2.1064,-2.0946,-2.0727,-2.0514,-2.0312,-2.0677,-2.0966,-2.1196,-2.1196,-2.1081,-2.0831,-1.9377,-1.9011,-1.9619,-1.8958,-1.8423,-1.8003,-1.7972,-1.7341,-1.633,-1.609,-1.5747,-1.535,-1.4948,-1.4531,-1.4181,-1.4624,-1.4365,-1.3841,-1.4342,-1.3854,-1.2961,-1.2687,-1.2416,-1.2066,-1.14,-1.1071,-1.0924,-1.1031,-1.0613,-1.0237,-1.0569,-1.0458,-1.0201,-0.986,-0.9838,-0.9896,-0.9772,-0.9731,-0.9605,-0.9107,-0.874,-0.8439,-0.8308,-0.839,-0.8407,-0.819,-0.7807,-0.723,-0.6313,-0.6062,-0.62,-0.6738,-0.6369,-0.629,-0.6753,-0.6446,-0.595,-0.5416,-0.5263,-0.4935,-0.4317,-0.3732,-0.3373,-0.329,-0.2907,-0.2712,-0.2712,-0.2712,-0.2564,-0.2344,-0.2574,-0.2712,-2.4091,-2.4687,-2.512,-2.4302,-2.3514,-2.2254,-1.96,-1.7753,-1.6099,-1.4274,-1.4288,-1.4747,-1.5138,-1.4635,-1.5138,-1.8142,-1.804,-1.8594,-2.1484,-2.3437,-2.4492,-2.4316,-2.4297,-2.4277,-2.4238,-2.4217,-2.4218,0.0,-2.3425,-2.2558,-2.1702,-2.1626,-2.1198,-2.0339,-2.1086,-2.1677,-2.2062,-2.2447,-2.2254,-2.1485,-2.0542,-2.0177,-2.0292,-1.9785,-1.9287,-1.8773,0.0,-1.8016,-1.7071,-1.6956,-1.6633,-1.6211,-1.6101,-1.5728,-1.5316,-1.5735,-1.5508,-1.5059,-1.55,-1.4892,-1.3786,-1.3026,-1.2591,-1.2256,-1.1665,-1.1574,-1.1698,-1.1843,-1.1486,-1.1169,-1.1554,-1.1324,-1.0952,-1.0728,-1.0808,-1.0952,-1.0856,-1.086,-1.0699,-1.0176,-0.9651,-0.9306,-0.9306,-0.9503,-0.9512,-0.9093,-0.8703,-0.8205,-0.7402,-0.6885,-0.6881,-0.7668,-0.7356,-0.7258,-0.77,-0.7271,-0.6719,-0.6135,-0.5903,-0.5443,-0.4788,-0.4326,-0.4008,-0.3881,-0.3266,-0.297,-0.297,-0.2779,-0.2712,-0.2712,-0.2712,-0.2469,-2.4264,-2.4774,-2.5082,-2.4168,-2.262,-2.0869,-1.9073,-1.6792,-1.4811,-1.4055,-1.389,-1.4165,-1.5045,-1.3926,-1.3943,-1.7209,-1.6413,-1.6875,-2.1133,-2.2422,-2.3574,-2.5312,-2.5527,-2.5527,-2.5526,-2.5455,-2.5414,-2.5351,-2.4861,-2.3771,-2.199,-2.1721,-2.1318,-2.0643,-2.1417,-2.2254,-2.312,-2.3783,-2.334,-2.1831,-2.162,-2.1139,-2.0465,-2.035,-1.9862,-1.9116,0.0,0.0,-1.7598,-1.733,-1.7165,-1.7055,-1.7055,-1.6899,-1.6675,-1.6963,-1.6813,-1.6481,-1.6694,-1.6112,-1.5064,-1.3684,-1.2992,-1.2594,-1.2036,-1.2253,-1.271,-1.2795,-1.2607,-1.2465,-1.2688,-1.2409,-1.1974,-1.1626,-1.1862,-1.2151,-1.209,-1.1993,-1.1788,-1.1344,-1.0791,-1.0414,-1.0414,-1.0802,-1.0785,-0.9847,-0.9769,-0.9635,-0.9169,-0.8002,-0.7623,-0.8688,-0.8465,-0.8406,-0.8772,-0.8316,-0.7828,-0.7456,-0.6986,-0.6416,-0.5746,-0.5345,-0.4964,-0.4602,-0.3816,-0.3392,-0.3392,-0.3039,-0.2878,-0.2878,-0.2746,-0.2262,-2.5101,-2.5187,-2.4918,-2.3408,-2.1754,-1.9888,-1.7484,-1.5515,-1.4159,-1.3947,-1.3893,-1.4176,-1.5045,-1.4424,-1.4445,-1.6486,-1.602,-1.6679,-2.0312,-2.1562,-2.2713,-2.4341,-2.4596,-2.461,-2.4557,-2.4526,0.0,0.0,0.0,-2.4647,-2.2947,-2.2107,-2.189,-2.2345,-2.3195,-2.4043,-2.487,-2.4351,-2.3956,-2.3629,-2.2197,-2.1427,-2.1273,-2.06,-2.0129,-1.9821,-1.966,0.0,-1.9194,-1.8955,-1.8482,-1.7894,-1.7894,-1.7463,-1.6922,-1.7642,-1.743,-1.6885,-1.7415,-1.7031,-1.6148,-1.4893,-1.3888,-1.3124,-1.2791,-1.2702,-1.2781,-1.3235,-1.3415,-1.3546,-1.4014,-1.407,-1.4019,-1.3942,-1.3977,-1.3927,-1.3609,-1.2941,-1.2543,-1.3183,-1.2587,-1.1998,-1.1998,-1.2081,-1.1961,-1.1446,-1.1078,-1.0946,-1.1244,-0.9273,-0.8244,-0.9257,-0.8899,-0.881,-0.9319,-0.8878,-0.8277,-0.7617,-0.7476,-0.6947,-0.5907,-0.542,-0.5017,-0.4602,-0.4118,-0.3891,-0.3891,-0.3793,-0.3761,-0.3765,-0.3043,-0.2598,-2.5187,-2.5303,-2.4899,-2.3216,-2.1196,-1.9177,-1.7503,-1.5501,-1.4106,-1.4491,-1.4572,-1.4701,-1.5113,-1.4512,-1.4531,-1.6304,-1.5526,-1.5886,-1.9371,-2.0227,-2.112,-2.2793,-2.3793,-2.4167,-2.3677,-2.3991,-2.3932,-2.3164,0.0,-2.3437,-2.3122,-2.2633,-2.2527,-2.2837,-2.3655,-2.4485,-2.5284,-2.4928,-2.4505,-2.4072,-2.2793,-2.1947,-2.1466,-2.0677,-2.0241,-2.0143,-1.9909,0.0,-1.9676,-1.9405,-1.9069,-1.872,-1.872,-1.8482,-1.8221,-1.8707,-1.8568,-1.8207,-1.8603,-1.8141,-1.722,-1.6211,-1.5451,-1.476,-1.3919,-1.3913,-1.4239,-1.46,-1.455,-1.448,-1.4934,-1.4911,-1.471,-1.455,-1.4501,-1.4438,-1.4246,-1.3875,-1.3663,-1.4076,-1.3958,-1.3703,-1.3511,-1.3651,-1.3539,-1.2936,-1.2444,-1.2131,-1.2094,-1.0848,-1.0123,-1.0644,-1.0466,-1.0427,-1.0667,-1.0176,-0.9432,-0.8463,-0.8362,-0.7774,-0.657,-0.6307,-0.6114,-0.5888,-0.5062,-0.4616,-0.4616,-0.421,-0.4087,-0.4194,-0.3648,-0.327,-2.487,-2.5168,-2.4899,-2.3216,-2.0743,-1.8549,-1.7843,-1.5476,-1.372,-1.4717,-1.4918,-1.4943,-1.4931,-1.4517,-1.4714,-1.6327,-1.5271,-1.5368,-1.8478,-1.9068,-1.9837,-2.1569,-2.3097,-2.3801,-2.3286,-2.3631,0.0,-2.2845,0.0,0.0,-2.2773,-2.2957,-2.3077,-2.3179,-2.398,-2.4694,-2.5284,-2.5313,-2.4995,-2.4341,-2.3293,-2.2543,-2.2023,-2.1023,-2.0562,-2.0546,-2.0257,0.0,0.0,-1.9526,-1.9394,-1.9365,-1.9409,-1.9394,-1.938,-1.9564,-1.955,-1.9438,-1.9555,-1.9073,-1.8282,-1.7436,-1.6835,-1.6207,-1.4985,-1.5134,-1.5768,-1.5944,-1.5702,-1.5454,-1.5793,-1.562,-1.533,-1.5077,-1.4939,-1.4895,-1.4956,-1.4786,-1.4662,-1.4939,-1.5078,-1.5034,-1.4772,-1.5018,-1.4959,-1.4068,-1.3695,-1.3342,-1.292,-1.2539,-1.2274,-1.2248,-1.1982,-1.1811,-1.1811,-1.1361,-1.0656,-0.961,-0.9395,-0.8772,-0.758,-0.7431,-0.734,-0.724,-0.6269,-0.5755,-0.5755,-0.5012,-0.4757,-0.4945,-0.4519,-0.4164,-2.4178,-2.4736,-2.4899,-2.3216,-2.0292,-1.7785,-1.7639,-1.4511,-1.2087,-1.3695,-1.4062,-1.4102,-1.4116,-1.4637,-1.5381,-1.6358,-1.5761,-1.5845,-1.7747,-1.8659,-1.976,-2.1502,-2.2497,-2.3288,-2.3942,-2.3339,-2.2609,-2.1797,0.0,0.0,-2.1901,-2.2652,-2.3389,-2.4064,-2.4921,-2.5344,-2.5313,-2.5354,-2.5316,-2.5168,-2.3562,-2.3167,-2.3802,-2.2158,-2.1389,-2.138,-2.1235,0.0,0.0,-1.9824,-1.9676,-1.9582,-1.9713,-1.9676,-1.9582,-1.9726,-1.9755,-1.975,-1.9649,-1.9545,-1.93,-1.8319,-1.7344,-1.642,-1.5566,-1.5871,-1.6488,-1.6513,-1.6584,-1.6642,-1.668,-1.667,-1.6644,-1.6591,-1.6305,-1.6138,-1.6523,-1.5721,-1.5272,-1.6374,-1.6028,-1.5548,-1.549,-1.5846,-1.5706,-1.4599,-1.464,-1.4704,-1.4333,-1.4274,-1.41,-1.3756,-1.2579,-1.1811,-1.1811,-1.1737,-1.1492,-1.0956,-1.0516,-0.9852,-0.8973,-0.8499,-0.8104,-0.7756,-0.7617,-0.7557,-0.7565,-0.6985,-0.6743,-0.6737,-0.581,-0.5333,-2.238,-2.3158,-2.3389,-2.1716,-1.9511,-1.76,-1.6999,-1.4447,-1.2502,-1.3665,-1.392,-1.3956,-1.3991,-1.467,-1.5653,-1.7064,-1.612,-1.5855,-1.7654,-1.7698,-1.7998,-1.9206,-2.0959,-2.2177,0.0,0.0,-2.324,0.0,0.0,0.0,-2.3279,-2.3626,-2.3965,-2.4245,-2.507,-2.5463,-2.5415,-2.5447,-2.5447,-2.5415,-2.4238,-2.387,-2.4115,-2.2905,-2.2327,-2.2246,-2.1589,0.0,0.0,-2.0293,-2.0087,-2.0452,-1.9974,-1.9774,-1.9738,-1.9869,-1.9869,-1.9802,-1.9824,-1.9726,-1.9452,-1.8581,-1.8264,-1.8033,-1.708,-1.7038,-1.7382,-1.7722,-1.7524,-1.7283,-1.7513,-1.7309,-1.7036,-1.7036,-1.6802,-1.6602,-1.6763,-1.6427,-1.6223,-1.6696,-1.6716,-1.6564,-1.6358,-1.6606,-1.6632,-1.5961,-1.5836,-1.5621,-1.5227,-1.4982,-1.4704,-1.4296,-1.3557,-1.2941,-1.2685,-1.265,-1.2317,-1.1568,-1.163,-1.1247,-1.0327,-0.9846,-0.9542,-0.9355,-0.8555,-0.8166,-0.8158,-0.7692,-0.7557,-0.7714,-0.6804,-0.6486,-2.0515,-2.118,-2.1278,-1.9857,-1.8409,-1.7094,-1.6181,-1.4214,-1.2769,-1.3377,-1.3486,-1.3503,-1.3605,-1.4266,-1.5356,-1.7134,-1.638,-1.6096,-1.764,-1.7482,-1.7536,-1.8421,0.0,-2.1982,0.0,-2.3379,-2.3655,0.0,0.0,0.0,0.0,-2.4296,-2.4425,-2.4683,-2.5255,-2.5543,-2.5493,-2.5526,-2.5526,-2.5493,-2.4681,-2.4404,-2.4561,-2.3694,-2.3282,-2.3179,0.0,0.0,0.0,-2.1243,-2.0885,-2.1104,-2.0519,-2.0129,-1.988,-2.0031,-2.0022,-1.9952,-1.9993,-2.005,-1.9957,-1.9095,-1.9274,-1.9652,-1.8625,-1.824,-1.8241,-1.8645,-1.8376,-1.8001,-1.8286,-1.802,-1.7662,-1.7662,-1.7484,-1.7335,-1.7335,-1.7247,-1.7199,-1.7311,-1.7436,-1.7459,-1.7223,-1.7459,-1.7499,-1.6994,-1.6793,-1.6517,-1.6028,-1.5652,-1.53,-1.4857,-1.4481,-1.4019,-1.3459,-1.3425,-1.3078,-1.2244,-1.2399,-1.2189,-1.1538,-1.1072,-1.0762,-1.0572,-0.9655,-0.9116,-0.8983,-0.8503,-0.8422,-0.8558,-0.7835,-0.7509,-1.877,-1.8942,-1.8654,-1.783,-1.6916,-1.5996,-1.5108,-1.3615,-1.2425,-1.249,-1.2509,-1.2553,-1.2685,-1.3325,-1.4405,-1.6221,-1.6445,-1.6721,-1.7658,-1.8428,-1.9219,-2.0154,-2.177,-2.313,-2.3993,-2.41,0.0,0.0,0.0,0.0,0.0,-2.4294,-2.4703,-2.5564,-2.5661,-2.5634,-2.5493,-2.5564,-2.5564,-2.5493,-2.4681,-2.4719,-2.545,-2.4661,-2.4258,0.0,0.0,0.0,0.0,-2.2861,-2.2246,-2.132,-2.1433,-2.0879,-2.0022,-2.0214,-2.0304,-2.0269,-2.0069,-2.0556,-2.1126,-2.0112,-2.0368,-2.0909,-2.0035,-1.9397,-1.9017,-1.9154,-1.9087,-1.8996,-1.8996,-1.8879,-1.8785,-1.8785,-1.8663,-1.8585,-1.8585,-1.8321,-1.8186,-1.851,-1.8321,-1.8087,-1.8087,-1.8358,-1.8278,-1.7346,-1.7495,-1.7482,-1.685,-1.6474,-1.6117,-1.5649,-1.5286,-1.4752,-1.3967,-1.3901,-1.3702,-1.322,-1.2756,-1.2508,-1.2496,-1.2018,-1.1542,-1.1008,-1.0971,-1.0743,-1.0273,-0.9746,-0.9469,-0.9478,-0.895,-0.839,-1.7068,-1.7565,-1.7786,-1.693,-1.6478,-1.6026,-1.5117,-1.4057,-1.3277,-1.3263,-1.282,-1.264,-1.3322,-1.3641,-1.4577,-1.6946,-1.7298,-1.7591,-1.8493,-1.8811,-1.923,-1.9944,-2.2067,-2.385,0.0,0.0,0.0,0.0,0.0,0.0,0.0,-2.5095,-2.5286,-2.5662,-2.5683,-2.5683,-2.5636,-2.566,-2.566,-2.5636,-2.5382,-2.5373,-2.5564,-2.5294,0.0,0.0,0.0,0.0,0.0,-2.279,-2.2585,-2.3185,-2.1432,-2.0923,-2.1086,-2.0521,-2.0676,-2.1164,-2.1065,-2.1531,-2.2149,-2.182,-2.1817,-2.1865,-2.1601,-2.059,-1.9567,-1.96,-2.0013,-2.0307,-1.9701,-1.9824,-1.9937,-1.9354,-1.9042,-1.8865,-1.8865,-1.8797,-1.8746,-1.8848,-1.8698,-1.8574,-1.8574,-1.8589,-1.8491,-1.82,-1.8042,-1.7829,-1.7452,-1.7126,-1.6783,-1.6469,-1.6323,-1.5743,-1.441,-1.431,-1.4117,-1.3702,-1.3535,-1.3297,-1.2978,-1.2544,-1.221,-1.2018,-1.1356,-1.0943,-1.0802,-1.0302,-0.9843,-0.9478,-0.8958,-0.8398,-1.5423,-1.5727,-1.5969,-1.5421,-1.5491,-1.5449,-1.4576,-1.421,-1.3982,-1.3704,-1.3185,-1.2986,-1.3665,-1.3759,-1.4497,-1.6836,-1.7186,-1.747,-1.8388,-1.8762,0.0,-2.0755,0.0,0.0,0.0,0.0,0.0,0.0,0.0,0.0,0.0,-2.5441,-2.5517,-2.5609,-2.5658,-2.5661,-2.5661,-2.5683,-2.5703,-2.5703,-2.5703,-2.5683,-2.5636,-2.5636,0.0,0.0,0.0,0.0,0.0,-2.3825,-2.3412,-2.3688,-2.238,-2.1796,-2.1675,-2.1374,-2.161,-2.2082,-2.2007,-2.2498,-2.3111,-2.2786,-2.2612,-2.2526,-2.2526,-2.1736,-2.0857,-2.0857,-2.1282,-2.1534,-2.0667,-2.0683,-2.0709,-1.9837,-1.9456,-1.9286,-1.9286,-1.9286,-1.9291,-1.9239,-1.9199,-1.9158,-1.9118,-1.9073,-1.8993,-1.8842,-1.8646,-1.8404,-1.8073,-1.7653,-1.7318,-1.7155,-1.6954,-1.6427,-1.5448,-1.5092,-1.4679,-1.4149,-1.4117,-1.3934,-1.3493,-1.3195,-1.2849,-1.2508,-1.1872,-1.1394,-1.1019,-1.0544,-1.0127,-0.9804,-0.9239,-0.8716,0.0,-1.3724,-1.3695,-1.3683,-1.4204,-1.4502,-1.3756,-1.4166,0.0,-1.3882,-1.3567,-1.3513,-1.388,-1.3823,-1.4322,-1.6268,-1.6567,-1.6903,-1.7833,-1.8699,0.0,0.0,-2.3362,0.0,-2.3962,0.0,0.0,0.0,0.0,0.0,0.0,-2.5313,-2.5337,-2.5396,-2.5476,-2.5537,-2.5598,-2.5659,-2.5683,-2.5683,-2.5683,-2.5703,-2.5703,-2.5703,0.0,0.0,0.0,0.0,0.0,-2.5512,-2.4592,-2.3252,-2.3957,-2.326,-2.1951,-2.2649,-2.2951,-2.2972,-2.2925,-2.3482,-2.4079,-2.327,-2.3033,-2.3088,-2.3075,-2.2871,-2.2631,-2.2631,-2.2728,-2.2607,-2.174,-2.1414,-2.112,-2.0241,-1.9924,-1.9836,-1.9836,-1.9836,-1.9797,-1.9675,-1.9726,-1.9786,-1.9656,-1.9738,-1.9669,-1.9313,-1.9254,-1.9104,-1.8699,-1.8162,-1.7786,-1.7759,-1.7249,-1.6914,-1.6876,-1.6111,-1.533,-1.4613,-1.4564,-1.4342,-1.3921,-1.3888,-1.3454,-1.2579,-1.2508,-1.2018,-1.1019,-1.0572,-1.0322,-1.0283,-0.9765,-0.9239,-1.3756,0.0,-1.4513,-1.4513,-1.4644,-1.4708,0.0,-1.4516,-1.459,-1.4426,-1.3896,-1.3896,-1.5308,-1.5066,-1.5483,-1.7928,-1.8818,-1.9525,-2.0401,-2.1612,0.0,-2.3278,-2.3936,-2.4396,0.0,0.0,0.0,0.0,0.0,0.0,0.0,-2.4416,-2.4414,-2.4419,-2.4484,-2.4846,-2.5511,-2.5543,-2.5567,-2.5611,-2.5611,-2.5658,-2.5703,-2.5703,0.0,0.0,0.0,0.0,-2.5599,-2.4905,-2.476,-2.488,-2.3806,-2.3485,-2.3567,-2.3125,-2.3371,-2.3892,-2.3936,-2.4475,-2.5135,-2.4941,-2.4874,-2.4876,-2.4826,-2.3921,-2.291,-2.291,-2.2929,-2.274,-2.1872,-2.1637,-2.1388,-2.0521,-2.0244,-2.0176,-2.0176,-2.0172,-2.0162,-2.0135,-2.0041,-1.9964,-1.9973,-1.9907,-1.9859,-1.9821,-1.9781,-1.9593,-1.9183,-1.8966,-1.8735,-1.8434,-1.8261,-1.7979,-1.7535,-1.6674,-1.5907,-1.536,-1.5091,-1.4631,-1.392,-1.3907,-1.3635,-1.306,-1.2685,-1.2018,-1.1019,-1.0905,-1.0649,-1.0283,-0.9765,-0.9439,-1.4053,-1.434,-1.4707,-1.4705,-1.4754,-1.4773,-1.4643,-1.4632,-1.4643,-1.4606,-1.4254,-1.4399,-1.5838,-1.5414,-1.5838,-1.8868,-1.9028,0.0,0.0,0.0,-2.3107,-2.3427,-2.407,-2.454,0.0,0.0,0.0,0.0,0.0,0.0,0.0,-2.4591,-2.4639,-2.4639,-2.4684,-2.4946,-2.5459,-2.5473,-2.5526,-2.5554,-2.5554,-2.5595,-2.5659,-2.5659,-2.5662,0.0,0.0,0.0,-2.5664,-2.5117,-2.4938,-2.4954,-2.4407,-2.4207,-2.4189,-2.4139,-2.4387,-2.4743,-2.4756,-2.5032,-2.5403,-2.5403,-2.5432,-2.5442,-2.5409,-2.4805,-2.4121,-2.4069,-2.3784,-2.3293,-2.2437,-2.1908,-2.1396,-2.0543,-2.0321,-2.0305,-2.0305,-2.0313,-2.0328,-2.0269,-2.0217,-2.0173,-2.0102,-2.0082,-2.0063,-2.005,-2.0012,-1.9887,-1.9617,-1.9449,-1.9225,-1.8911,-1.8769,-1.852,-1.8156,-1.7376,-1.6658,-1.5976,-1.5764,-1.5227,-1.4224,-1.4189,-1.3868,-1.3198,-1.272,-1.2138,-1.1356,-1.1132,-1.0764,-1.0283,-1.0,-0.9716,-1.4464,-1.4412,-1.4383,-1.4555,-1.4685,-1.4724,-1.4541,-1.46,-1.4672,-1.4616,-1.4666,-1.4987,-1.5913,-1.5637,-1.6287,-1.9364,0.0,0.0,-2.1202,-2.2209,-2.2896,-2.3377,-2.4031,0.0,0.0,0.0,0.0,0.0,0.0,0.0,0.0,-2.4856,-2.4966,-2.5111,-2.512,-2.5206,-2.5376,-2.5324,-2.5293,-2.5303,-2.5303,-2.534,-2.5427,-2.5542,-2.5636,0.0,0.0,0.0,-2.5683,-2.5615,-2.513,-2.4544,-2.5221,-2.501,-2.4411,-2.5134,-2.5386,-2.5347,-2.5344,-2.533,-2.533,-2.533,-2.5379,-2.5417,-2.5392,-2.5438,-2.5454,-2.5308,-2.4701,-2.3925,-2.3045,-2.2186,-2.1328,-2.0506,-2.0312,-2.0303,-2.0303,-2.0341,-2.034,-2.0235,-2.0305,-2.0335,-2.0166,-2.0211,-2.0259,-2.016,-2.0133,-2.0098,-1.9961,-1.9732,-1.952,-1.9327,-1.9081,-1.8872,-1.8697,-1.8176,-1.7455,-1.6575,-1.6369,-1.5747,-1.4564,-1.4354,-1.394,-1.3198,-1.272,-1.2282,-1.1811,-1.1244,-1.0764,-1.0283,-1.0283,-1.0,-1.4362,-1.3805,-1.3395,-1.4361,-1.4611,-1.46,-1.4522,-1.4556,-1.4611,-1.4611,-1.518,-1.5748,-1.5967,-1.7063,-1.8308,-1.9526,0.0,-2.2857,0.0,0.0,-2.4143,-2.4063,0.0,0.0,0.0,0.0,0.0,0.0,0.0,0.0,0.0,-2.3373,-2.3409,-2.4255,-2.4283,-2.461,-2.5313,-2.4656,-2.4347,-2.4394,-2.4394,-2.4467,-2.4612,-2.5291,-2.5636,0.0,0.0,-2.5624,-2.5609,-2.5544,-2.5395,-2.5247,-2.5369,-2.5183,-2.4924,-2.5275,-2.529,-2.5178,-2.5381,-2.5481,-2.5481,-2.5481,-2.5472,-2.5474,-2.5414,-2.5421,-2.536,-2.513,-2.4624,-2.3992,-2.3178,-2.2321,-2.1441,-2.0588,-2.0343,-2.0303,-2.0303,-2.0312,-2.031,-2.0289,-2.0309,-2.0312,-2.0269,-2.0285,-2.0318,-2.0355,-2.0316,-2.0234,-2.0155,-2.0065,-1.9942,-1.9815,-1.9601,-1.9381,-1.9136,-1.8716,-1.8181,-1.7518,-1.6725,-1.5766,-1.4564,-1.3795,-1.3348,-1.3198,-1.272,-1.2282,-1.1811,-1.1244,-1.0764,-1.0283,-1.0283,-1.0,-1.4064,-1.3819,-1.3541,-1.3484,-1.3274,-1.3161,-1.3467,-1.3624,-1.3908,-1.4754,-1.5298,-1.5809,-1.6392,-1.7151,-1.8074,-1.9286,0.0,-2.3901,-2.3672,-2.4078,-2.4338,0.0,0.0,0.0,0.0,0.0,0.0,0.0,0.0,0.0,0.0,0.0,-2.3308,-2.3759,-2.4304,-2.4725,-2.5043,-2.4304,-2.4236,-2.4797,-2.4797,-2.4844,-2.4944,-2.5364,-2.5573,-2.5658,0.0,-2.5625,-2.5581,-2.552,-2.5406,-2.5232,-2.5207,-2.5061,-2.4904,-2.5027,-2.5008,-2.4972,-2.5088,-2.511,-2.511,-2.511,-2.511,-2.5119,-2.5094,-2.4758,-2.4457,-2.4778,-2.4532,-2.3925,-2.2983,-2.2156,-2.1378,-2.0533,-2.0318,-2.0305,-2.0305,-2.0324,-2.0348,-2.0348,-2.0348,-2.0338,-2.0313,-2.024,-2.0221,-2.0323,-2.026,-2.0216,-2.0252,-2.0265,-2.0191,-2.0031,-1.9926,-1.9786,-1.958,-1.905,-1.8274,-1.7297,-1.6196,-1.5256,-1.4534,-1.3641,-1.3198,-1.3198,-1.272,-1.2282,-1.1811,-1.1244,-1.0764,-1.0283,-1.0283,-1.0166,-1.3806,-1.375,-1.3502,-1.2707,-1.2439,-1.2478,-1.2851,-1.3214,-1.3855,-1.5157,-1.572,-1.6131,-1.673,-1.7381,0.0,-1.9672,-2.2404,-2.41,-2.3382,-2.3861,0.0,0.0,0.0,0.0,0.0,0.0,0.0,0.0,0.0,0.0,0.0,0.0,-2.346,-2.3496,-2.4448,-2.4904,-2.4804,-2.4094,-2.4144,-2.4955,-2.4955,-2.5004,-2.5122,-2.5385,-2.5543,-2.5603,-2.5662,-2.5659,-2.5567,-2.5511,-2.533,-2.507,-2.5019,-2.4866,-2.4674,-2.4629,-2.4629,-2.4674,-2.4674,-2.4723,-2.4804,-2.4804,-2.4804,-2.4804,-2.4804,-2.4332,-2.3936,-2.4557,-2.436,-2.3724,-2.2715,-2.193,-2.1196,-2.0391,-2.0204,-2.0224,-2.0183,-2.025,-2.0302,-2.0266,-2.0261,-2.0243,-2.019,-2.0104,-2.006,-2.0169,-2.0096,-2.008,-2.0239,-2.0302,-2.0291,-2.0177,-2.0138,-2.0034,-1.9831,-1.9295,-1.8449,-1.724,-1.579,-1.4847,-1.4511,-1.3667,-1.3198,-1.3198,-1.2615,-1.2174,-1.1811,-1.1132,-1.0649,-1.0283,-1.0283,-1.0166,-1.3768,-1.3171,-1.2517,-1.2508,-1.3316,-1.4036,-1.3693,-1.4403,-1.5329,-1.5979,-1.694,-1.7421,-1.6747,-1.8611,-2.0556,-2.1472,-2.3088,-2.419,-2.4116,0.0,0.0,0.0,0.0,0.0,0.0,0.0,0.0,0.0,0.0,0.0,0.0,0.0,0.0,-2.3501,-2.4346,-2.4818,-2.4804,-2.3949,-2.3645,-2.3904,-2.3904,-2.4034,-2.4316,-2.5132,-2.5543,-2.5603,-2.5662,-2.5633,-2.5517,-2.5493,-2.5313,-2.5003,-2.4991,-2.4728,-2.4307,-2.4118,-2.419,-2.434,-2.434,-2.4542,-2.4804,-2.4804,-2.4804,-2.4804,-2.4804,-2.4766,-2.4685,-2.4559,-2.4065,-2.3353,-2.2533,-2.1714,-2.0906,-2.0032,-1.9933,-1.9984,-1.985,-1.9934,-1.9993,-1.9861,-1.9839,-1.9828,-1.9847,-1.9836,-1.9824,-1.9836,-1.9836,-1.9895,-2.0096,-2.0118,-2.0186,-2.0351,-2.0272,-2.0007,-1.9574,-1.9484,-1.9091,-1.8248,-1.6182,-1.485,-1.4515,-1.3648,-1.3198,-1.3198,-1.2318,-1.1811,-1.1811,-1.0802,-1.0322,-1.0283,-1.0283,-0.9765,-1.3372,-1.3223,-1.2835,-1.2284,-1.3269,-1.4254,-1.3662,-1.4175,-1.5315,-1.713,-1.8151,-1.8746,-1.877,-1.9714,-2.0794,-2.1674,-2.3144,-2.419,0.0,0.0,0.0,0.0,0.0,0.0,0.0,0.0,0.0,0.0,0.0,0.0,0.0,0.0,0.0,-2.164,-2.3571,-2.4073,-2.2957,-2.3232,-2.3416,-2.3488,-2.3695,-2.4124,-2.4697,-2.5197,-2.5463,-2.5547,-2.5605,-2.5593,-2.5489,-2.5362,-2.5139,-2.4836,-2.4381,-2.4063,-2.389,-2.3623,-2.3563,-2.3611,-2.3611,-2.3712,-2.3832,-2.4043,-2.4118,-2.4155,-2.4355,-2.4092,-2.3761,-2.4192,-2.327,-2.2144,-2.2122,-2.1618,-2.0883,-2.0009,-1.9836,-1.9858,-1.9802,-1.971,-1.9606,-1.9563,-1.9423,-1.9286,-1.9286,-1.9224,-1.9214,-1.9291,-1.936,-1.9473,-1.9651,-1.9916,-2.014,-2.0216,-2.0249,-2.0095,-1.9657,-1.9612,-1.9304,-1.8517,-1.7009,-1.5806,-1.5081,-1.4132,-1.348,-1.3198,-1.2579,-1.2246,-1.2246,-1.1244,-1.0725,-1.0725,-1.0428,-0.9922,-1.2773,-1.2908,-1.274,-1.1991,-1.3071,-1.4251,-1.3889,-1.4742,-1.6115,-1.7954,-1.8839,-1.9468,-2.0007,-2.0463,0.0,0.0,-2.2942,-2.3914,0.0,0.0,0.0,0.0,0.0,0.0,0.0,0.0,0.0,0.0,0.0,0.0,0.0,0.0,0.0,0.0,-2.2775,-2.3215,-2.1821,-2.2145,-2.2436,-2.2711,-2.2727,-2.355,-2.5022,-2.5216,-2.5355,-2.5477,-2.5543,-2.5539,-2.5451,-2.5251,-2.4919,-2.4484,-2.3925,-2.3482,-2.3171,-2.2937,-2.277,-2.2677,-2.2813,-2.2912,-2.3058,-2.3437,-2.3544,-2.3588,-2.3816,-2.3495,-2.3186,-2.3712,-2.2736,-2.1572,-2.177,-2.123,-2.0451,-1.962,-1.9457,-1.9465,-1.943,-1.9304,-1.9195,-1.9154,-1.8913,-1.8711,-1.8711,-1.8539,-1.8485,-1.8677,-1.8783,-1.8937,-1.9181,-1.9488,-1.9763,-1.995,-2.0191,-2.0205,-1.9915,-1.9887,-1.966,-1.9103,-1.8111,-1.6965,-1.5745,-1.471,-1.3933,-1.3425,-1.2814,-1.2437,-1.2282,-1.142,-1.0905,-1.0764,-1.0273,-0.9765,-1.1992,-1.2056,-1.2008,-1.1707,-1.2815,-1.4112,-1.4587,-1.6398,-1.8048,-1.8352,-1.89,-1.9485,-2.0025,-2.0805,0.0,-2.175,-2.2464,0.0,0.0,0.0,0.0,0.0,0.0,0.0,0.0,0.0,0.0,0.0,0.0,0.0,0.0,0.0,0.0,0.0,-2.2046,-2.2257,-2.1767,-2.0716,-2.0608,-2.1386,-2.0781,-2.205,-2.4972,-2.5041,-2.5204,-2.5386,-2.5477,-2.5451,-2.5386,-2.5176,-2.4669,-2.3987,-2.3762,-2.3034,-2.2096,-2.2096,-2.1836,-2.1556,-2.1938,-2.2293,-2.2667,-2.3058,-2.3189,-2.3189,-2.3189,-2.3189,-2.3189,-2.3189,-2.2617,-2.1902,-2.1507,-2.0545,-1.9517,-1.878,-1.8699,-1.877,-1.8624,-1.8699,-1.8752,-1.8624,-1.8321,-1.8087,-1.8087,-1.7804,-1.7701,-1.8045,-1.8087,-1.827,-1.8734,-1.8802,-1.9032,-1.9629,-2.0109,-2.0367,-2.0309,-2.0291,-2.0234,-2.0106,-1.9475,-1.8269,-1.6403,-1.5362,-1.4541,-1.3921,-1.2975,-1.2282,-1.1811,-1.1282,-1.0764,-1.0283,-0.9755,-0.9199,-1.3307,-1.2667,-1.1935,-1.3029,-1.3388,-1.3674,-1.4225,-1.5438,-1.6992,-1.8925,-2.0243,-2.0917,-2.0398,-2.0871,0.0,-2.1497,0.0,0.0,0.0,0.0,0.0,0.0,0.0,0.0,0.0,0.0,0.0,0.0,0.0,0.0,0.0,0.0,0.0,0.0,-2.0733,-2.0827,-1.956,-1.979,-2.0037,-2.0271,-2.008,-2.095,-2.2712,-2.3719,-2.4236,-2.4392,-2.5103,-2.5427,-2.5364,-2.5019,-2.4444,-2.3762,-2.3464,-2.2838,-2.2068,-2.1845,-2.1488,-2.118,-2.1274,-2.1411,-2.1529,-2.1905,-2.2001,-2.2057,-2.2234,-2.2287,-2.2287,-2.2287,-2.198,-2.1507,-2.086,-2.0268,-1.9681,-1.9029,-1.8899,-1.888,-1.8654,-1.8301,-1.8025,-1.7975,-1.7535,-1.7174,-1.7174,-1.7101,-1.7077,-1.7174,-1.7339,-1.7705,-1.8358,-1.8449,-1.8708,-1.9407,-1.9617,-1.9783,-2.0,-2.0015,-2.0048,-2.01,-1.9876,-1.9008,-1.7361,-1.66,-1.5598,-1.4274,-1.3971,-1.3323,-1.2282,-1.1799,-1.1084,-1.0234,-0.9746,-0.8999,-1.2231,-1.198,-1.1808,-1.2692,-1.3365,-1.3885,-1.4343,-1.5474,-1.7033,-1.9194,-2.0052,-2.034,-2.0027,-2.0279,0.0,0.0,0.0,0.0,0.0,0.0,0.0,0.0,0.0,0.0,0.0,0.0,0.0,0.0,0.0,0.0,0.0,0.0,0.0,0.0,-1.9826,-1.9762,-1.8603,-1.8986,-1.9175,-1.9175,-1.9175,-1.9585,-2.0373,-2.2152,-2.3252,-2.3809,-2.4803,-2.5178,-2.4992,-2.4498,-2.4053,-2.3635,-2.2985,-2.2383,-2.1824,-2.1505,-2.0991,-2.0514,-2.0665,-2.0715,-2.0781,-2.1195,-2.1303,-2.1318,-2.1493,-2.1549,-2.1549,-2.1549,-2.1437,-2.1175,-2.0521,-2.0209,-1.9796,-1.8766,-1.8533,-1.8397,-1.7973,-1.7597,-1.7342,-1.7342,-1.6935,-1.6607,-1.6607,-1.6351,-1.6157,-1.6305,-1.66,-1.706,-1.7817,-1.8034,-1.8359,-1.8943,-1.9158,-1.9322,-1.9524,-1.9548,-1.9627,-1.9856,-1.9875,-1.9594,-1.8964,-1.7789,-1.653,-1.5197,-1.4871,-1.4053,-1.2742,-1.2482,-1.1811,-1.0764,-0.9972,-0.9224,-1.0055,-1.0633,-1.1548,-1.1525,-1.3044,-1.4584,-1.4767,-1.6065,-1.7613,-1.8947,-1.8844,-1.8635,-1.903,-1.9213,-1.9363,0.0,0.0,0.0,0.0,0.0,0.0,0.0,0.0,0.0,0.0,0.0,0.0,0.0,0.0,0.0,0.0,0.0,0.0,-1.9164,-1.9147,-1.8965,-1.8528,-1.829,-1.8146,0.0,-1.8125,-1.8146,-1.8222,-2.0499,-2.2229,-2.3426,-2.4353,-2.4577,-2.423,-2.361,-2.3444,-2.3448,-2.2389,-2.179,-2.1423,-2.1102,-2.0447,-1.9747,-2.0054,-2.0212,-2.0314,-2.0682,-2.0829,-2.0862,-2.0862,-2.0862,-2.0862,-2.0862,-2.0862,-2.0781,-2.027,-2.0153,-1.9725,-1.8079,-1.7765,-1.7661,-1.6965,-1.6789,-1.6738,-1.6696,-1.6405,-1.6176,-1.6148,-1.5536,-1.5166,-1.5447,-1.5846,-1.6354,-1.7069,-1.7491,-1.7893,-1.8259,-1.8626,-1.8872,-1.8919,-1.8919,-1.9066,-1.9406,-1.9574,-1.9983,-2.0678,-1.8939,-1.7537,-1.6612,-1.5831,-1.4715,-1.3335,-1.3291,-1.2737,-1.1734,-1.0496,-0.9868,-1.2148,-1.1463,-1.0951,-1.2739,-1.3983,-1.474,-1.4782,-1.5508,-1.634,-1.6932,-1.8227,-1.8939,-1.7919,-1.8132,0.0,0.0,0.0,0.0,0.0,0.0,0.0,0.0,0.0,0.0,0.0,0.0,0.0,0.0,0.0,0.0,0.0,0.0,0.0,-1.8138,-1.8121,-1.8058,-1.7971,-1.7905,-1.7755,0.0,-1.7492,-1.7591,-1.7859,-1.963,-2.1131,-2.2347,-2.2722,-2.2744,-2.2532,-2.2387,-2.2354,-2.2331,-2.2104,-2.1634,-2.1102,-2.1023,-2.0447,-1.9639,-1.9339,-1.9485,-1.9767,-1.9471,-1.963,-1.998,-1.998,-1.998,-1.998,-1.998,-1.998,-1.9838,-1.9204,-1.9034,-1.8706,-1.7257,-1.7546,-1.7874,-1.7008,-1.6581,-1.6297,-1.5918,-1.5579,-1.527,-1.4954,-1.4738,-1.4645,-1.4724,-1.5091,-1.5492,-1.5915,-1.6365,-1.6857,-1.7388,-1.753,-1.7774,-1.8255,-1.8294,-1.8466,-1.8911,-1.9234,-1.9555,-1.9924,-1.9954,-1.9662,-1.8992,-1.7791,-1.6488,-1.5074,-1.4248,-1.3353,-1.2381,-1.1608,-1.1048,-1.1255,-1.0915,-1.0976,-1.2288,-1.3353,-1.4089,-1.4089,-1.4492,-1.4908,-1.5117,-1.6511,-1.7485,-1.6886,-1.6862,0.0,0.0,0.0,0.0,0.0,0.0,0.0,0.0,0.0,0.0,0.0,0.0,0.0,0.0,0.0,0.0,0.0,-1.8166,-1.82,-1.7805,-1.7811,-1.7726,-1.7549,-1.7726,-1.7405,-1.6604,-1.7067,-1.7375,-1.7562,-1.9215,-2.0318,-2.0964,-2.1565,-2.1717,-2.1514,-2.1211,-2.1261,-2.1489,-2.1306,-2.1002,-2.0694,-2.091,-2.0447,-1.9639,-1.9369,-1.9281,-1.9281,-1.9006,-1.9095,-1.9281,-1.9006,-1.9132,-1.9244,-1.9006,-1.893,-1.8896,-1.8833,-1.8796,-1.8458,-1.7214,-1.7191,-1.7273,-1.649,-1.6009,-1.5637,-1.5404,-1.5061,-1.4752,-1.4533,-1.4342,-1.4214,-1.4214,-1.4446,-1.4868,-1.5519,-1.5854,-1.6255,-1.6758,-1.6928,-1.7126,-1.7466,-1.7766,-1.812,-1.8491,-1.8741,-1.9329,-2.0374,-2.0405,-2.0088,-1.938,-1.8381,-1.7365,-1.6258,-1.5358,-1.4621,-1.4029,-1.2788,-1.2064,-0.9933,-1.0285,-1.1211,-1.1251,-1.2175,-1.3069,-1.3005,-1.3374,-1.3689,-1.3635,-1.4587,-1.5495,-1.5639,0.0,0.0,0.0,0.0,0.0,0.0,0.0,0.0,0.0,0.0,0.0,0.0,0.0,0.0,0.0,0.0,0.0,-1.7811,-1.7811,-1.7743,-1.7608,-1.7541,-1.7388,-1.7098,-1.7342,-1.6915,-1.5895,-1.6605,-1.7044,-1.7264,-1.853,-1.926,-1.9578,-2.0441,-2.0746,-2.0548,-2.0047,-2.015,-2.059,-2.0368,-2.0228,-2.0199,-2.0687,-2.0379,-1.969,-1.9603,-1.9332,-1.8991,-1.8726,-1.8769,-1.8788,-1.8138,-1.8335,-1.865,-1.8224,-1.8013,-1.8025,-1.8484,-1.8446,-1.8024,-1.7018,-1.6535,-1.6186,-1.5684,-1.5255,-1.4968,-1.4907,-1.4564,-1.4278,-1.4278,-1.4,-1.3769,-1.3769,-1.3939,-1.4381,-1.5242,-1.5487,-1.5778,-1.6222,-1.6412,-1.6512,-1.6575,-1.7278,-1.7748,-1.7864,-1.8187,-1.9025,-2.0504,-2.0178,-1.9666,-1.9039,-1.8589,-1.8038,-1.738,-1.6355,-1.5854,-1.5767,-1.3981,-1.3172,-1.1418,-1.1359,-1.1127,-1.08,-1.1449,-1.2092,-1.1823,-1.2575,-1.3268,0.0,-1.3758,-1.4319,0.0,0.0,0.0,0.0,0.0,0.0,0.0,0.0,0.0,0.0,0.0,0.0,0.0,0.0,0.0,0.0,0.0,0.0,-1.7845,-1.7811,-1.7507,-1.6868,-1.657,-1.6374,-1.6351,-1.6173,-1.6127,-1.6227,-1.5765,-1.6022,-1.6834,-1.6507,-1.7099,-1.8426,-1.8794,-1.8943,-1.8905,-1.8819,-1.893,-1.9148,-1.9672,-1.9722,-1.9593,-2.0167,-2.0089,-1.9639,-1.9169,-1.9244,-1.9353,-1.7987,-1.8134,-1.8702,-1.7712,-1.7768,-1.8185,-1.8145,-1.7706,-1.7317,-1.7328,-1.6593,-1.5791,-1.5607,-1.5152,-1.4756,-1.4704,-1.4627,-1.447,-1.4117,-1.3682,-1.3357,-1.3357,-1.3323,-1.3301,-1.3301,-1.3656,-1.4019,-1.4268,-1.453,-1.4973,-1.5773,-1.5565,-1.5448,-1.5749,-1.6761,-1.7114,-1.6499,-1.7575,-1.8162,-1.7992,-1.8692,-1.9081,-1.9094,-1.9287,-1.9227,-1.8899,-1.6818,-1.6118,-1.6698,-1.5228,-1.4769,-1.0875,-1.0279,-0.9679,-0.8982,-0.9479,-1.0142,-1.0144,-1.0692,-1.1162,-1.1165,-1.153,-1.2117,0.0,0.0,0.0,0.0,0.0,0.0,0.0,0.0,0.0,0.0,0.0,0.0,0.0,0.0,0.0,0.0,0.0,-1.6915,-1.6576,-1.6576,-1.6424,-1.6086,-1.5783,-1.5545,-1.535,-1.5289,-1.5225,-1.5189,-1.5067,-1.5345,-1.5961,-1.605,-1.6678,-1.7698,-1.7614,-1.7574,-1.7574,-1.7574,-1.7636,-1.7781,-1.887,-1.8844,-1.8377,-1.9787,-1.958,-1.8619,-1.8848,-1.8542,-1.8021,-1.749,-1.7573,-1.7706,-1.6716,-1.6599,-1.6731,-1.6353,-1.5886,-1.5592,-1.6077,-1.5831,-1.5439,-1.5322,-1.4987,-1.4507,-1.3908,-1.398,-1.4019,-1.3581,-1.3323,-1.3198,-1.3198,-1.3198,-1.3198,-1.3198,-1.339,-1.3644,-1.4036,-1.4192,-1.4533,-1.5206,-1.5176,-1.5149,-1.5316,-1.6113,-1.6502,-1.6174,-1.6696,-1.7129,-1.7313,-1.7837,-1.8432,-1.9091,-1.992,-2.0197,-1.9921,-1.8659,-1.8169,-1.8366,-1.6837,-1.6111,-1.0458,-0.9725,-0.9141,-0.8047,-0.8306,-0.8745,-0.8515,-0.891,-0.9389,0.0,-0.9802,0.0,0.0,0.0,0.0,0.0,0.0,0.0,0.0,0.0,0.0,0.0,0.0,0.0,0.0,0.0,0.0,0.0,0.0,-1.5595,-1.5595,-1.5426,-1.5325,-1.5325,-1.5034,-1.4749,-1.4431,-1.4501,-1.4413,-1.4168,-1.4263,-1.4647,-1.5304,-1.5371,-1.5914,-1.6776,-1.6811,-1.6789,-1.6805,-1.6981,-1.694,-1.6846,-1.8098,-1.8037,-1.7451,-1.8978,-1.8713,-1.77,-1.843,-1.7939,-1.7008,-1.7075,-1.713,-1.6979,-1.6002,-1.5838,-1.5831,-1.5199,-1.4641,-1.4415,-1.5124,-1.5008,-1.4724,-1.4773,-1.4469,-1.4026,-1.3347,-1.3389,-1.3446,-1.3094,-1.292,-1.2826,-1.2826,-1.2943,-1.3012,-1.3012,-1.3116,-1.3362,-1.3807,-1.4114,-1.4442,-1.4862,-1.4937,-1.4937,-1.4937,-1.546,-1.5632,-1.5333,-1.5572,-1.6055,-1.6701,-1.7182,-1.7996,-1.9188,-2.0406,-2.0789,-2.0292,-1.974,-1.9459,-1.9469,-1.8152,-1.7357,-1.11,-1.0994,-1.0625,-0.9181,-0.8952,-0.8676,-0.7091,-0.7783,-0.8887,-0.9408,-0.9522,0.0,0.0,0.0,0.0,0.0,0.0,0.0,0.0,0.0,0.0,0.0,0.0,0.0,0.0,0.0,0.0,0.0,0.0,-1.5595,-1.5595,-1.4952,-1.4545,-1.4545,-1.4228,-1.3917,-1.3653,-1.3804,-1.3845,-1.382,-1.3205,-1.3737,-1.5232,-1.3676,-1.3861,-1.5474,-1.64,-1.6789,-1.6837,-1.7481,-1.7257,-1.6576,-1.7372,-1.7432,-1.7149,-1.7358,-1.7395,-1.7399,-1.7963,-1.7768,-1.7204,-1.6701,-1.6877,-1.7085,-1.6008,-1.6057,-1.633,-1.5728,-1.5106,-1.4675,-1.4744,-1.3597,-1.2616,-1.3159,-1.295,-1.2722,-1.3119,-1.2862,-1.2591,-1.2544,-1.2197,-1.1884,-1.1884,-1.2246,-1.2544,-1.2544,-1.2931,-1.322,-1.3254,-1.4186,-1.4855,-1.49,-1.4665,-1.4533,-1.4533,-1.4674,-1.4322,-1.334,-1.4222,-1.4992,-1.5473,-1.6585,-1.7945,-1.9539,-2.0756,-2.083,-1.9737,-1.8965,-1.8796,-1.9216,-1.8718,-1.8573,-1.0339,-1.0178,-0.9873,-0.8784,-0.8139,-0.7751,-0.7693,-0.7628,-0.7624,-0.7957,-0.8156,0.0,0.0,0.0,0.0,0.0,0.0,0.0,0.0,0.0,0.0,0.0,0.0,0.0,0.0,0.0,0.0,0.0,0.0,0.0,-1.3515,-1.3684,-1.3582,-1.3109,-1.3252,-1.3148,-1.2712,-1.3016,-1.2942,-1.2523,-1.3151,-1.3524,-1.37,-1.3524,-1.4006,-1.4996,-1.5358,-1.5764,-1.6179,-1.6425,-1.6368,-1.6227,-1.6899,-1.6673,-1.6115,-1.7346,-1.7042,-1.617,-1.7234,-1.7111,-1.6532,-1.649,-1.6578,-1.6531,-1.5906,-1.5612,-1.5368,-1.4711,-1.4127,-1.3664,-1.3575,-1.2878,-1.2226,-1.2224,-1.1976,-1.1816,-1.2235,-1.2424,-1.2401,-1.2125,-1.192,-1.1811,-1.1811,-1.1957,-1.2138,-1.2461,-1.265,-1.2965,-1.3581,-1.3739,-1.4013,-1.4584,-1.456,-1.4501,-1.4501,-1.4538,-1.4133,-1.3175,-1.3786,-1.4277,-1.448,-1.5997,-1.7405,-1.8605,-1.9444,-2.0171,-2.0781,-2.107,-2.113,-2.0983,-2.0747,-2.0489,-1.0208,-1.0092,-0.9973,-0.971,-0.8745,-0.8017,-0.8591,-0.7919,-0.7182,-0.712,0.0,0.0,0.0,0.0,0.0,0.0,0.0,0.0,0.0,0.0,0.0,0.0,0.0,0.0,0.0,0.0,0.0,0.0,0.0,0.0,-1.2314,-1.3007,-1.3126,-1.2556,-1.266,-1.2549,-1.219,-1.2394,-1.2343,-1.2134,-1.2807,-1.3002,-1.2816,-1.3032,-1.3615,-1.4453,-1.4453,-1.4962,-1.5829,-1.5876,-1.5951,-1.605,-1.6389,-1.6154,-1.5814,-1.6902,-1.6399,-1.5267,-1.6213,-1.6017,-1.5414,-1.5844,-1.5928,-1.5777,-1.5734,-1.5476,-1.509,-1.4402,-1.4071,-1.3792,-1.3154,-1.2355,-1.1723,-1.1509,-1.132,-1.1244,-1.1469,-1.1782,-1.1901,-1.1593,-1.14,-1.1292,-1.1292,-1.1442,-1.1653,-1.1945,-1.2437,-1.2887,-1.3365,-1.3459,-1.3695,-1.4246,-1.431,-1.4342,-1.4501,-1.4103,-1.3695,-1.3405,-1.3279,-1.3607,-1.4588,-1.5509,-1.6754,-1.8295,-1.8569,-1.9363,-2.0712,-2.1809,-2.2236,-2.2044,-2.236,-2.2183,0.0,0.0,0.0,-1.2009,-1.0913,-0.9575,-0.9509,-0.8625,-0.7653,-0.7039,0.0,0.0,0.0,0.0,0.0,0.0,0.0,0.0,0.0,0.0,0.0,0.0,0.0,0.0,0.0,0.0,0.0,0.0,0.0,-1.2072,-1.2266,-1.2957,-1.3226,-1.2995,-1.2471,-1.2205,-1.2205,-1.1918,-1.2119,-1.2771,-1.2104,-1.2134,-1.2756,-1.2089,-1.2523,-1.378,-1.3795,-1.4543,-1.5756,-1.5985,-1.607,-1.6068,-1.5791,-1.6009,-1.6366,-1.5865,-1.5335,-1.4808,-1.4923,-1.4487,-1.4013,-1.4719,-1.4857,-1.4869,-1.5451,-1.5627,-1.5504,-1.4935,-1.514,-1.5145,-1.3507,-1.1989,-1.0913,-1.0981,-1.0971,-1.0966,-1.0975,-1.0981,-1.0968,-1.0968,-1.0595,-1.0283,-1.0283,-1.0687,-1.0981,-1.1019,-1.2229,-1.2985,-1.2532,-1.3404,-1.4,-1.3901,-1.3901,-1.4052,-1.4438,-1.3306,-1.295,-1.391,-1.2637,-1.3,-1.56,-1.5196,-1.6082,-1.8631,-1.8278,-1.8464,-1.9246,-2.081,-2.1737,-2.2133,-2.3347,-2.3548,-1.0054,0.0,0.0,0.0,0.0,0.0,-0.9382,-0.8926,-0.8325,-0.7625,0.0,0.0,0.0,0.0,0.0,0.0,0.0,0.0,0.0,0.0,0.0,0.0,0.0,0.0,0.0,0.0,0.0,0.0,-1.1708,-1.1708,-1.1707,-1.1919,-1.2241,-1.2706,-1.2372,-1.2205,-1.2205,-1.1918,-1.1895,-1.2059,-1.188,-1.1895,-1.2059,-1.188,-1.2269,-1.3092,-1.36,-1.4101,-1.4616,-1.515,-1.5435,-1.5517,-1.5571,-1.5209,-1.4783,-1.5386,-1.5018,-1.4143,-1.4284,-1.4198,-1.4012,-1.3891,-1.3818,-1.3818,-1.3982,-1.4023,-1.4064,-1.4235,-1.407,-1.3594,-1.2413,-1.149,-1.0842,-1.0566,-1.0497,-1.0478,-1.0477,-1.0497,-1.0488,-1.0488,-1.038,-1.0283,-1.0283,-1.039,-1.0611,-1.0943,-1.1351,-1.1697,-1.1957,-1.2544,-1.3045,-1.3289,-1.3663,-1.3967,-1.4052,-1.3722,-1.3348,-1.2937,-1.2864,-1.2999,-1.3482,-1.4361,-1.5194,-1.5953,-1.7127,-1.7741,-1.7792,-1.966,-2.1088,-2.2064,-2.3556,-2.4055,-0.9958,-1.0036,-1.0263,-0.9959,0.0,0.0,-0.9501,-0.908,-0.8537,0.0,-0.7598,0.0,0.0,0.0,0.0,0.0,0.0,0.0,0.0,0.0,0.0,0.0,0.0,0.0,0.0,0.0,0.0,-1.0508,-1.0606,-1.091,-1.1502,-1.1693,-1.2002,-1.2435,-1.2169,-1.2024,-1.2024,-1.1891,-1.1805,-1.1805,-1.1805,-1.1805,-1.1805,-1.1805,-1.2082,-1.2612,-1.2986,-1.3455,-1.3955,-1.4144,-1.4548,-1.5058,-1.5188,-1.5029,-1.4821,-1.5648,-1.5233,-1.4205,-1.4147,-1.3861,-1.3544,-1.3357,-1.3247,-1.329,-1.3544,-1.3628,-1.3654,-1.3946,-1.3484,-1.2791,-1.2192,-1.1358,-1.0586,-1.0342,-1.0283,-1.0283,-1.0283,-1.0283,-1.0283,-1.0283,-1.0283,-1.0283,-1.0283,-1.0283,-1.039,-1.0687,-1.0867,-1.1132,-1.1431,-1.192,-1.2378,-1.28,-1.3135,-1.3488,-1.3868,-1.3702,-1.3536,-1.3451,-1.3089,-1.3023,-1.3205,-1.3853,-1.4212,-1.4271,-1.5684,-1.6542,-1.6913,-1.9146,-2.1035,-2.2562,-2.3888,-2.4375,-1.0426,-1.0461,-1.0417,-1.0342,-0.9989,0.0,-0.98,-0.9246,-0.867,-0.8461,-0.7522,0.0,0.0,0.0,0.0,0.0,0.0,0.0,0.0,0.0,0.0,0.0,0.0,0.0,0.0,-0.9128,-0.8878,-0.9065,-0.9266,-0.997,-1.1324,-1.1808,-1.2041,-1.2041,-1.1888,-1.1805,-1.1805,-1.1805,-1.1805,-1.1805,-1.1805,-1.1768,-1.1747,-1.1747,-1.1909,-1.2244,-1.2244,-1.2779,-1.3574,-1.3185,-1.365,-1.4629,-1.4802,-1.5089,-1.5499,-1.6026,-1.5484,-1.4461,-1.3983,-1.3352,-1.2762,-1.2868,-1.2882,-1.2905,-1.3477,-1.3619,-1.3663,-1.3651,-1.3141,-1.2521,-1.2373,-1.1358,-1.0342,-1.0293,-1.0283,-1.0283,-1.0283,-1.0244,-1.0244,-1.0283,-1.0283,-1.0283,-1.0283,-1.0283,-1.0283,-1.0283,-1.0649,-1.0905,-1.0905,-1.1394,-1.1884,-1.2282,-1.2401,-1.2779,-1.3589,-1.3344,-1.349,-1.4384,-1.3283,-1.2949,-1.3804,-1.3512,-1.3259,-1.3144,-1.4063,-1.5188,-1.6527,-1.9041,-2.1233,-2.3092,-2.4056,-2.4466,0.0,0.0,0.0,0.0,0.0,0.0,-1.0216,-1.008,-1.0031,0.0,-0.833,0.0,0.0,0.0,0.0,0.0,0.0,0.0,0.0,0.0,0.0,0.0,0.0,0.0,0.0,-0.8169,-0.8319,-0.8908,-0.9466,-0.9907,-1.0218,-1.0765,-1.1072,-1.1072,-1.1542,-1.1805,-1.1805,-1.1805,-1.1805,-1.1805,-1.1805,-1.1659,-1.14,-1.14,-1.1561,-1.182,-1.1922,-1.2403,-1.3059,-1.3032,-1.3412,-1.4111,-1.47,-1.4383,-1.3685,-1.4355,-1.4027,-1.3194,-1.2392,-1.2003,-1.1851,-1.1885,-1.1608,-1.139,-1.192,-1.2064,-1.208,-1.2131,-1.2531,-1.2731,-1.1575,-1.1044,-1.0703,-1.0361,-1.0283,-1.0283,-1.0283,-0.9961,-0.9804,-1.0205,-1.0283,-1.0283,-1.0283,-1.0283,-1.0283,-1.0283,-1.039,-1.0428,-1.0428,-1.0878,-1.1207,-1.1271,-1.1689,-1.2029,-1.2198,-1.2461,-1.2721,-1.2924,-1.3027,-1.2817,-1.2267,-1.2854,-1.2662,-1.1474,-1.2758,-1.4463,-1.6577,-1.8925,-2.0611,-2.173,-2.3129,-2.3902,0.0,0.0,0.0,-1.1201,0.0,0.0,0.0,-1.0379,-1.0262,-1.0644,-0.9841,-0.9274,0.0,0.0,0.0,0.0,0.0,0.0,0.0,0.0,0.0,0.0,0.0,0.0,0.0,-0.7899,-0.8034,-0.8379,-0.9023,-0.9398,-0.9398,-1.0009,-1.0484,-1.0783,-1.1126,-1.1461,-1.1805,-1.1805,-1.1805,-1.1805,-1.1805,-1.1615,-1.1296,-1.1296,-1.1356,-1.1442,-1.1521,-1.1985,-1.2647,-1.2698,-1.3019,-1.3604,-1.4246,-1.4125,-1.3629,-1.3987,-1.3673,-1.3012,-1.2306,-1.1857,-1.1606,-1.1606,-1.1562,-1.1611,-1.1826,-1.1695,-1.1457,-1.1142,-1.1339,-1.1453,-1.0732,-1.0576,-1.0547,-1.0332,-1.0283,-1.0283,-1.0283,-0.9883,-0.9597,-0.9843,-0.9677,-0.9677,-1.0205,-1.0079,-0.9922,-0.9922,-0.9677,-0.9597,-0.9883,-1.0099,-1.0437,-1.0943,-1.1244,-1.1505,-1.1774,-1.2029,-1.2246,-1.2508,-1.272,-1.2544,-1.1811,-1.2473,-1.2496,-1.1763,-1.2176,-1.3306,-1.5096,-1.6623,-1.8219,-1.9906,-2.1529,-2.2386,0.0,0.0,0.0,0.0,0.0,-1.1742,0.0,0.0,0.0,0.0,0.0,0.0,0.0,0.0,0.0,0.0,0.0,0.0,0.0,0.0,0.0,0.0,0.0,0.0,0.0,-0.7945,-0.7856,-0.7841,-0.8363,-0.8631,-0.8583,-0.9253,-0.9888,-1.0451,-1.0638,-1.1008,-1.1615,-1.1615,-1.1615,-1.1615,-1.1615,-1.1445,-1.1136,-1.124,-1.1278,-1.1277,-1.1277,-1.175,-1.2567,-1.2454,-1.271,-1.3248,-1.3871,-1.3986,-1.379,-1.3802,-1.3495,-1.2971,-1.2478,-1.2037,-1.1734,-1.1734,-1.1875,-1.2054,-1.1962,-1.1611,-1.1111,-1.0377,-1.0114,-1.0052,-0.9858,-1.0062,-1.0263,-1.0176,-1.0205,-1.0283,-1.0283,-0.9804,-0.931,-0.9235,-0.8852,-0.8837,-0.9843,-0.9677,-0.9439,-0.9359,-0.891,-0.8756,-0.9279,-0.9439,-0.9853,-1.075,-1.0756,-1.0937,-1.1438,-1.1474,-1.1641,-1.2043,-1.2246,-1.2138,-1.1664,-1.192,-1.2174,-1.2354,-1.1839,-1.2153,-1.3362,-1.3952,-1.5516,-1.7926,-1.97,-2.0588,0.0,0.0,0.0,0.0,-1.2891,0.0,0.0,0.0,-1.1404,-1.0908,0.0,0.0,0.0,0.0,0.0,0.0,0.0,0.0,0.0,0.0,0.0,0.0,0.0,0.0,0.0,0.0,-0.7694,-0.765,-0.7767,-0.7707,-0.7401,-0.8201,-0.8842,-0.9284,-1.0036,-1.062,-1.1015,-1.0991,-1.0991,-1.0991,-1.0991,-1.0835,-1.0508,-1.1003,-1.1342,-1.1547,-1.1547,-1.2146,-1.3073,-1.2584,-1.271,-1.3248,-1.3871,-1.3519,-1.2699,-1.2747,-1.2608,-1.2351,-1.1857,-1.1906,-1.2148,-1.2148,-1.1914,-1.1587,-1.109,-1.0912,-1.0651,-0.9682,-0.967,-0.9756,-0.9023,-0.9479,-1.0027,-0.968,-0.9961,-1.0283,-1.0283,-0.9518,-0.8666,-0.8318,-0.8092,-0.8201,-0.8797,-0.907,-0.9142,-0.8837,-0.8415,-0.8333,-0.8756,-0.9199,-0.9685,-1.0155,-0.9879,-0.9855,-1.0247,-1.036,-1.0407,-1.0446,-1.1335,-1.1653,-1.1132,-1.0725,-1.0954,-1.1847,-1.1345,-1.1571,-1.2542,-1.2625,-1.3835,-1.6123,-1.801,-1.9098,0.0,0.0,0.0,0.0,0.0,0.0,-1.2704,0.0,-1.229,0.0,0.0,0.0,0.0,0.0,0.0,0.0,-1.0952,0.0,0.0,0.0,0.0,0.0,0.0,0.0,0.0,0.0,0.0,0.0,0.0,-0.7863,-0.7731,-0.7734,-0.8306,-0.9536,-0.9619,-1.0038,-1.0897,-1.0897,-1.0897,-1.0897,-1.0897,-1.0715,-1.0409,-1.0622,-1.1039,-1.1588,-1.1588,-1.2215,-1.3185,-1.2947,-1.2998,-1.3223,-1.3483,-1.3293,-1.2827,-1.2344,-1.2224,-1.2229,-1.1466,-1.1299,-1.1465,-1.1465,-1.1113,-1.0656,-1.0267,-0.9824,-0.9314,-0.8467,-0.8479,-0.868,-0.8312,-0.875,-0.9237,-0.9082,-0.9199,-0.9359,-0.9359,-0.8756,-0.8177,-0.8026,-0.7653,-0.7447,-0.769,-0.8136,-0.839,-0.8275,-0.7814,-0.7641,-0.8152,-0.8439,-0.8855,-0.9663,-0.9336,-0.922,-0.9713,-0.9479,-0.9561,-1.0176,-1.1173,-1.1533,-1.1029,-1.0774,-1.0873,-1.133,-1.084,-1.0933,-1.1583,-1.1324,-1.1773,-1.3012,-1.5273,-1.6796,-1.2572,0.0,0.0,0.0,0.0,0.0,0.0,0.0,0.0,0.0,0.0,0.0,0.0,0.0,0.0,0.0,0.0,-1.0644,0.0,0.0,0.0,0.0,0.0,0.0,0.0,0.0,0.0,0.0,0.0,0.0,-0.7914,-0.7567,-0.8086,-0.964,-0.9367,-0.9638,-1.0619,-1.0632,-1.0632,-1.0632,-1.0632,-1.0496,-1.026,-1.0417,-1.0803,-1.1374,-1.1676,-1.2266,-1.2985,-1.3135,-1.3116,-1.3012,-1.3012,-1.2943,-1.272,-1.2066,-1.2041,-1.2254,-1.1407,-1.1084,-1.1064,-1.0947,-1.045,-0.9873,-0.9544,-0.8921,-0.8222,-0.7561,-0.7495,-0.7663,-0.7663,-0.807,-0.848,-0.848,-0.8594,-0.8716,-0.8716,-0.8275,-0.7919,-0.7919,-0.7405,-0.6979,-0.6979,-0.7363,-0.7663,-0.7663,-0.728,-0.7154,-0.7614,-0.7869,-0.8333,-0.9144,-0.8865,-0.8782,-0.929,-0.8882,-0.9105,-1.0245,-1.1012,-1.1338,-1.1182,-1.1124,-1.1102,-1.1172,-1.0974,-1.0974,-1.1161,-1.0974,-1.0984,-1.1126,-1.3161,-1.4689,0.0,0.0,0.0,-1.3179,0.0,0.0,0.0,0.0,-1.3745,0.0,0.0,0.0,0.0,0.0,0.0,-1.0692,0.0,0.0,0.0,0.0,0.0,0.0,0.0,0.0,0.0,0.0,0.0,0.0,0.0,0.0,-0.7407,-0.7654,-0.8193,-0.9086,-0.9308,-0.9579,-0.9919,-0.9931,-0.9931,-0.9931,-0.9931,-0.9931,-0.9944,-1.0458,-1.0709,-1.0781,-1.1914,-1.2404,-1.2479,-1.2985,-1.2943,-1.2508,-1.2508,-1.2246,-1.1847,-1.1811,-1.2029,-1.2245,-1.175,-1.1577,-1.1518,-1.1045,-1.0262,-0.9417,-0.8911,-0.834,-0.7802,-0.7202,-0.7027,-0.7021,-0.7021,-0.7489,-0.7919,-0.7919,-0.8316,-0.8716,-0.8716,-0.8275,-0.7919,-0.7919,-0.7405,-0.6979,-0.6979,-0.7021,-0.7021,-0.7021,-0.7021,-0.7021,-0.7021,-0.7752,-0.8341,-0.8509,-0.8378,-0.8461,-0.8867,-0.8566,-0.8949,-1.0499,-1.0624,-1.0899,-1.1557,-1.1577,-1.1577,-1.1557,-1.215,-1.215,-1.1557,-1.215,-1.216,-1.161,-1.2331,-1.3134,0.0,0.0,-0.9358,-1.1685,0.0,0.0,0.0,0.0,0.0,0.0,0.0,0.0,0.0,0.0,-1.1774,-1.1448,-1.0973,0.0,0.0,0.0,0.0,0.0,0.0,0.0,0.0,0.0,0.0,0.0,0.0,0.0,0.0,-0.8093,-0.8587,-0.9592,-0.9361,-0.9316,-0.9555,-0.9555,-0.9449,-0.917,-0.9449,-0.9422,-0.9197,-0.9629,-1.0027,-1.042,-1.1149,-1.1831,-1.2422,-1.2641,-1.265,-1.2473,-1.2174,-1.1957,-1.1774,-1.1394,-1.1524,-1.1819,-1.1291,-1.1133,-1.1064,-1.0635,-0.9827,-0.8918,-0.8756,-0.8062,-0.7273,-0.7063,-0.6979,-0.6979,-0.6979,-0.7147,-0.7321,-0.7321,-0.744,-0.7558,-0.7558,-0.744,-0.7321,-0.7321,-0.7147,-0.6979,-0.6979,-0.6979,-0.6979,-0.6979,-0.7188,-0.749,-0.7925,-0.8424,-0.8852,-0.9252,-0.8943,-0.8898,-0.9366,-0.9316,-0.9255,-0.9328,-1.0119,-1.0579,-1.0496,-1.1736,-1.2021,-1.1143,-1.1621,-1.1814,-1.1606,-1.1814,-1.1671,-1.127,-1.15,-1.2434,-0.8552,-0.8075,0.0,-1.0256,-1.007,0.0,-1.2186,0.0,0.0,0.0,0.0,0.0,0.0,0.0,0.0,-1.1162,-1.0786,-1.0336,0.0,-0.9823,0.0,0.0,0.0,0.0,0.0,0.0,0.0,0.0,0.0,0.0,0.0,0.0,-0.8788,-0.9687,-0.9379,-0.9266,-0.9396,-0.9262,-0.9127,-0.9057,-0.9154,-0.9138,-0.9046,-0.9154,-0.9384,-0.9734,-1.0436,-1.1085,-1.166,-1.2106,-1.2138,-1.1945,-1.1616,-1.1394,-1.1255,-1.1057,-1.1196,-1.1358,-1.1032,-1.0908,-1.084,-1.042,-0.9558,-0.8716,-0.8716,-0.7889,-0.6979,-0.6979,-0.6979,-0.7047,-0.7154,-0.7101,-0.7047,-0.7154,-0.7101,-0.6979,-0.6979,-0.7147,-0.7321,-0.7321,-0.7482,-0.7599,-0.7599,-0.7599,-0.7474,-0.7063,-0.7188,-0.7517,-0.807,-0.8587,-0.9013,-0.9374,-0.9268,-0.9416,-1.0056,-0.9888,-0.9652,-0.9468,-1.022,-1.0604,-1.048,-1.2035,-1.248,-1.1631,-1.1885,-1.2077,-1.2077,-1.2507,-1.2361,-1.1758,-1.1758,-1.2412]},{"header":{"parameterUnit":"m.s-1","parameterCategory":1,"la1":30.6,"la2":29.2853,"lo1":-89.7004,"lo2":-87.6739,"dy":0.0162,"dx":0.0183,"nx":112,"ny":82,"refTime":"2024-03-16T18:00:00:Z","depth":0,"parameterNumber":3,"parameterNumberName":"V-component_of_WINDS"},"data":[0.0,0.0,0.0,0.0,0.0,0.0,0.0,0.0,0.0,0.0,0.0,0.0,0.0,0.0,0.0,0.0,0.0,0.0,0.0,0.0,0.0,0.0,0.0,0.0,0.0,0.0,0.0,0.0,0.0,0.0,0.0,0.0,0.0,0.0,0.0,0.0,0.0,0.0,0.0,0.0,0.0,0.0,0.0,0.0,0.0,0.0,0.0,0.0,0.0,0.0,0.0,0.0,0.0,0.0,0.0,0.0,0.0,0.0,0.0,0.0,0.0,0.0,0.0,0.0,0.0,0.0,0.0,0.0,0.0,0.0,0.0,0.0,0.0,0.0,0.0,0.0,0.0,0.0,0.0,0.0,0.0,0.0,0.0,0.0,0.0,0.0,0.0,0.0,0.0,0.0,-0.789,-0.7988,-0.8878,-0.893,-0.7548,-0.8535,-0.84,-0.6445,0.0,0.0,0.0,0.0,0.0,0.0,0.0,0.0,0.0,0.0,0.0,0.0,0.0,0.0,0.0,0.0,0.0,0.0,0.0,0.0,0.0,0.0,0.0,0.0,0.0,0.0,0.0,0.0,0.0,0.0,0.0,0.0,0.0,0.0,0.0,0.0,0.0,0.0,0.0,0.0,0.0,0.0,0.0,0.0,0.0,0.0,0.0,0.0,0.0,0.0,0.0,0.0,0.0,0.0,0.0,0.0,0.0,0.0,0.0,0.0,0.0,0.0,0.0,0.0,0.0,0.0,0.0,0.0,0.0,0.0,0.0,0.0,0.0,0.0,0.0,0.0,0.0,0.0,0.0,0.0,0.0,0.0,0.0,0.0,0.0,0.0,0.0,0.0,0.0,0.0,0.0,0.0,0.0,0.0,0.0,0.0,0.0,0.0,0.0,0.0,0.0,0.0,0.0,0.0,-0.8583,-0.8428,-0.8464,-0.7867,-0.6304,-0.6772,-0.682,-0.6026,0.0,0.0,0.0,0.0,0.0,0.0,0.0,0.0,0.0,0.0,0.0,0.0,0.0,0.0,0.0,0.0,0.0,0.0,0.0,0.0,0.0,0.0,0.0,0.0,0.0,0.0,0.0,0.0,0.0,0.0,0.0,0.0,0.0,0.0,0.0,0.0,0.0,0.0,0.0,0.0,0.0,0.0,0.0,0.0,0.0,0.0,0.0,0.0,0.0,0.0,0.0,0.0,0.0,0.0,0.0,0.0,0.0,0.0,0.0,0.0,0.0,0.0,0.0,0.0,0.0,0.0,0.0,0.0,0.0,0.0,0.0,0.0,0.0,0.0,0.0,0.0,0.0,0.0,0.0,0.0,0.0,0.0,0.0,0.0,0.0,0.0,0.0,0.0,0.0,0.0,0.0,0.0,0.0,0.0,0.0,0.0,0.0,0.0,0.0,0.0,0.0,0.0,0.0,-0.7771,-0.7796,-0.8438,-0.8055,-0.7305,-0.62,-0.6609,-0.6324,-0.4911,-0.6569,0.0,0.0,0.0,0.0,0.0,0.0,0.0,0.0,0.0,0.0,0.0,0.0,0.0,0.0,0.0,0.0,0.0,0.0,0.0,0.0,0.0,0.0,0.0,0.0,0.0,0.0,0.0,0.0,0.0,0.0,0.0,0.0,0.0,0.0,0.0,0.0,0.0,0.0,0.0,0.0,0.0,0.0,0.0,0.0,0.0,0.0,0.0,0.0,0.0,0.0,0.0,0.0,0.0,0.0,0.0,0.0,0.0,0.0,0.0,0.0,0.0,0.0,0.0,0.0,0.0,0.0,0.0,0.0,0.0,0.0,0.0,0.0,0.0,0.0,0.0,0.0,0.0,0.0,0.0,0.0,0.0,0.0,0.0,0.0,0.0,0.0,0.0,0.0,0.0,0.0,0.0,0.0,0.0,0.0,0.0,0.0,0.0,0.0,0.0,0.0,0.0,0.0,-0.7241,-0.6797,-0.7885,-0.7463,-0.678,-0.6017,-0.6321,-0.5809,-0.4029,-0.5961,0.0,0.0,0.0,0.0,0.0,0.0,0.0,0.0,0.0,0.0,0.0,0.0,0.0,0.0,0.0,0.0,0.0,0.0,0.0,0.0,0.0,0.0,0.0,0.0,0.0,0.0,0.0,0.0,0.0,0.0,0.0,0.0,0.0,0.0,0.0,0.0,0.0,0.0,0.0,0.0,0.0,0.0,0.0,0.0,0.0,0.0,0.0,0.0,0.0,0.0,0.0,0.0,0.0,0.0,0.0,0.0,0.0,0.0,0.0,0.0,0.0,0.0,0.0,0.0,0.0,0.0,0.0,0.0,0.0,0.0,0.0,0.0,0.0,0.0,0.0,0.0,0.0,0.0,0.0,0.0,0.0,0.0,0.0,0.0,0.0,0.0,0.0,0.0,0.0,0.0,0.0,0.0,0.0,0.0,0.0,0.0,0.0,0.0,0.0,0.0,0.0,0.0,-0.6638,-0.6173,-0.6502,-0.6489,-0.6038,-0.499,-0.4931,-0.4679,-0.4032,-0.6124,0.0,0.0,0.0,0.0,0.0,0.0,0.0,0.0,0.0,0.0,0.0,0.0,0.0,0.0,0.0,0.0,0.0,0.0,0.0,0.0,0.0,0.0,0.0,0.0,0.0,0.0,0.0,0.0,0.0,0.0,0.0,0.0,0.0,0.0,0.0,0.0,0.0,0.0,0.0,0.0,0.0,0.0,0.0,0.0,0.0,0.0,0.0,0.0,0.0,0.0,0.0,0.0,0.0,0.0,0.0,0.0,0.0,0.0,0.0,0.0,0.0,0.0,0.0,0.0,0.0,0.0,0.0,0.0,0.0,0.0,0.0,0.0,0.0,0.0,0.0,0.0,0.0,0.0,0.0,0.0,0.0,0.0,0.0,0.0,0.0,0.0,0.0,0.0,0.0,0.0,0.0,0.0,0.0,0.0,0.0,0.0,0.0,0.0,0.0,0.0,0.0,0.0,-0.647,-0.5964,0.0,-0.4904,-0.4141,-0.4757,-0.4793,-0.4596,-0.4091,0.0,0.0,0.0,0.0,0.0,0.0,0.0,0.0,0.0,0.0,0.0,0.0,0.0,0.0,0.0,0.0,0.0,0.0,0.0,0.0,0.0,0.0,0.0,0.0,0.0,0.0,0.0,0.0,0.0,0.0,0.0,0.0,0.0,0.0,0.0,0.0,0.0,0.0,0.0,0.0,0.0,0.0,0.0,0.0,0.0,0.0,0.0,0.0,0.0,0.0,0.0,0.0,0.0,0.0,0.0,0.0,0.0,0.0,0.0,0.0,0.0,0.0,0.0,0.0,0.0,0.0,0.0,0.0,0.0,0.0,0.0,0.0,0.0,0.0,0.0,0.0,0.0,0.0,0.0,0.0,0.0,0.0,0.0,0.0,0.0,0.0,0.0,0.0,0.0,0.0,0.0,0.0,0.0,0.0,0.0,0.0,0.0,0.0,0.0,0.0,0.0,0.0,-0.7044,-0.6102,-0.5412,0.0,-0.3594,-0.2634,-0.322,-0.3272,-0.3523,-0.41,0.0,0.0,0.0,0.0,0.0,0.0,0.0,0.0,0.0,0.0,0.0,0.0,0.0,0.0,0.0,0.0,0.0,0.0,0.0,0.0,0.0,0.0,0.0,0.0,0.0,0.0,0.0,0.0,0.0,0.0,0.0,0.0,0.0,0.0,0.0,0.0,0.0,0.0,0.0,0.0,0.0,0.0,0.0,0.0,0.0,0.0,0.0,0.0,0.0,0.0,0.0,0.0,0.0,0.0,0.0,0.0,0.0,0.0,0.0,0.0,0.0,0.0,0.0,0.0,0.0,0.0,0.0,0.0,0.0,0.0,0.0,0.0,0.0,0.0,0.0,0.0,0.0,0.0,0.0,0.0,0.0,0.0,0.0,0.0,0.0,0.0,0.0,0.0,0.0,0.0,0.0,0.0,0.0,0.0,0.0,0.0,0.0,0.0,0.0,0.0,0.0,0.0,-0.6302,-0.5459,-0.4391,-0.333,-0.2744,-0.1775,-0.0146,0.0,-0.1208,0.0,0.0,0.0,0.0,0.0,0.0,0.0,0.0,0.0,0.0,0.0,0.0,0.0,0.0,0.0,0.0,0.0,0.0,0.0,0.0,0.0,0.0,0.0,0.0,0.0,0.0,0.0,0.0,0.0,0.0,0.0,0.0,0.0,0.0,0.0,0.0,0.0,0.0,0.0,0.0,0.0,0.0,0.0,0.0,0.0,0.0,0.0,0.0,0.0,0.0,0.0,0.0,0.0,0.0,0.0,0.0,0.0,0.0,0.0,0.0,0.0,0.0,0.0,0.0,0.0,0.0,0.0,0.0,0.0,0.0,0.0,0.0,0.0,0.0,0.0,0.0,0.0,0.0,0.0,0.0,0.0,0.0,0.0,0.0,0.0,0.0,0.0,0.0,0.0,0.0,0.0,0.0,0.0,0.0,0.0,0.0,0.0,0.0,0.0,0.0,0.0,0.0,0.0,-0.6378,-0.5576,-0.4803,-0.443,-0.4219,-0.2982,-0.0238,0.0,-0.1208,-0.4023,0.0,0.0,0.0,0.0,0.0,0.0,0.0,0.0,0.0,0.0,0.0,0.0,0.0,0.0,0.0,0.0,0.0,0.0,0.0,0.0,0.0,0.0,0.0,0.0,0.0,0.0,0.0,0.0,0.0,0.0,0.0,0.0,0.0,0.0,0.0,0.0,0.0,0.0,0.0,0.0,0.0,0.0,0.0,0.0,0.0,0.0,0.0,0.0,0.0,0.0,0.0,0.0,0.0,0.0,0.0,0.0,0.0,0.0,0.0,0.0,0.0,0.0,0.0,0.0,0.0,0.0,0.0,0.0,0.0,0.0,0.0,0.0,0.0,0.0,0.0,0.0,0.0,0.0,0.0,0.0,0.0,0.0,0.0,0.0,0.0,0.0,0.0,0.0,0.0,0.0,0.0,0.0,0.0,0.0,0.0,0.0,0.0,0.0,0.0,0.0,0.0,0.0,-0.649,-0.5944,-0.5347,-0.4981,-0.4912,-0.3818,-0.1175,-0.0366,-0.0716,-0.2417,0.0,0.0,0.0,0.0,0.0,0.0,0.0,0.0,0.0,0.0,0.0,0.0,0.0,0.0,0.0,0.0,0.0,0.0,0.0,0.0,0.0,0.0,0.0,0.0,0.0,0.0,0.0,0.0,0.0,0.0,0.0,0.0,0.0,0.0,0.0,0.0,0.0,0.0,0.0,0.0,0.0,0.0,0.0,0.0,0.0,0.0,0.0,0.0,0.0,0.0,0.0,0.0,0.0,0.0,0.0,0.0,0.0,0.0,0.0,0.0,0.0,0.0,0.0,0.0,0.0,0.0,0.0,0.0,0.0,0.0,0.0,0.0,0.0,0.0,0.0,0.0,0.0,0.0,0.0,0.0,0.0,0.0,0.0,0.0,0.0,0.0,0.0,0.0,0.0,0.0,0.0,0.0,0.0,0.0,0.0,0.0,0.0,0.0,0.0,0.0,0.0,0.0,-0.6635,-0.6407,-0.5899,-0.5096,-0.5016,-0.4301,-0.255,-0.0921,0.0,0.0,0.0,0.0,0.0,0.0,0.0,0.0,0.0,0.0,0.0,0.0,0.0,0.0,0.0,0.0,0.0,0.0,0.0,0.0,0.0,0.0,0.0,0.0,0.0,0.0,0.0,0.0,0.0,0.0,0.0,0.0,0.0,0.0,0.0,0.0,0.0,0.0,0.0,0.0,0.0,0.0,0.0,0.0,0.0,0.0,0.0,0.0,0.0,0.0,0.0,0.0,0.0,0.0,0.0,0.0,0.0,0.0,0.0,0.0,0.0,0.0,-0.874,0.0,0.0,0.0,0.0,0.0,0.0,0.0,0.0,0.0,0.0,0.0,0.0,0.0,0.0,0.0,0.0,0.0,0.0,0.0,0.0,0.0,0.0,0.0,0.0,0.0,0.0,0.0,0.0,0.0,0.0,0.0,0.0,0.0,0.0,0.0,0.0,0.0,0.0,0.0,0.0,0.0,-0.6687,-0.6464,-0.597,-0.5166,-0.5085,-0.4369,-0.2622,-0.0957,0.0,0.0,-0.0866,0.0,0.0,0.0,0.0,0.0,0.0,0.0,0.0,0.0,0.0,0.0,0.0,0.0,0.0,0.0,0.0,0.0,0.0,0.0,0.0,0.0,0.0,0.0,0.0,0.0,0.0,0.0,0.0,0.0,0.0,0.0,0.0,0.0,0.0,0.0,0.0,0.0,0.0,0.0,0.0,0.0,0.0,0.0,0.0,0.0,0.0,0.0,0.0,0.0,0.0,0.0,0.0,0.0,0.0,0.0,0.0,0.0,0.0,0.0,0.0,-0.8672,0.0,0.0,0.0,0.0,0.0,0.0,0.0,0.0,0.0,0.0,0.0,0.0,0.0,0.0,0.0,0.0,0.0,0.0,0.0,0.0,0.0,0.0,0.0,0.0,0.0,0.0,0.0,0.0,0.0,0.0,0.0,0.0,0.0,0.0,0.0,0.0,0.0,0.0,0.0,0.0,-0.7424,-0.7112,-0.66,-0.5773,-0.5328,-0.4387,-0.2641,-0.0964,0.0,0.0,0.0,0.0,0.0,0.0,0.0,0.0,0.0,0.0,0.0,0.0,0.0,0.0,0.0,0.0,0.0,0.0,0.0,0.0,0.0,0.0,0.0,0.0,0.0,0.0,0.0,0.0,0.0,0.0,0.0,0.0,0.0,0.0,0.0,0.0,0.0,0.0,0.0,0.0,0.0,0.0,0.0,0.0,0.0,0.0,0.0,0.0,0.0,0.0,0.0,0.0,0.0,0.0,0.0,0.0,-0.5793,-0.6124,-0.6374,-0.7155,-0.7085,-0.6361,-0.7095,-0.7582,-0.7867,0.0,0.0,0.0,0.0,0.0,0.0,0.0,0.0,0.0,0.0,0.0,0.0,0.0,0.0,0.0,0.0,0.0,0.0,0.0,0.0,0.0,0.0,0.0,0.0,0.0,-0.8532,-0.9081,0.0,0.0,0.0,0.0,0.0,0.0,0.0,0.0,0.0,0.0,0.0,0.0,-0.8261,-0.7971,-0.7485,-0.6619,-0.5847,-0.4733,-0.3103,-0.1137,0.0,0.0,0.0,0.0,0.0,0.0,0.0,0.0,0.0,0.0,0.0,0.0,0.0,0.0,0.0,0.0,0.0,0.0,0.0,0.0,0.0,0.0,0.0,0.0,0.0,0.0,0.0,0.0,0.0,0.0,0.0,0.0,0.0,0.0,0.0,0.0,0.0366,0.0356,0.0,0.0,0.0,0.0,0.0,0.0,0.0,0.0,0.0,0.0,0.0,0.0,0.0,-0.6298,-0.6469,-0.5938,-0.5794,-0.6062,-0.6357,-0.6789,-0.7331,-0.7509,-0.7605,-0.7588,-0.6646,0.0,-0.6856,-0.6621,0.0,0.0,0.0,0.0,0.0,0.0,0.0,0.0,0.0,0.0,0.0,0.0,0.0,0.0,0.0,0.0,0.0,0.0,0.0,0.0,0.0,0.0,-0.9182,-0.9364,-0.9559,-0.9691,0.0,-0.9783,-0.9956,-0.9818,0.0,0.0,0.0,0.0,0.0,0.0,0.0,0.0,-0.8427,-0.857,-0.8405,-0.7526,-0.6908,-0.6078,-0.4866,-0.1827,0.0,0.0,0.0,0.0,0.0,-0.0561,0.0,0.0,0.0,0.0,0.0,0.0,0.0,0.0,0.0,0.0,0.0,0.0,0.0,0.0,0.0,0.0,0.0,0.0,0.0,0.0,0.0,0.0,0.0,0.0,0.0,0.0,0.0,0.0,0.0,0.0209,0.018,-0.0328,-0.0127,0.0156,0.0,0.0,0.0,0.0,0.0,0.0,0.0,0.0,0.0,-0.6081,-0.6217,-0.6327,-0.6414,-0.6153,-0.6165,-0.6429,-0.6647,-0.698,-0.7332,-0.7514,-0.7518,-0.7351,-0.6687,-0.6392,-0.6399,-0.6135,-0.6246,-0.6707,0.0,0.0,0.0,0.0,-1.0911,-1.1026,-1.0634,-1.0196,0.0,0.0,0.0,0.0,0.0,0.0,0.0,0.0,0.0,0.0,0.0,0.0,0.0,-0.918,-0.9443,-0.9825,-0.9899,-0.993,-1.0013,0.0,-1.0103,-0.999,-1.0094,0.0,0.0,0.0,0.0,-0.9813,-0.9152,-0.8968,-0.8748,-0.8367,-0.7677,-0.7043,-0.6545,-0.337,-0.1003,-0.0058,0.0,0.0,0.0,0.0,-0.121,0.0,0.0,0.0,0.0,0.0,0.0,0.0,0.0,0.0,0.0,0.0,0.0,0.0,0.0,0.0,0.0,0.0,0.0,0.0,0.0,0.0,0.0,0.0,0.0,0.0,0.0,0.0,0.0,0.0102,-0.0172,-0.0856,-0.023,0.0173,0.0,0.0,0.0,0.0,0.0,0.0,-0.368,-0.4874,-0.5518,-0.547,-0.5868,-0.6094,-0.6112,-0.613,-0.623,-0.6413,-0.6625,-0.6835,-0.7066,-0.7301,-0.7286,-0.7038,-0.6738,-0.6445,-0.6212,-0.605,-0.5899,-0.5977,-0.7928,-0.8652,-0.8694,-0.9682,-1.011,-1.0158,-0.9732,-0.9524,-0.9451,-0.967,0.0,-0.9937,-1.0127,0.0,0.0,0.0,0.0,-0.913,-0.8818,-0.9177,-0.9509,-0.9003,-0.9344,-0.9831,-0.9919,-0.998,-1.0106,0.0,-1.0527,-1.0528,-1.0236,0.0,0.0,0.0,0.0,-1.0233,-0.9791,-0.9414,-0.921,-0.921,-0.8617,-0.8236,-0.8236,-0.512,-0.2254,-0.0135,0.0,0.0,0.0,0.0,0.0,0.0,0.0,0.0,0.0,0.0,0.0,0.0,0.0,0.0,0.0,0.0,0.0,0.0,0.0,0.0,0.0,0.0,0.0,0.0,0.0,0.0,0.0,0.0,0.0,0.0,0.0,0.0,0.0,0.0,0.0,-0.054,-0.0422,0.0,0.0,0.0,0.0,-0.1336,-0.2299,-0.3068,-0.3503,-0.435,-0.4941,-0.5117,-0.5388,-0.5665,-0.59,-0.5918,-0.5918,-0.5948,-0.613,-0.6364,-0.6634,-0.6838,-0.7023,-0.7157,-0.6574,-0.6311,-0.6283,-0.6216,-0.6768,-0.7663,-0.7812,-0.8582,-0.9496,-0.8575,-0.8747,-0.9393,-0.8927,-0.8833,-0.9057,-0.9828,-1.0373,-1.0596,-0.979,-0.979,0.0,0.0,-0.9796,-0.9744,-0.9662,-0.9667,-0.9693,-0.9643,-0.9717,-0.9798,-0.9805,-0.9968,-1.0096,0.0,-1.0123,-1.0125,-1.0113,0.0,-0.9837,-0.9987,-0.9756,-0.968,-1.0027,-1.0052,-1.0037,-1.0037,-0.9998,-0.9979,-0.9979,-0.6905,-0.3539,-0.0212,0.0,0.0,0.0,0.0,0.0,0.0,-0.5785,0.0,0.0,0.0,0.0,0.0,0.0,0.0,0.0,0.0,0.0,0.0,0.0,0.0,0.0,0.0,0.0,0.0,0.0,0.0,0.0,0.0,0.0,0.0,0.0,0.0,0.0,0.0,0.0,-0.0414,-0.0369,0.0,-0.0508,-0.1078,-0.1583,-0.196,-0.2641,-0.3175,-0.3485,-0.4121,-0.4499,-0.4578,-0.5001,-0.5368,-0.5633,-0.5633,-0.5726,-0.5911,-0.5973,-0.6123,-0.6347,-0.6587,-0.6822,-0.7005,-0.683,-0.6797,-0.6848,-0.6527,-0.6394,-0.643,-0.6999,-0.7499,-0.7916,-0.8039,-0.8286,-0.8557,-0.8521,-0.8628,-0.8831,-0.9195,-0.9427,-0.9525,-0.9311,-0.9347,-0.9477,-0.9575,-0.9612,-0.9626,-0.968,-0.9698,-0.9698,-0.9698,-0.9728,-0.9747,-0.9784,-0.9847,-0.9935,-1.002,-1.0132,-1.015,-0.9894,-0.9901,-0.99,-0.9732,-0.9806,-0.9939,-1.009,-1.0094,-1.0094,-1.0094,-1.0094,-1.0094,-1.0094,-0.8998,-0.5941,-0.0346,0.0,0.0,0.0,0.0,0.0,0.0,-0.3924,-0.5002,0.0,0.0,0.0,0.0,0.0,0.0,0.0,0.0,0.0,0.0,0.0,0.0,0.0,0.0,0.0,0.0,0.0,0.0,0.0,0.0,0.0,0.0,0.0,0.0,0.0,0.0,-0.0149,-0.0342,-0.0486,-0.063,-0.0776,-0.144,-0.1991,-0.2314,-0.2887,-0.3291,-0.3425,-0.4009,-0.4269,-0.4171,-0.4686,-0.501,-0.5088,-0.5195,-0.5281,-0.5356,-0.5461,-0.5619,-0.5837,-0.61,-0.6359,-0.657,-0.6613,-0.6685,-0.6743,-0.6507,-0.6162,-0.5875,-0.6686,-0.7051,-0.7204,-0.7816,-0.8063,-0.8131,-0.8335,-0.8492,-0.8616,-0.8783,-0.8846,-0.8897,-0.9047,-0.9129,-0.9208,-0.943,-0.95,-0.9534,-0.9675,-0.9698,-0.9698,-0.9698,-0.9698,-0.9721,-0.9761,-0.9991,-1.0133,-0.9987,-1.0079,-1.0128,-0.988,-0.9992,-1.0077,-0.9988,-1.0043,-1.017,-1.0354,-1.021,-1.0094,-1.0094,-1.0094,-1.0094,-1.0094,-1.0307,-0.8099,-0.263,-0.1923,-0.1712,-0.1712,-0.1609,-0.1554,-0.1554,-0.2954,-0.3481,-0.3072,0.0,0.0,0.0,0.0,0.0,0.0,0.0,0.0,0.0,0.0,0.0,0.0,0.0,0.0,0.0,0.0,0.0,0.0,0.0,0.0,0.0,0.0,0.0,-0.0547,-0.0412,-0.0398,-0.0333,-0.0796,-0.1137,-0.1213,-0.1936,-0.2412,-0.2412,-0.309,-0.3435,-0.3314,-0.4002,-0.4253,-0.3918,-0.4406,-0.4567,-0.4313,-0.4547,-0.4547,-0.4313,-0.4567,-0.4835,-0.5088,-0.5377,-0.5633,-0.5893,-0.5893,-0.5911,-0.5918,-0.6094,-0.6171,-0.6259,-0.6924,-0.7348,-0.759,-0.7783,-0.7969,-0.8118,-0.8322,-0.8374,-0.8428,-0.8616,-0.8738,-0.8824,-0.9036,-0.9169,-0.9312,-0.9439,-0.95,-0.9525,-0.9649,-0.9698,-0.9698,-0.9735,-0.9735,-0.9735,-0.9772,-1.037,-1.0713,-1.0063,-0.9974,-1.003,-1.0086,-1.0094,-1.0283,-1.0805,-1.0437,0.0,-1.0798,-1.0418,-1.0113,-1.0125,-1.0125,-1.0125,-1.0125,-1.0702,-0.9898,-0.711,-0.5881,-0.5251,-0.5251,-0.4937,-0.4762,-0.4737,-0.324,-0.317,-0.4614,0.0,0.0,0.0,0.0,0.0,0.0,0.0,0.0,0.0,0.0,0.0,0.0,0.0,0.0,0.0,0.0,0.0,0.0,0.0,0.0,0.0,-0.1807,-0.1713,-0.1256,-0.0861,-0.0715,-0.0997,-0.1056,-0.125,-0.1602,-0.2244,-0.2613,-0.2613,-0.3251,-0.3549,-0.3325,-0.4002,-0.4253,-0.3918,-0.4232,-0.4374,-0.4313,-0.4366,-0.4374,-0.4313,-0.4567,-0.4745,-0.4815,-0.5291,-0.5549,-0.5614,-0.5819,-0.5911,-0.5893,-0.5752,-0.5808,-0.6034,-0.6507,-0.673,-0.6842,-0.7082,-0.741,-0.7753,-0.7925,-0.8063,-0.8211,-0.8412,-0.8501,-0.8547,-0.8743,-0.884,-0.8913,-0.9139,-0.9284,-0.9385,-0.9517,-0.9625,-0.9845,-1.0425,-1.0563,-1.0737,-1.1306,-1.1159,-1.0862,-1.0711,-1.0237,-0.991,-1.0074,-1.0094,-1.0155,-1.0297,-1.02,0.0,-1.0292,-1.02,-1.0239,-1.0634,-1.0678,-1.0678,-1.0691,-1.0491,-1.0241,-0.9928,-0.9168,-0.8729,-0.8729,-0.8643,-0.8386,-0.7935,-0.6659,-0.5532,0.0,0.0,0.0,0.0,0.0,0.0,0.0,0.0,0.0,0.0,0.0,0.0,0.0,0.0,0.0,0.0,0.0,0.0,0.0,0.0,0.0,0.0,-0.22,-0.2257,-0.2097,-0.1557,-0.1198,-0.128,-0.1402,-0.1556,-0.1791,-0.2307,-0.2602,-0.2602,-0.3119,-0.3352,-0.3142,-0.3739,-0.3977,-0.3663,-0.3957,-0.4068,-0.3973,-0.4068,-0.4068,-0.3973,-0.4232,-0.4374,-0.4386,-0.4932,-0.5166,0.0,-0.5453,-0.5566,-0.5547,-0.5406,-0.5425,0.0,0.0,0.0,0.0,0.0,-0.7066,-0.7332,-0.7487,-0.7621,-0.7766,-0.8049,-0.8147,-0.82,-0.8492,-0.8645,-0.8736,-0.8912,-0.9081,-0.9237,-0.9385,-0.9483,-0.9669,-1.0184,-1.0576,-1.0968,-1.1471,-1.148,-1.1314,-1.1052,0.0,0.0,-1.0053,-1.0044,-1.0139,-1.0404,-1.0646,-1.0841,-1.0929,-1.1072,-1.1312,-1.1623,-1.1276,-1.1055,-1.1105,-1.0711,0.0,0.0,0.0,-1.0301,-1.0034,-1.002,0.0,0.0,0.0,-0.6289,-0.4799,0.0,0.0,0.0,-0.4729,-0.4609,0.0,0.0,0.0,0.0,0.0,0.0,0.0,0.0,0.0,0.0,0.0,0.0,0.0,0.0,0.0,0.0,-0.2622,-0.2764,-0.2937,-0.237,-0.183,-0.1526,-0.1788,-0.1996,-0.1943,-0.2305,-0.2534,-0.2534,-0.2919,-0.3051,-0.2902,0.0,0.0,0.0,0.0,-0.3717,-0.3464,-0.3682,-0.3703,-0.3506,-0.3765,-0.3911,-0.3911,-0.4426,-0.4646,-0.4666,-0.4912,-0.503,-0.5049,-0.5049,-0.5069,-0.5146,-0.555,-0.588,-0.6171,-0.6575,-0.6805,0.0,0.0,0.0,0.0,-0.7606,-0.7753,-0.7839,-0.8214,-0.8528,-0.8768,-0.8885,-0.9094,-0.9338,-0.9482,-0.9531,-0.9605,-0.9807,-1.042,-1.1028,-1.1233,-1.1782,-1.2031,-1.1389,-1.119,-1.0897,-1.0145,-1.0006,-1.0201,-1.0829,-1.1424,-1.1891,-1.2113,-1.2515,-1.2791,-1.279,0.0,0.0,-1.1475,-1.1144,-1.069,-1.0121,-1.0538,-1.0583,-1.0093,-0.9984,-0.9892,-0.984,-0.7909,-0.6499,-0.566,-0.5677,-0.5557,-0.5306,-0.4533,-0.4193,0.0,0.0,0.0,0.0,0.0,0.0,0.0,0.0,0.0,0.0,0.0,0.0,0.0,0.0,0.0,-0.2841,-0.2906,-0.2957,-0.3269,-0.3045,-0.2795,-0.2615,-0.2341,-0.2312,-0.264,-0.277,-0.2822,-0.2822,-0.31,-0.3145,-0.291,-0.3668,-0.3772,-0.3008,-0.3377,-0.3454,-0.3181,-0.3239,-0.333,-0.3506,0.0,0.0,-0.3911,-0.4232,-0.4366,-0.4386,-0.4426,-0.4567,-0.4765,-0.4765,-0.4912,-0.5108,-0.5194,-0.5404,-0.5652,-0.5734,-0.6147,-0.6668,-0.6702,-0.6937,-0.7211,-0.7289,-0.7455,-0.768,-0.7869,-0.8435,0.0,-0.9498,-1.0069,-1.0609,-1.0847,-1.0982,-1.1253,-1.1924,-1.2317,-1.2739,-1.3413,-1.3293,-1.3033,-1.2888,-1.2335,-1.1644,-1.0916,-1.0295,-1.0187,-1.0952,-1.1489,-1.1951,-1.2364,-1.2955,-1.3361,-1.3342,-1.2829,-1.238,-1.2074,-1.1435,-1.0783,-1.014,-1.0195,-1.0512,-1.1091,-1.0434,-1.0065,-1.0042,-0.962,-0.9314,-0.9125,-0.9237,-0.9273,-0.9093,-0.3512,-0.0918,0.0,0.0,0.0,0.0,0.0,0.0,0.0,0.0,0.0,0.0,0.0,-0.0176,-0.0903,0.0,-0.1667,-0.2658,-0.2754,-0.2882,-0.3446,-0.3375,-0.3181,-0.3032,-0.2785,-0.2747,-0.2978,-0.3015,-0.2985,-0.2913,-0.3007,-0.3022,-0.2797,-0.3221,-0.3244,-0.2807,-0.299,-0.304,-0.2896,-0.3025,-0.3175,-0.3309,-0.3584,-0.371,-0.371,-0.3965,-0.4109,-0.4109,-0.4252,-0.4366,-0.4507,-0.4507,-0.4567,-0.4706,-0.4853,-0.5069,-0.531,-0.5454,-0.5734,-0.6088,-0.6324,-0.6536,-0.6743,-0.6983,-0.7444,-0.7881,-0.7737,-0.859,-0.9608,-0.9638,-1.0217,-1.0893,-1.1134,-1.1243,-1.1434,-1.2015,-1.253,-1.3046,-1.3617,-1.352,-1.3298,-1.3298,-1.2655,-1.1985,-1.1616,-1.1232,-1.1016,-1.1084,-1.1661,-1.2326,-1.2967,-1.3752,-1.4256,-1.4248,-1.3528,-1.3062,-1.3055,-1.1946,-1.0924,-1.0148,-1.0094,-1.0306,-1.0733,-1.0752,-1.0752,-1.0752,-1.0883,-1.1098,-1.1395,-1.1166,-1.0485,-0.9294,-0.4683,-0.1641,0.0,0.0,0.0,0.0,0.0,0.0,0.0,0.1915,0.1812,0.0656,0.0264,-0.0039,-0.0624,-0.0886,-0.129,-0.2227,-0.2401,-0.2587,-0.3203,-0.329,-0.321,-0.3024,-0.3086,-0.3125,-0.3125,-0.3125,-0.3065,-0.2961,-0.2924,-0.2842,-0.2723,-0.2868,-0.2849,-0.2598,-0.2754,-0.2783,-0.2653,-0.2832,-0.2962,-0.3056,-0.3248,-0.3372,-0.3442,-0.364,-0.3822,-0.3944,-0.4211,-0.4316,-0.4316,-0.4316,-0.4317,-0.4342,-0.4691,-0.4977,-0.5194,-0.5461,-0.5589,-0.5697,-0.6155,-0.6327,-0.6403,-0.6903,-0.753,-0.8093,-0.7936,-0.895,-1.0121,-0.9953,-1.0508,-1.1204,-1.1477,-1.1536,-1.1622,-1.1912,-1.252,-1.3096,-1.342,-1.3516,-1.3537,-1.3537,-1.3013,-1.2517,-1.2352,-1.2333,-1.2151,-1.1599,-1.2155,-1.2911,-1.3714,-1.4501,-1.4984,-1.497,-1.4163,-1.3671,-1.3723,-1.2429,-1.1307,-1.0611,-1.0586,-1.0617,-1.0617,-1.1118,-1.1406,-1.1406,-1.1445,-1.1718,-1.2194,-1.194,-1.0944,-0.9279,-0.777,-0.4519,0.4678,0.3907,0.3365,0.3054,0.2972,0.2738,0.0,0.1569,0.1235,0.0255,0.0037,-0.0149,-0.0776,-0.0886,-0.1144,-0.1954,-0.1973,-0.1958,-0.2175,-0.2514,-0.2746,-0.2592,-0.2991,-0.3283,-0.3283,-0.3283,-0.3219,-0.3068,-0.2981,-0.2842,-0.2723,-0.3427,-0.3369,-0.2301,-0.2999,-0.3093,-0.2444,-0.2345,-0.2507,-0.2928,-0.2839,-0.2918,-0.3153,-0.3175,-0.3485,-0.4015,-0.428,-0.4395,-0.4395,-0.4395,-0.4347,-0.4371,-0.5059,-0.533,-0.5399,-0.566,-0.5906,-0.6191,-0.6589,-0.6782,-0.6906,-0.7446,-0.7718,-0.7973,-0.8718,-0.9606,-1.0519,-1.1187,-1.1861,-1.2516,-1.3009,-1.3142,-1.3174,-1.3344,-1.359,-1.3845,-1.4062,-1.4247,-1.4371,-1.4371,-1.4286,-1.4004,-1.3298,-1.317,-1.3143,-1.3072,-1.3235,-1.3663,-1.4466,-1.4766,-1.4904,-1.4902,-1.4846,-1.4338,-1.3193,-1.2666,-1.2344,-1.2249,-1.2347,-1.2411,-1.2411,-1.1757,-1.1406,-1.1406,-1.0675,-1.0325,-1.0387,-1.1344,-1.1945,-1.2262,-1.3494,-0.9012,0.4934,0.4026,0.3377,0.3124,0.3349,0.3376,0.2542,0.2416,0.2136,0.0907,0.0565,0.0321,-0.0253,-0.0358,-0.0611,-0.126,-0.1322,-0.1423,-0.1802,-0.2037,-0.2175,-0.2107,-0.2289,-0.2639,-0.3255,-0.3229,-0.3149,-0.3088,-0.2988,-0.2842,-0.2723,-0.2979,-0.2889,-0.2397,-0.2613,-0.2608,-0.2272,-0.243,-0.2524,-0.2621,-0.2755,-0.2831,-0.288,-0.3197,-0.3674,-0.4247,-0.4341,-0.4391,-0.4378,-0.4228,-0.425,-0.4373,-0.4647,-0.5014,-0.5473,-0.5979,-0.6212,-0.6368,-0.6691,-0.6953,-0.719,-0.7584,-0.8316,-0.9077,-0.9109,-1.0099,-1.1249,-1.1337,-1.1957,-1.2687,-1.3069,-1.3596,-1.3973,-1.3675,-1.4068,-1.4473,-1.4239,-1.4362,-1.4646,-1.5105,-1.4829,-1.4689,-1.5288,-1.5013,-1.486,-1.5325,-1.4243,-1.3657,-1.4489,-1.4624,-1.4697,-1.4776,-1.4887,-1.4509,-1.3432,-1.3217,-1.2926,-1.2409,-1.2516,-1.2582,-1.2582,-1.2766,-1.2844,-1.2844,-1.2344,-1.2401,-1.3074,-1.3555,-1.3907,-1.4099,-1.1829,-1.0079,0.4961,0.4141,0.3545,0.3222,0.358,0.3801,0.3015,0.301,0.2834,0.1501,0.1158,0.0929,0.0302,0.0181,0.0,-0.0562,-0.0635,-0.0797,-0.1242,-0.1467,-0.152,-0.1485,-0.1632,-0.2066,-0.2902,-0.2948,-0.295,-0.3028,-0.2968,-0.2859,-0.2751,-0.2726,-0.2686,-0.2609,-0.2552,-0.2445,-0.2331,-0.2583,-0.2609,-0.2419,-0.2681,-0.2758,-0.2725,-0.3262,-0.3814,-0.4332,-0.4332,-0.4414,-0.4502,-0.4208,-0.4215,-0.4421,-0.4696,-0.5125,-0.5702,-0.6463,-0.6699,-0.6646,-0.6941,-0.7164,-0.7396,-0.7863,-0.8721,-0.9582,-0.9604,-1.0499,-1.1534,-1.1493,-1.2163,-1.2925,-1.2973,-1.3759,-1.4432,-1.4099,-1.4533,-1.5018,-1.4968,-1.5056,-1.5331,-1.5931,-1.5564,-1.5533,-1.6707,-1.6413,-1.6243,-1.6817,-1.5215,-1.418,-1.4756,-1.4646,-1.4533,-1.4635,-1.4727,-1.4532,-1.3906,-1.3877,-1.3632,-1.3005,-1.3107,-1.31,-1.2865,-1.353,-1.3805,-1.3574,-1.3209,-1.344,-1.4266,-1.4426,-1.4253,-1.3709,-1.0506,-1.1237,0.4706,0.4253,0.3792,0.3378,0.3568,0.3612,0.2879,0.2804,0.2641,0.1755,0.1596,0.1408,0.0791,0.0677,0.0538,0.0045,-0.0048,-0.005,-0.0048,-0.0552,-0.088,-0.0757,-0.1236,-0.1782,0.0,-0.2423,-0.2607,-0.2891,-0.291,-0.2907,-0.2903,-0.312,-0.3168,-0.289,-0.3142,-0.3086,-0.2699,-0.2699,-0.2623,-0.2499,-0.2499,-0.259,-0.2729,-0.3255,-0.3742,-0.4211,-0.4211,-0.4416,-0.4774,-0.4509,-0.4395,-0.4508,-0.5615,-0.6056,-0.6207,-0.7262,-0.7404,-0.7139,-0.7549,-0.756,-0.7551,-0.848,-0.8656,-0.8839,-1.0389,-1.0869,-1.1094,-1.193,-1.2905,-1.3573,-1.3121,-1.3759,-1.4605,-1.4967,-1.5074,-1.541,-1.6584,-1.6817,-1.6835,-1.6853,-1.6835,-1.6835,-1.689,-1.689,-1.6872,-1.6908,-1.6169,-1.5637,-1.5655,-1.4976,-1.4499,-1.4517,-1.4499,-1.4511,-1.4462,-1.4587,-1.4651,-1.4632,-1.4803,-1.4568,-1.3799,-1.3856,-1.3536,-1.2757,-1.2156,-1.1863,-1.1902,-1.2488,-1.1911,-1.0286,-1.1834,-1.3508,0.4401,0.4176,0.405,0.3809,0.3896,0.3979,0.3776,0.3607,0.3244,0.239,0.218,0.1902,0.0949,0.0783,0.07,0.0325,0.0096,0.0,0.0,-0.0193,-0.0278,-0.0245,-0.0429,0.0,0.0,0.0,0.0,-0.2964,-0.2661,-0.2612,-0.3008,-0.3109,-0.3139,-0.3049,-0.3106,-0.3114,-0.2971,-0.2971,-0.29,-0.2754,-0.2582,-0.2776,-0.3294,-0.3355,-0.3847,-0.4653,-0.4653,-0.485,-0.5104,-0.4781,-0.481,-0.5046,-0.5467,-0.594,-0.6445,-0.7065,-0.7402,-0.7511,-0.7647,-0.7978,-0.8377,-0.8706,-0.9241,-0.9889,-1.0685,-1.1024,-1.1265,-1.179,-1.2427,-1.2934,-1.2786,-1.3615,-1.4586,-1.4893,-1.5441,-1.6045,-1.6588,-1.6821,-1.7055,-1.7587,-1.7275,-1.7238,-1.8317,-1.806,-1.7697,-1.7697,-1.6555,-1.5509,-1.4976,-1.4683,-1.4488,-1.4488,-1.4488,-1.4488,-1.4488,-1.4545,-1.4622,-1.4678,-1.484,-1.4825,-1.4606,-1.4705,-1.4632,-1.4368,-1.4157,-1.4055,-1.4055,-1.4253,-1.231,-0.8543,-1.2502,-1.4657,0.4258,0.4201,0.4253,0.41,0.4123,0.4167,0.406,0.3849,0.3447,0.2708,0.2567,0.2312,0.1384,0.1145,0.0929,0.0629,0.0274,0.0,0.0,0.0,0.0,0.0,0.0,-0.0164,0.0,0.0,0.0,-0.2686,-0.2427,-0.2479,-0.3119,-0.3112,-0.3171,-0.328,-0.3192,-0.3189,-0.3286,-0.3286,-0.3212,-0.3025,-0.2812,-0.2964,-0.3415,-0.3298,-0.3656,-0.4447,-0.4587,-0.4796,-0.503,-0.4867,-0.501,-0.5293,-0.5368,-0.5848,-0.6523,-0.6798,-0.7225,-0.7695,-0.7695,-0.8109,-0.8634,-0.8761,-0.9372,-1.0147,-1.0729,-1.1024,-1.1285,-1.1963,-1.2488,-1.2859,-1.2939,-1.3861,-1.483,-1.5211,-1.5958,-1.6712,-1.7198,-1.7433,-1.769,-1.8292,-1.7997,-1.7994,-1.9124,-1.8807,-1.8356,-1.8137,-1.7128,-1.6164,-1.5447,-1.4854,-1.4708,-1.5294,-1.5105,-1.505,-1.5331,-1.535,-1.5398,-1.5484,-1.5615,-1.5574,-1.5335,-1.5472,-1.5427,-1.5133,-1.5177,-1.5189,-1.5189,-1.5189,-1.2579,-0.7719,-1.2829,-1.5189,0.4287,0.4324,0.4355,0.4246,0.4197,0.4113,0.3843,0.3591,0.3252,0.2795,0.2709,0.2547,0.2114,0.1642,0.1237,0.0942,0.0378,0.0,0.0,0.0,0.0,0.0,0.0,-0.0184,-0.0618,0.0,0.0,-0.2034,0.0,-0.2487,-0.3246,-0.3152,-0.3246,-0.3571,-0.3403,-0.34,-0.3588,-0.3592,-0.3517,-0.3329,-0.3169,-0.3098,-0.3144,-0.3137,-0.3316,-0.3676,-0.4059,-0.4387,-0.4684,-0.4806,-0.5063,-0.534,-0.5421,-0.5849,-0.6488,-0.6504,-0.6996,-0.7637,-0.7686,-0.7967,-0.8336,-0.8679,-0.9062,-0.9581,-1.057,-1.0897,-1.1164,-1.242,-1.3038,-1.3349,-1.3574,-1.44,-1.53,-1.5863,-1.6527,-1.7314,-1.8332,-1.8566,-1.8623,-1.8896,-1.8966,-1.9052,-1.9227,-1.9101,-1.8799,-1.8206,-1.7832,-1.7444,-1.6954,-1.557,-1.5203,-1.673,-1.6211,-1.6059,-1.6821,-1.6876,-1.689,-1.6848,-1.6972,-1.6685,-1.5878,-1.6036,-1.5776,-1.5014,-1.5133,-1.5189,-1.5189,-1.5189,-1.2714,-0.8104,-1.2945,-1.5189,0.4179,0.4316,0.4433,0.422,0.4197,0.406,0.3537,0.3314,0.309,0.2701,0.2701,0.265,0.2308,0.1876,0.145,0.1025,0.042,0.0,0.0,0.0,0.0,0.0,0.0,-0.0049,-0.0149,-0.0049,0.0,0.0,-0.1212,-0.1704,-0.2804,-0.2821,-0.3066,-0.3581,-0.3646,-0.3697,-0.3737,-0.3737,-0.3717,-0.3673,-0.3373,-0.3309,-0.3459,-0.3385,-0.379,-0.4572,-0.469,-0.5137,-0.5783,-0.5817,-0.5731,-0.5625,-0.5964,-0.6056,-0.6129,-0.6626,-0.6813,-0.6863,-0.7387,-0.7878,-0.8336,-0.8679,-0.9062,-0.9555,-1.031,-1.0691,-1.1117,-1.2144,-1.2817,-1.3341,-1.3899,-1.4395,-1.4982,-1.5856,-1.6213,-1.6634,-1.7629,-1.783,-1.7876,-1.8266,-1.8531,-1.8734,-1.8771,-1.8734,-1.8663,-1.8503,-1.7433,-1.6727,-1.6886,-1.6542,-1.6365,-1.6573,-1.6593,-1.6602,-1.6609,-1.6793,-1.6686,-1.6188,-1.6198,-1.5892,-1.5179,-1.5253,-1.5216,-1.4995,-1.5133,-1.5189,-1.5189,-1.5189,-1.4541,-1.3291,-1.4599,-1.5189,0.4194,0.4298,0.4429,0.4231,0.4093,0.3924,0.3456,0.313,0.2839,0.2613,0.2648,0.2634,0.2431,0.1959,0.1524,0.1229,0.0512,0.0,0.0,0.0,0.0,0.0,0.0,0.0,0.0,0.0317,0.0211,0.0,-0.0767,-0.133,-0.2233,-0.256,-0.2838,-0.3176,-0.3576,-0.3822,-0.389,-0.3958,-0.3924,-0.3788,-0.3622,-0.3558,-0.3578,-0.3533,-0.3749,-0.4205,0.0,-0.5124,-0.5547,-0.6005,-0.6095,-0.5941,-0.618,-0.6275,-0.6305,-0.6518,-0.6703,-0.6942,-0.7105,-0.7425,-0.78,-0.8379,-0.8816,-0.9277,-0.9919,-1.0467,-1.1053,-1.2158,-1.2812,-1.337,-1.4142,-1.4625,-1.5074,-1.5757,-1.6175,-1.6547,-1.7122,-1.7212,-1.7289,-1.7625,-1.7962,-1.8165,-1.8165,-1.8063,-1.808,-1.8338,-1.7267,-1.6729,-1.7545,-1.6724,-1.6409,-1.7324,-1.7225,-1.7203,-1.7396,-1.7663,-1.7505,-1.6743,-1.6785,-1.6385,-1.5303,-1.5339,-1.5223,-1.4873,-1.504,-1.5101,-1.5101,-1.5177,-1.5189,-1.5189,-1.5189,-1.4003,0.4224,0.4368,0.4423,0.4207,0.3988,0.368,0.3406,0.2961,0.2611,0.251,0.2543,0.2561,0.2518,0.1957,0.1496,0.1392,0.0645,0.0037,0.0,0.0,0.0051,0.011,0.0111,0.0167,0.0278,0.0833,0.0887,0.0166,-0.0325,-0.0934,-0.1634,-0.2235,-0.2665,-0.2855,-0.3488,-0.3924,-0.4077,-0.414,-0.4063,-0.3849,-0.3812,-0.3727,-0.3609,-0.3588,-0.3547,-0.35,0.0,0.0,-0.488,-0.5883,-0.629,-0.625,-0.625,-0.6445,-0.6695,-0.6385,-0.6665,-0.7209,-0.6958,-0.6881,-0.7024,-0.79,-0.8397,-0.8778,-0.9403,-1.01,-1.0952,-1.2195,-1.2886,-1.3426,-1.4279,-1.4854,-1.5257,-1.5499,-1.603,-1.6496,-1.6565,-1.6659,-1.6757,-1.6897,-1.7186,-1.7417,-1.7417,-1.7202,-1.7259,-1.7856,-1.7093,-1.6944,-1.8191,-1.6589,-1.6164,-1.8317,-1.7948,-1.7824,-1.8494,-1.8789,-1.8553,-1.7565,-1.7736,-1.716,-1.5575,-1.5635,-1.5391,-1.4707,-1.489,-1.4992,-1.4992,-1.5107,-1.5159,-1.5159,-1.5183,-1.2829,0.4426,0.4498,0.445,0.4128,0.3836,0.3507,0.3083,0.2666,0.2369,0.2334,0.2418,0.25,0.2518,0.2059,0.1582,0.137,0.0699,0.0182,0.0044,0.0,0.0248,0.085,0.0805,0.0967,0.161,0.1769,0.0,0.0,0.0,0.0215,-0.1002,-0.1643,-0.2494,-0.3739,-0.3986,-0.4239,-0.4385,-0.4294,-0.417,-0.4113,-0.3914,-0.3778,-0.3751,-0.3632,-0.3822,-0.4258,-0.4947,0.0,-0.596,-0.662,-0.6727,-0.6513,-0.6513,-0.6442,-0.6327,-0.6465,-0.6474,-0.6481,-0.6948,-0.7011,-0.6896,-0.7466,-0.7738,-0.7964,-0.8346,-0.9528,-1.0868,-1.1658,-1.262,-1.3605,-1.4323,-1.4569,-1.4645,-1.4692,-1.4793,-1.5,-1.5315,-1.5909,-1.62,-1.5504,-1.5967,-1.6439,-1.6439,-1.6402,-1.6538,-1.6969,-1.6346,-1.6152,-1.6987,-1.7079,-1.7382,-1.8168,-1.8346,-1.8367,-1.829,-1.8508,-1.8057,-1.6619,-1.6597,-1.5977,-1.4529,-1.4592,-1.4674,-1.4707,-1.485,-1.4911,-1.4911,-1.4936,-1.4944,-1.4963,-1.5127,-1.4734,0.4498,0.4519,0.4446,0.4094,0.3737,0.3381,0.3086,0.2629,0.2329,0.2393,0.2504,0.2559,0.2461,0.2136,0.1849,0.1642,0.112,0.0624,0.038,0.053,0.0738,0.0945,0.1299,0.1584,0.1863,0.231,0.2094,0.0961,0.0,0.0972,-0.0353,-0.1384,-0.2417,-0.3515,-0.3959,-0.4317,-0.4515,-0.4395,-0.4321,-0.419,-0.4019,-0.387,-0.3785,-0.3646,-0.3751,-0.4052,-0.4918,0.0,-0.5782,-0.6634,-0.6941,-0.6814,-0.6814,-0.6727,-0.6587,-0.6441,-0.6484,-0.6627,-0.6679,-0.6692,-0.6697,-0.6798,-0.7164,-0.7643,-0.8117,-0.8949,-0.997,-1.1002,-1.1888,-1.2755,-1.3565,-1.3966,-1.4205,-1.4424,-1.4501,-1.4564,-1.4752,-1.5075,-1.5241,-1.4833,-1.4838,-1.502,-1.5272,-1.5094,-1.5169,-1.5762,-1.5231,-1.5182,-1.6344,-1.6312,-1.652,-1.7369,-1.7591,-1.7614,-1.7492,-1.7715,-1.7281,-1.5917,-1.6323,-1.6027,-1.467,-1.4679,-1.476,-1.4852,-1.47,-1.4641,-1.4641,-1.4804,-1.5121,-1.5517,-1.5193,-1.5059,0.4385,0.4494,0.4446,0.4094,0.3611,0.3229,0.3186,0.2659,0.2265,0.2463,0.2563,0.2534,0.2365,0.2234,0.2101,0.1969,0.1571,0.1142,0.0807,0.1125,0.1344,0.1178,0.1767,0.2239,0.2293,0.2902,0.0,0.1447,0.0,0.0,-0.0099,-0.1203,-0.2222,-0.3052,-0.353,-0.4022,-0.4515,-0.4349,-0.4239,-0.4237,-0.4107,-0.3975,-0.3883,-0.3707,-0.3626,-0.3715,-0.4723,0.0,0.0,-0.6204,-0.6725,-0.681,-0.6683,-0.6725,-0.6768,-0.6215,-0.6258,-0.6598,-0.6307,-0.6335,-0.6474,-0.6346,-0.6716,-0.7343,-0.7759,-0.8432,-0.9288,-1.0305,-1.1149,-1.1912,-1.2618,-1.3107,-1.3444,-1.3815,-1.3992,-1.4011,-1.3946,-1.4154,-1.4283,-1.3992,-1.3756,-1.3776,-1.4141,-1.3822,-1.3828,-1.476,-1.4306,-1.437,-1.5674,-1.5279,-1.5293,-1.6327,-1.6644,-1.6789,-1.6789,-1.7003,-1.6647,-1.5529,-1.6272,-1.6239,-1.512,-1.5151,-1.5217,-1.5265,-1.495,-1.4799,-1.4799,-1.5088,-1.5559,-1.6175,-1.5629,-1.5404,0.4263,0.4362,0.4446,0.4094,0.3578,0.3176,0.3429,0.2624,0.1968,0.2415,0.2353,0.2233,0.2141,0.222,0.2264,0.219,0.1935,0.1526,0.0969,0.1387,0.1816,0.207,0.2513,0.3118,0.3899,0.3958,0.3581,0.2773,0.0,0.0,-0.0765,-0.1039,-0.1789,-0.3061,-0.2619,-0.3056,-0.4463,-0.3846,-0.384,-0.4494,-0.4155,-0.4033,-0.4143,-0.3907,-0.3771,-0.3818,-0.4465,0.0,0.0,-0.5173,-0.5782,-0.6221,-0.5653,-0.5782,-0.6221,-0.561,-0.5432,-0.5524,-0.6007,-0.6209,-0.6271,-0.6487,-0.6701,-0.6802,-0.6567,-0.7913,-0.9567,-0.9679,-1.0718,-1.1816,-1.1898,-1.1945,-1.1982,-1.2054,-1.2342,-1.2495,-1.2115,-1.3017,-1.3511,-1.2283,-1.2636,-1.3162,-1.323,-1.2832,-1.3004,-1.4347,-1.4137,-1.4014,-1.4585,-1.4589,-1.4729,-1.521,-1.6172,-1.6789,-1.6789,-1.6841,-1.6488,-1.5719,-1.604,-1.5999,-1.5387,-1.5654,-1.5906,-1.6079,-1.6059,-1.6022,-1.604,-1.6258,-1.6381,-1.6468,-1.6756,-1.6914,0.3997,0.4083,0.4124,0.3829,0.3396,0.3103,0.3343,0.2645,0.2092,0.2471,0.2486,0.2398,0.2185,0.2389,0.2549,0.236,0.2337,0.2122,0.1467,0.2016,0.2449,0.2401,0.2992,0.3562,0.0,0.0,0.3837,0.0,0.0,0.0,0.0305,-0.0567,-0.1361,-0.1855,-0.2083,-0.2508,-0.3121,-0.2843,-0.2843,-0.3121,-0.2922,-0.3037,-0.355,-0.3321,-0.3486,-0.3973,-0.449,0.0,0.0,-0.5154,-0.5476,-0.5768,-0.5446,-0.5437,-0.5567,-0.5,-0.5,-0.526,-0.5173,-0.561,-0.618,-0.6082,-0.6467,-0.6922,-0.6944,-0.7541,-0.8291,-0.8884,-0.9269,-0.963,-1.0213,-1.0816,-1.1276,-1.1276,-1.1656,-1.2006,-1.1847,-1.2211,-1.2449,-1.1909,-1.1813,-1.1925,-1.2271,-1.19,-1.1864,-1.2753,-1.2938,-1.3166,-1.3591,-1.4032,-1.4324,-1.4485,-1.5257,-1.5909,-1.6163,-1.6191,-1.598,-1.5421,-1.5934,-1.6063,-1.5603,-1.5911,-1.6118,-1.6204,-1.609,-1.6028,-1.601,-1.6217,-1.6582,-1.7025,-1.6841,-1.7008,0.3664,0.383,0.3944,0.368,0.3454,0.3362,0.3439,0.2924,0.2482,0.263,0.2682,0.2594,0.2246,0.2548,0.2777,0.2561,0.2704,0.2621,0.201,0.2613,0.3013,0.2671,0.0,0.3777,0.0,0.407,0.3959,0.0,0.0,0.0,0.0,0.0212,-0.064,-0.1078,-0.1379,-0.1786,-0.2174,-0.2009,-0.2009,-0.2174,-0.2051,-0.2296,-0.2853,-0.27,-0.3014,-0.3723,0.0,0.0,0.0,-0.4612,-0.487,-0.5213,-0.4974,-0.4925,-0.4957,-0.4395,-0.4439,-0.4744,-0.4478,-0.4999,-0.5723,-0.5611,-0.6031,-0.6575,-0.6733,-0.7093,-0.7509,-0.8059,-0.7943,-0.7827,-0.8479,-0.9331,-0.9993,-0.9993,-1.0454,-1.0885,-1.0885,-1.0987,-1.1062,-1.0922,-1.0685,-1.0647,-1.1025,-1.0647,-1.0619,-1.1409,-1.1704,-1.2056,-1.2636,-1.3251,-1.3656,-1.3794,-1.4355,-1.4968,-1.5551,-1.558,-1.5517,-1.5392,-1.5941,-1.6175,-1.588,-1.6185,-1.6415,-1.6515,-1.6391,-1.6362,-1.6458,-1.6689,-1.7079,-1.7643,-1.7292,-1.7479,0.3436,0.3682,0.3923,0.3668,0.3828,0.4062,0.3907,0.3521,0.3127,0.2855,0.2859,0.2754,0.2294,0.259,0.2865,0.2824,0.3011,0.3024,0.2482,0.3125,0.3475,0.2967,0.3254,0.3663,0.4069,0.4141,0.0,0.0,0.0,0.0,0.0,0.1433,0.0431,-0.106,-0.0392,-0.0727,-0.2174,-0.1452,-0.1452,-0.2174,-0.2051,-0.2054,-0.2227,-0.2049,-0.2389,0.0,0.0,0.0,0.0,-0.3213,-0.3623,-0.4629,-0.4069,-0.4058,-0.4347,-0.3792,-0.3626,-0.3711,-0.422,-0.4557,-0.478,-0.5154,-0.541,-0.5505,-0.5368,-0.6537,-0.778,-0.7161,-0.6947,-0.6914,-0.6914,-0.7389,-0.7829,-0.7829,-0.8309,-0.8716,-0.8716,-0.9084,-0.9266,-0.8829,-0.9084,-0.9415,-0.9415,-0.9053,-0.9213,-1.0682,-1.0512,-1.0608,-1.1689,-1.2246,-1.2649,-1.3073,-1.3583,-1.4246,-1.5043,-1.5104,-1.5285,-1.5755,-1.6108,-1.6301,-1.6285,-1.6617,-1.6952,-1.728,-1.7304,-1.7446,-1.7794,-1.8044,-1.8191,-1.8208,-1.8452,-1.8734,0.3589,0.3694,0.3781,0.3676,0.3729,0.3774,0.3874,0.3603,0.3341,0.3399,0.3316,0.3152,0.2801,0.2899,0.2999,0.2874,0.3128,0.326,0.297,0.3317,0.3738,0.4148,0.449,0.4636,0.0,0.0,0.0,0.0,0.0,0.0,0.0,0.2251,0.1159,-0.028,-0.0112,-0.0224,-0.0671,-0.0448,-0.0448,-0.0671,-0.0665,-0.0941,-0.1452,-0.1381,0.0,0.0,0.0,0.0,0.0,-0.2345,-0.2424,-0.2847,-0.2537,-0.2523,-0.2636,-0.2884,-0.3044,-0.321,-0.3809,-0.4381,-0.486,-0.4987,-0.5339,-0.5706,-0.5637,-0.5855,-0.6076,-0.5899,-0.5881,-0.5919,-0.5836,-0.6298,-0.6768,-0.6664,-0.7072,-0.7479,-0.7479,-0.7595,-0.7669,-0.752,-0.7937,-0.8318,-0.8318,-0.8521,-0.8869,-0.9323,-0.9543,-0.9934,-1.0695,-1.1282,-1.1752,-1.1856,-1.2023,-1.2805,-1.4537,-1.469,-1.4876,-1.5285,-1.5433,-1.5638,-1.5955,-1.6274,-1.6501,-1.6617,-1.7076,-1.7344,-1.7455,-1.7755,-1.8035,-1.8208,-1.8469,-1.8752,0.3525,0.3595,0.376,0.3702,0.3827,0.3995,0.4008,0.3941,0.3812,0.364,0.3688,0.3601,0.3061,0.3177,0.328,0.3044,0.3302,0.3475,0.3242,0.3477,0.0,0.4649,0.0,0.0,0.0,0.0,0.0,0.0,0.0,0.0,0.0,0.2899,0.212,0.0894,0.056,0.0392,0.0392,0.0112,0.0,0.0,0.0,-0.0224,-0.0671,-0.0671,0.0,0.0,0.0,0.0,0.0,-0.1718,-0.174,-0.1968,-0.1909,-0.1859,-0.1896,-0.253,-0.2845,-0.3005,-0.3633,-0.4221,-0.465,-0.4584,-0.4652,-0.4685,-0.4685,-0.4918,-0.5152,-0.5152,-0.506,-0.4922,-0.4771,-0.5205,-0.5646,-0.5501,-0.5902,-0.6313,-0.6313,-0.6313,-0.6361,-0.6577,-0.6752,-0.6926,-0.7148,-0.7321,-0.7578,-0.7998,-0.8302,-0.8778,-0.9609,-1.0399,-1.0874,-1.0876,-1.1116,-1.1881,-1.3369,-1.3769,-1.4237,-1.4845,-1.4876,-1.5074,-1.5522,-1.5725,-1.6009,-1.6301,-1.6722,-1.7052,-1.7296,-1.7635,-1.79,-1.8057,-1.833,-1.8585,0.0,0.3486,0.3895,0.3795,0.4174,0.4538,0.4304,0.4433,0.0,0.3655,0.3987,0.4099,0.3173,0.3414,0.3671,0.331,0.3597,0.3709,0.3345,0.3804,0.0,0.0,0.5072,0.0,0.4875,0.0,0.0,0.0,0.0,0.0,0.0,0.3445,0.3111,0.2389,0.1614,0.1227,0.1174,0.0504,0.0112,0.0056,0.0056,0.0056,0.0,0.0,0.0,0.0,0.0,0.0,0.0,-0.1337,-0.1343,-0.1779,-0.178,-0.1677,-0.1631,-0.238,-0.2666,-0.2821,-0.358,-0.393,-0.4029,-0.3894,-0.3391,-0.2835,-0.2782,-0.3674,-0.4656,-0.4656,-0.4264,-0.3834,-0.3687,-0.4066,-0.4441,-0.4256,-0.4691,-0.513,-0.513,-0.513,-0.5351,-0.5922,-0.561,-0.5394,-0.5916,-0.5567,-0.5594,-0.6603,-0.6771,-0.7238,-0.8374,-0.9354,-1.0012,-1.0099,-1.0726,-1.1248,-1.1653,-1.2531,-1.3444,-1.436,-1.4438,-1.4658,-1.5059,-1.509,-1.5477,-1.6246,-1.6301,-1.6617,-1.7296,-1.7595,-1.7789,-1.7811,-1.8078,-1.833,0.4173,0.0,0.423,0.4299,0.4407,0.4532,0.0,0.4751,0.4776,0.4583,0.4381,0.4182,0.3994,0.3756,0.361,0.377,0.4,0.415,0.4058,0.5189,0.0,0.5858,0.6582,0.6823,0.0,0.0,0.0,0.0,0.0,0.0,0.0,0.4031,0.3921,0.3759,0.3006,0.2392,0.1952,0.1786,0.1396,0.0838,0.0838,0.056,0.0,0.0,0.0,0.0,0.0,0.0,-0.0559,-0.0924,-0.054,0.038,0.0364,0.0718,0.1132,-0.0101,-0.0612,-0.0834,-0.2042,-0.2572,-0.2642,-0.2621,-0.2505,-0.2286,-0.1682,-0.1988,-0.2509,-0.2509,-0.2511,-0.244,-0.2299,-0.2465,-0.2579,-0.2429,-0.289,-0.3331,-0.3331,-0.3693,-0.4056,-0.4188,-0.4443,-0.4517,-0.42,-0.4413,-0.4539,-0.4349,-0.4703,-0.5433,-0.6559,-0.7328,-0.8098,-0.8941,-0.9204,-0.9661,-1.0484,-1.1839,-1.2881,-1.3411,-1.3828,-1.4315,-1.4927,-1.5045,-1.5344,-1.5913,-1.6163,-1.6617,-1.7296,-1.7368,-1.7549,-1.7811,-1.8078,-1.8229,0.4839,0.4659,0.4602,0.4672,0.4581,0.4587,0.4864,0.4896,0.4864,0.4852,0.4735,0.454,0.4355,0.4202,0.4207,0.4486,0.4656,0.0,0.0,0.0,0.6354,0.6662,0.7244,0.7444,0.0,0.0,0.0,0.0,0.0,0.0,0.0,0.4502,0.4345,0.4345,0.3965,0.3395,0.2732,0.2397,0.2009,0.1619,0.1619,0.1229,0.0504,0.0504,0.0336,0.0,0.0,0.0,0.0,-0.0055,0.0381,0.1144,0.1493,0.1852,0.2063,0.1001,0.0585,0.0378,-0.0702,-0.1148,-0.1165,-0.1165,-0.0944,-0.0611,-0.0222,-0.0054,-0.0105,-0.0788,-0.109,-0.1119,-0.1029,-0.1052,-0.1121,-0.0987,-0.1421,-0.1866,-0.1866,-0.2359,-0.2857,-0.312,-0.3202,-0.3105,-0.278,-0.2778,-0.2775,-0.2729,-0.2991,-0.3731,-0.5119,-0.5993,-0.6855,-0.7833,-0.7919,-0.8294,-0.9151,-1.0596,-1.1827,-1.2765,-1.2995,-1.3591,-1.4665,-1.4887,-1.5267,-1.5799,-1.6136,-1.6554,-1.7076,-1.7224,-1.7479,-1.7811,-1.7949,-1.8082,0.5372,0.5174,0.5023,0.4941,0.4736,0.4678,0.5042,0.4992,0.4838,0.482,0.4979,0.4942,0.445,0.4632,0.4979,0.5234,0.0,0.0,0.613,0.6159,0.6457,0.7371,0.7635,0.0,0.0,0.0,0.0,0.0,0.0,0.0,0.0,0.4888,0.4515,0.4484,0.4429,0.4161,0.3566,0.2885,0.2435,0.2325,0.2325,0.1883,0.1055,0.1115,0.0671,0.0,0.0,0.0,0.0224,0.0727,0.1152,0.1501,0.2151,0.2518,0.262,0.1758,0.1497,0.1495,0.0608,0.0332,0.0332,0.0332,0.0775,0.1276,0.1386,0.189,0.2171,0.1105,0.0539,0.0209,0.0302,0.0242,0.014,0.0268,-0.0177,-0.062,-0.062,-0.1111,-0.169,-0.2171,-0.1866,-0.1511,-0.141,-0.0971,-0.0752,-0.1189,-0.132,-0.1979,-0.3655,-0.4737,-0.5689,-0.6561,-0.6851,-0.7244,-0.7888,-0.9112,-1.054,-1.2043,-1.2224,-1.2923,-1.4438,-1.4864,-1.528,-1.5799,-1.6136,-1.6448,-1.6789,-1.715,-1.7479,-1.7811,-1.7811,-1.7949,0.5585,0.5508,0.548,0.5085,0.496,0.4992,0.5214,0.5119,0.496,0.496,0.5043,0.5003,0.4616,0.4974,0.538,0.5599,0.0,0.6662,0.0,0.0,0.767,0.8344,0.0,0.0,0.0,0.0,0.0,0.0,0.0,0.0,0.0,0.5021,0.4656,0.4277,0.4227,0.4284,0.4349,0.4015,0.3584,0.2941,0.2941,0.2248,0.0913,0.1049,0.0671,0.0,0.0,-0.0224,0.0894,0.039,0.1331,0.3044,0.3171,0.3932,0.4845,0.344,0.3329,0.3707,0.2332,0.1838,0.1838,0.1838,0.1949,0.2173,0.2783,0.3065,0.3395,0.4375,0.3296,0.1836,0.1722,0.1659,0.164,0.153,0.1066,0.062,0.062,0.0133,-0.031,-0.0398,-0.0355,-0.0133,0.0398,0.0575,0.0754,0.12,0.0798,0.0,-0.1277,-0.2286,-0.3427,-0.4894,-0.6227,-0.7054,-0.7155,-0.7944,-0.9015,-1.0474,-1.1766,-1.3054,-1.4438,-1.5254,-1.5698,-1.5799,-1.6136,-1.6448,-1.6789,-1.715,-1.7479,-1.7811,-1.7811,-1.7949,0.6299,0.6081,0.5888,0.5724,0.5363,0.5118,0.5613,0.5539,0.5514,0.5923,0.5872,0.5676,0.5485,0.5614,0.5873,0.6313,0.0,0.7593,0.7978,0.8057,0.8203,0.0,0.0,0.0,0.0,0.0,0.0,0.0,0.0,0.0,0.0,0.0,0.5488,0.5267,0.5055,0.5143,0.5609,0.5055,0.4492,0.3872,0.3872,0.3271,0.2182,0.1829,0.1284,0.056,0.0,0.0112,0.1117,0.117,0.2279,0.3996,0.4388,0.5156,0.6036,0.532,0.5316,0.5479,0.482,0.4597,0.4597,0.4597,0.4597,0.4656,0.4992,0.4981,0.5087,0.5892,0.4713,0.3362,0.3589,0.3311,0.2957,0.2794,0.2315,0.1866,0.1866,0.1377,0.0977,0.0977,0.0977,0.1155,0.1777,0.2127,0.2304,0.2271,0.2308,0.1769,0.0265,-0.0575,-0.1589,-0.2994,-0.4326,-0.5394,-0.6033,-0.7217,-0.8913,-1.1126,-1.2484,-1.3676,-1.4661,-1.5418,-1.5799,-1.5799,-1.6136,-1.6448,-1.6789,-1.715,-1.7479,-1.7811,-1.7811,-1.7878,0.6846,0.6559,0.626,0.6336,0.5767,0.5393,0.613,0.6092,0.6096,0.6868,0.6754,0.6477,0.6338,0.6326,0.0,0.7111,0.7824,0.8298,0.828,0.8391,0.0,0.0,0.0,0.0,0.0,0.0,0.0,0.0,0.0,0.0,0.0,0.0,0.6396,0.6186,0.5926,0.6036,0.6588,0.5896,0.5242,0.4682,0.4682,0.4184,0.3252,0.25,0.1786,0.1062,0.0336,0.0504,0.1396,0.1952,0.3166,0.4703,0.5261,0.6027,0.6843,0.7004,0.7004,0.6843,0.6843,0.674,0.6588,0.6588,0.6588,0.6588,0.6588,0.6463,0.6358,0.6753,0.5792,0.4773,0.5192,0.4762,0.4168,0.401,0.3517,0.3158,0.3287,0.2846,0.2448,0.2578,0.2622,0.2755,0.3243,0.3635,0.3763,0.3375,0.3679,0.3315,0.1726,0.1108,0.0266,-0.1234,-0.2161,-0.3353,-0.499,-0.6409,-0.8359,-1.1142,-1.2901,-1.409,-1.4766,-1.5447,-1.5799,-1.5799,-1.6219,-1.6528,-1.6789,-1.7224,-1.7549,-1.7811,-1.7811,-1.7878,0.679,0.6675,0.662,0.6511,0.6104,0.5922,0.6678,0.664,0.6625,0.7324,0.7278,0.7038,0.6724,0.7051,0.7482,0.7762,0.8346,0.8745,0.8778,0.0,0.0,0.0,0.0,0.0,0.0,0.0,0.0,0.0,0.0,0.0,0.0,0.0,0.0,0.6242,0.641,0.6534,0.6588,0.6305,0.5841,0.5245,0.5245,0.4509,0.3093,0.2475,0.1786,0.1062,0.0336,0.0783,0.212,0.2174,0.3445,0.5429,0.5483,0.6338,0.7606,0.8305,0.8094,0.7499,0.7499,0.7095,0.6588,0.6588,0.6588,0.6588,0.6588,0.6578,0.673,0.745,0.6844,0.6039,0.5932,0.5666,0.5358,0.5227,0.4739,0.443,0.4995,0.4648,0.4387,0.4952,0.5038,0.5082,0.5087,0.513,0.5173,0.513,0.513,0.473,0.3453,0.3322,0.2434,0.0133,-0.0221,-0.1443,-0.4384,-0.5084,-0.6342,-0.8606,-1.1919,-1.403,-1.4515,-1.5359,-1.5799,-1.5799,-1.6421,-1.6789,-1.6789,-1.7455,-1.7789,-1.7811,-1.7811,-1.8078,0.7298,0.7367,0.7299,0.72,0.7242,0.7302,0.7379,0.7537,0.7888,0.854,0.8853,0.8741,0.7967,0.7666,0.7569,0.7835,0.8424,0.8804,0.0,0.0,0.0,0.0,0.0,0.0,0.0,0.0,0.0,0.0,0.0,0.0,0.0,0.0,0.0,0.7031,0.7206,0.7302,0.7404,0.7047,0.677,0.6514,0.5634,0.4963,0.4577,0.3429,0.2508,0.173,0.1006,0.1285,0.223,0.2722,0.4207,0.6308,0.7629,0.8521,0.9051,0.9725,0.982,0.96,0.96,0.94,0.9148,0.8751,0.86,0.8495,0.809,0.7828,0.7835,0.8271,0.8126,0.7679,0.6869,0.6097,0.5449,0.5315,0.513,0.5043,0.526,0.5374,0.553,0.5749,0.6077,0.6313,0.6313,0.6619,0.671,0.6361,0.6337,0.6047,0.5219,0.4188,0.319,0.2348,0.1327,-0.0351,-0.3113,-0.3502,-0.4679,-0.7294,-1.022,-1.2349,-1.3461,-1.4699,-1.5507,-1.5799,-1.6246,-1.6474,-1.6474,-1.715,-1.7502,-1.7502,-1.7704,-1.7992,0.7562,0.7641,0.758,0.7713,0.8088,0.8478,0.8511,0.8684,0.9118,0.9952,1.0123,0.9759,0.8699,0.8164,0.0,0.0,0.835,0.8704,0.0,0.0,0.0,0.0,0.0,0.0,0.0,0.0,0.0,0.0,0.0,0.0,0.0,0.0,0.0,0.0,0.8121,0.8107,0.7888,0.7734,0.7671,0.771,0.641,0.5654,0.5433,0.422,0.3282,0.2565,0.1786,0.1842,0.2619,0.3324,0.507,0.7427,0.9124,1.021,1.0805,1.1249,1.1539,1.1679,1.1499,1.1299,1.0998,1.0312,1.0115,1.0012,0.9562,0.9314,0.9192,0.94,0.9418,0.9212,0.8576,0.757,0.6645,0.6422,0.6228,0.6137,0.6313,0.6506,0.6703,0.6877,0.7355,0.7703,0.7703,0.8157,0.8327,0.7784,0.7732,0.7507,0.6745,0.5588,0.4608,0.3923,0.239,0.0617,-0.1349,-0.1478,-0.2545,-0.5074,-0.7363,-0.9795,-1.2301,-1.3837,-1.4941,-1.558,-1.6037,-1.6355,-1.6448,-1.701,-1.7368,-1.7479,-1.7794,-1.8078,0.7457,0.7352,0.7431,0.7896,0.8523,0.9252,1.012,1.0098,1.0263,1.1468,1.0857,0.9768,0.8707,0.8618,0.0,0.797,0.8176,0.0,0.0,0.0,0.0,0.0,0.0,0.0,0.0,0.0,0.0,0.0,0.0,0.0,0.0,0.0,0.0,0.0,0.9245,0.8936,0.7923,0.816,0.8431,0.8695,0.7718,0.6636,0.5479,0.4754,0.4048,0.3342,0.2565,0.2619,0.3342,0.41,0.6093,0.879,0.954,1.1048,1.2822,1.2822,1.3185,1.3601,1.3052,1.2357,1.1612,1.0998,1.0813,1.0813,1.0813,1.0813,1.0813,1.0813,1.0607,1.0564,1.1136,1.0356,0.9257,0.8807,0.8277,0.7967,0.8586,0.8228,0.8008,0.8586,0.9084,0.9415,0.9415,0.9818,0.9964,0.9494,0.9415,0.901,0.7952,0.7788,0.6927,0.4667,0.2871,0.1603,0.0975,0.093,0.0177,-0.1671,-0.3259,-0.6335,-1.1168,-1.2776,-1.4042,-1.5059,-1.5881,-1.6448,-1.6789,-1.7126,-1.7479,-1.7811,-1.8061,-1.8351,0.8115,0.807,0.8012,0.8624,0.9244,0.9889,1.0623,1.071,1.0878,1.1768,1.1221,1.0486,1.017,0.9402,0.0,0.8522,0.0,0.0,0.0,0.0,0.0,0.0,0.0,0.0,0.0,0.0,0.0,0.0,0.0,0.0,0.0,0.0,0.0,0.0,0.9231,0.9164,0.8454,0.8708,0.8921,0.8972,0.8679,0.799,0.6944,0.5531,0.4492,0.3809,0.3249,0.3178,0.3508,0.5261,0.7357,0.954,1.0202,1.1449,1.287,1.3321,1.3888,1.4354,1.4215,1.3971,1.3716,1.3032,1.283,1.2734,1.2261,1.2164,1.2164,1.2164,1.2436,1.2669,1.2534,1.2603,1.2179,1.0224,0.963,0.9362,0.8798,0.9124,0.9533,0.9709,1.0484,1.11,1.11,1.1212,1.1249,1.11,1.073,0.9916,0.8463,0.8311,0.7606,0.5795,0.5119,0.4431,0.3437,0.3349,0.2595,0.0834,-0.052,-0.3652,-0.899,-1.0729,-1.2518,-1.4589,-1.4852,-1.5462,-1.6448,-1.6773,-1.7231,-1.7726,-1.8044,-1.845,0.8445,0.8664,0.8898,0.9477,1.0302,1.1095,1.146,1.166,1.1871,1.2111,1.1636,1.1044,1.0593,0.9836,0.0,0.0,0.0,0.0,0.0,0.0,0.0,0.0,0.0,0.0,0.0,0.0,0.0,0.0,0.0,0.0,0.0,0.0,0.0,0.0,0.9563,0.9426,0.8724,0.9056,0.9249,0.9249,0.9249,0.8926,0.8283,0.6773,0.5636,0.4844,0.4429,0.4553,0.5198,0.6051,0.7757,0.985,1.0414,1.1652,1.3243,1.3899,1.4698,1.5389,1.5152,1.505,1.496,1.4297,1.41,1.4043,1.3627,1.3465,1.3465,1.3465,1.3788,1.4082,1.4038,1.4349,1.4121,1.1727,1.1136,1.0945,1.0117,1.0417,1.0836,1.0836,1.1531,1.2066,1.2066,1.2378,1.2567,1.2342,1.1841,1.1026,0.9674,0.909,0.8367,0.7224,0.669,0.6138,0.546,0.5375,0.4757,0.3234,0.2045,-0.077,-0.5572,-0.8343,-1.0837,-1.3152,-1.4235,-1.5203,-1.6019,-1.7101,-1.7759,-1.8004,-1.8853,-1.9447,0.8587,0.9203,0.9906,1.0377,1.149,1.2456,1.2391,1.2779,1.2973,1.2422,1.2005,1.1419,1.0386,1.0002,0.9707,0.0,0.0,0.0,0.0,0.0,0.0,0.0,0.0,0.0,0.0,0.0,0.0,0.0,0.0,0.0,0.0,0.0,0.0,1.0136,1.0127,0.9715,0.8837,0.9319,0.9597,0.0,0.9637,0.9597,0.9536,0.823,0.7115,0.6222,0.5734,0.6299,0.7524,0.6659,0.7674,0.9893,1.0262,1.177,1.3846,1.4503,1.5478,1.6423,1.5952,1.572,1.5588,1.5096,1.4926,1.488,1.488,1.488,1.488,1.488,1.488,1.496,1.5484,1.5604,1.5136,1.3196,1.273,1.254,1.1934,1.1811,1.1884,1.1909,1.2306,1.2638,1.2673,1.3387,1.3776,1.331,1.2832,1.2212,1.1297,1.0251,0.9364,0.8856,0.7906,0.7244,0.7121,0.7121,0.6658,0.5519,0.4384,0.2144,-0.1355,-0.5655,-0.9032,-1.1311,-1.3822,-1.5304,-1.5683,-1.7718,-1.8619,-1.8508,-2.0056,-2.0806,0.9577,0.9704,0.9904,1.0977,1.1837,1.2423,1.2404,1.2784,1.2997,1.2415,1.2236,1.1892,1.0981,1.0154,0.0,0.0,0.0,0.0,0.0,0.0,0.0,0.0,0.0,0.0,0.0,0.0,0.0,0.0,0.0,0.0,0.0,0.0,0.0,1.0262,1.0252,1.0165,0.9961,1.0079,1.0302,0.0,1.0667,1.0466,1.0001,0.8586,0.7379,0.6461,0.5982,0.6201,0.6997,0.6738,0.8081,1.0295,1.0366,1.2054,1.4503,1.4652,1.5478,1.6552,1.6811,1.6642,1.6367,1.6629,1.6471,1.6107,1.6107,1.6107,1.6107,1.6107,1.6107,1.6065,1.5761,1.5691,1.5352,1.41,1.377,1.3408,1.2076,1.2102,1.2449,1.2775,1.3247,1.3689,1.4006,1.4232,1.4328,1.4219,1.3828,1.3348,1.2716,1.1999,1.1263,1.05,1.0377,0.9954,0.8953,0.8873,0.8415,0.7307,0.6157,0.438,0.1743,-0.2982,-0.7254,-1.0855,-1.2113,-1.3896,-1.6307,-1.683,-1.772,-1.8974,-1.9706,-2.0137,0.9528,0.9828,1.0281,1.1509,1.2023,1.2193,1.2193,1.2323,1.2344,1.2025,1.1832,1.1518,1.0862,0.9933,0.0,0.0,0.0,0.0,0.0,0.0,0.0,0.0,0.0,0.0,0.0,0.0,0.0,0.0,0.0,0.0,0.0,1.0488,1.0508,1.0332,1.0283,1.039,1.0649,1.039,1.051,1.0938,1.0978,1.0857,1.0552,0.9165,0.8261,0.7786,0.732,0.7478,0.8044,0.7563,0.8375,1.0021,1.0449,1.1943,1.3958,1.4506,1.5478,1.6552,1.6837,1.6909,1.6909,1.7188,1.7118,1.6909,1.7188,1.7076,1.6951,1.7188,1.7271,1.7164,1.6589,1.6484,1.6187,1.503,1.4425,1.3801,1.2711,1.2849,1.3238,1.345,1.3861,1.4246,1.447,1.4658,1.4783,1.4783,1.4446,1.3925,1.3196,1.2667,1.2083,1.141,1.1472,1.1282,1.0598,1.0781,1.0567,0.978,0.8889,0.7083,0.4191,0.0445,-0.3723,-0.8427,-1.0506,-1.2617,-1.4897,-1.647,-1.7815,-1.8873,-2.0268,-2.1,0.9223,0.9846,1.0686,1.1752,1.1965,1.1871,1.171,1.1677,1.164,1.1492,1.1244,1.09,1.0449,0.0,0.0,0.0,0.0,0.0,0.0,0.0,0.0,0.0,0.0,0.0,0.0,0.0,0.0,0.0,0.0,0.0,1.0283,1.0283,1.0244,1.0166,1.0281,1.05,1.0893,1.0575,1.0672,1.1181,1.1148,1.1121,1.1105,0.9956,0.9342,0.9129,0.8729,0.886,0.931,0.8458,0.8762,0.9821,1.0659,1.1915,1.3433,1.4485,1.5567,1.6522,1.6595,1.6879,1.7175,1.7234,1.7274,1.7368,1.7824,1.7706,1.7544,1.7987,1.8171,1.8104,1.7464,1.7277,1.6956,1.5801,1.4823,1.4008,1.3514,1.3735,1.4019,1.4084,1.4438,1.4721,1.4721,1.5013,1.5225,1.5225,1.4882,1.4318,1.3544,1.3053,1.2606,1.2224,1.2199,1.2162,1.2043,1.2438,1.2485,1.1936,1.1364,0.9641,0.6416,0.3877,0.0257,-0.4615,-0.8521,-1.1271,-1.2861,-1.5932,-1.7763,-1.8461,-2.0631,-2.1707,0.9454,1.0005,1.0605,1.1183,1.1449,1.1375,1.0599,1.1224,1.1738,0.0,1.0846,1.0693,0.0,0.0,0.0,0.0,0.0,0.0,0.0,0.0,0.0,0.0,0.0,0.0,0.0,0.0,0.0,0.0,0.0,0.0,1.0303,1.0283,1.0107,0.969,1.0154,1.0431,1.0467,1.0705,1.1292,1.2283,1.1826,1.1641,1.1678,1.0978,1.0223,0.9439,0.8914,0.8733,0.8816,0.8676,0.9438,1.0778,1.1357,1.2807,1.4631,1.5266,1.5908,1.6552,1.7034,1.6951,1.6676,1.6995,1.7209,1.7288,1.7254,1.7614,1.8027,1.8066,1.8416,1.8489,1.7557,1.7183,1.6787,1.5743,1.4955,1.4438,1.4324,1.4374,1.4533,1.4876,1.5329,1.5639,1.5639,1.5668,1.5712,1.5712,1.53,1.4968,1.4839,1.4278,1.3841,1.3651,1.371,1.3547,1.2982,1.3095,1.2955,1.2376,1.191,1.0805,0.8824,0.6119,0.3364,0.0542,-0.5439,-0.9586,-1.1809,-1.4049,-1.5978,-1.7596,-1.9058,-2.005,0.8885,0.9337,0.9849,0.9889,1.0121,1.0187,0.9711,0.984,0.9962,0.9452,0.9379,0.9552,0.0,0.0,0.0,0.0,0.0,0.0,0.0,0.0,0.0,0.0,0.0,0.0,0.0,0.0,0.0,0.0,0.0,0.9766,0.957,0.957,0.9482,0.9287,0.9719,1.0095,1.0354,1.041,1.081,1.155,1.1931,1.1989,1.1757,1.1768,1.1249,1.0321,1.0427,1.0456,1.0456,1.0456,1.0807,1.1492,1.2254,1.3133,1.4101,1.5183,1.5575,1.5762,1.6896,1.6769,1.6297,1.7644,1.7727,1.7399,1.7847,1.8115,1.8339,1.8729,1.9101,1.9341,1.8991,1.8867,1.8482,1.7242,1.6572,1.6111,1.5651,1.519,1.4968,1.5418,1.5668,1.5799,1.5799,1.5799,1.5799,1.5799,1.5404,1.5021,1.4791,1.4505,1.4219,1.3934,1.3967,1.3881,1.355,1.3884,1.397,1.3692,1.3521,1.2675,1.1029,0.8651,0.6033,0.3066,-0.2667,-0.7152,-1.0205,-1.2468,-1.4713,-1.6903,-1.8374,-1.9371,0.8469,0.8756,0.9061,0.8706,0.8946,0.9176,0.8856,0.8794,0.8718,0.0,0.8372,0.0,0.0,0.0,0.0,0.0,0.0,0.0,0.0,0.0,0.0,0.0,0.0,0.0,0.0,0.0,0.0,0.0,0.0,0.9004,0.9004,0.8906,0.8848,0.8848,0.9258,0.967,1.0105,1.0344,1.0665,1.102,1.1653,1.1861,1.169,1.1955,1.1722,1.1209,1.1608,1.1811,1.1822,1.1945,1.2139,1.2466,1.327,1.3903,1.4449,1.5575,1.5772,1.566,1.7036,1.6875,1.6352,1.8072,1.8209,1.7814,1.849,1.8708,1.8867,1.9454,1.9877,2.021,2.0346,2.0189,1.9718,1.8572,1.7788,1.7091,1.6409,1.5816,1.5536,1.5885,1.6026,1.6052,1.6052,1.5983,1.5926,1.5926,1.5562,1.5169,1.4871,1.4744,1.4505,1.4103,1.4052,1.4052,1.4052,1.4607,1.4965,1.4937,1.4972,1.4393,1.3107,1.1052,0.868,0.5912,0.098,-0.3572,-0.7688,-1.0551,-1.3064,-1.5211,-1.7076,-1.829,0.8634,0.8706,0.8604,0.8016,0.8385,0.8752,0.8121,0.8682,0.9202,0.8697,0.8573,0.0,0.0,0.0,0.0,0.0,0.0,0.0,0.0,0.0,0.0,0.0,0.0,0.0,0.0,0.0,0.0,0.0,0.0,0.9004,0.9004,0.8633,0.844,0.844,0.8891,0.9299,0.9649,1.0882,1.1515,1.1545,1.1032,1.1124,1.1688,1.1075,1.1125,1.166,1.1752,1.1811,1.1844,1.2354,1.3123,1.4033,1.4513,1.5696,1.7074,1.7057,1.7019,1.7098,1.7807,1.7614,1.7129,1.7754,1.8338,1.8809,1.8743,1.9136,1.9722,2.0131,2.0602,2.0959,2.0959,2.0254,1.9427,1.8968,1.7581,1.6283,1.5915,1.6098,1.6335,1.6347,1.6559,1.6738,1.6738,1.6474,1.6274,1.6274,1.5968,1.5755,1.5726,1.5346,1.492,1.4515,1.4475,1.447,1.447,1.5262,1.5698,1.555,1.5657,1.5525,1.5073,1.3192,1.1598,1.0389,0.6395,0.1685,-0.3792,-0.7855,-1.0526,-1.1891,-1.4363,-1.6145,0.8522,0.8502,0.8469,0.8049,0.7963,0.7991,0.7966,0.8109,0.814,0.7786,0.7606,0.0,0.0,0.0,0.0,0.0,0.0,0.0,0.0,0.0,0.0,0.0,0.0,0.0,0.0,0.0,0.0,0.0,0.0,0.0,0.7803,0.79,0.7842,0.7568,0.8241,0.8868,0.945,1.0493,1.086,1.0508,1.1035,1.1198,1.1045,1.1198,1.1597,1.2144,1.2161,1.2372,1.2697,1.289,1.3613,1.4611,1.5149,1.5684,1.6257,1.7346,1.7042,1.6312,1.8003,1.7796,1.697,1.8556,1.8738,1.8441,1.8624,1.9023,1.9495,1.9972,2.0365,2.0842,2.1619,2.1222,2.0247,1.8913,1.7672,1.6642,1.5945,1.6119,1.6456,1.6612,1.6712,1.6789,1.6789,1.6686,1.6554,1.6313,1.6191,1.594,1.5418,1.5461,1.5293,1.4584,1.4497,1.4501,1.4501,1.4794,1.5156,1.5563,1.5446,1.5581,1.6082,1.4341,1.3056,1.2373,0.9274,0.475,-0.1271,-0.5107,-0.79,-0.9673,-1.2343,-1.4016,0.8527,0.8543,0.8593,0.8478,0.812,0.7948,0.8479,0.8236,0.7804,0.7406,0.0,0.0,0.0,0.0,0.0,0.0,0.0,0.0,0.0,0.0,0.0,0.0,0.0,0.0,0.0,0.0,0.0,0.0,0.0,0.0,0.7109,0.7472,0.7655,0.7507,0.8261,0.891,0.9396,1.0081,1.0357,1.0182,1.0747,1.091,1.0706,1.0935,1.1425,1.2128,1.2128,1.2554,1.3223,1.356,1.4363,1.5432,1.5896,1.6438,1.7033,1.7967,1.7663,1.703,1.8488,1.8425,1.7889,1.9135,1.9066,1.8554,1.8668,1.8857,1.9142,1.9641,2.0095,2.0641,2.1466,2.108,2.0001,1.8419,1.7683,1.715,1.6456,1.6594,1.6917,1.7106,1.7141,1.7142,1.7142,1.7043,1.6876,1.667,1.6429,1.6128,1.558,1.5551,1.5344,1.4752,1.469,1.4658,1.4501,1.4862,1.5344,1.5905,1.5756,1.6144,1.7156,1.5921,1.5019,1.4618,1.2001,0.8319,0.3559,-0.1429,-0.4828,-0.6792,-0.9606,-1.1486,0.0,0.0,0.0,0.9215,0.8838,0.8659,0.955,0.9128,0.8352,0.7749,0.0,0.0,0.0,0.0,0.0,0.0,0.0,0.0,0.0,0.0,0.0,0.0,0.0,0.0,0.0,0.0,0.0,0.0,0.0,0.7326,0.7153,0.7519,0.7908,0.8319,0.9019,0.9408,0.9408,0.9738,1.0169,1.0669,1.0157,1.0182,1.0656,1.0144,1.0508,1.1563,1.1575,1.2203,1.3279,1.4267,1.5383,1.6494,1.6787,1.8016,1.9591,1.8991,1.9022,1.9386,1.9273,1.9578,1.992,1.9356,1.9275,1.929,1.8827,1.8706,1.8808,1.9288,1.982,2.0282,2.0407,1.966,1.862,1.7574,1.7557,1.7721,1.7394,1.7574,1.7812,1.7812,1.7809,1.7811,1.7811,1.7526,1.732,1.7296,1.6754,1.6325,1.6332,1.5624,1.5145,1.5104,1.5104,1.4937,1.4564,1.5579,1.6353,1.6578,1.6694,1.7252,1.8346,1.7792,1.7397,1.7222,1.467,1.2513,1.0723,0.3203,-0.1329,-0.3061,-0.5984,-0.8512,0.8974,0.0,0.0,0.0,0.0,0.0,0.8982,0.9083,0.8928,0.8431,0.0,0.0,0.0,0.0,0.0,0.0,0.0,0.0,0.0,0.0,0.0,0.0,0.0,0.0,0.0,0.0,0.0,0.0,0.786,0.786,0.7896,0.8001,0.8257,0.8651,0.9155,0.9408,0.9408,0.9738,0.9981,1.0119,0.9968,0.9981,1.0119,0.9968,1.0295,1.0985,1.1412,1.215,1.3102,1.3822,1.4776,1.5859,1.6698,1.7729,1.8837,1.9605,1.984,1.9828,1.9751,1.9813,1.9826,1.9119,1.8931,1.8931,1.881,1.8779,1.892,1.9593,1.9544,1.9236,1.9023,1.8935,1.8684,1.7849,1.7731,1.7788,1.7698,1.7731,1.7805,1.7805,1.78,1.7811,1.7811,1.7726,1.7572,1.7344,1.715,1.694,1.6686,1.6274,1.5824,1.5491,1.5241,1.5043,1.4937,1.524,1.5698,1.6338,1.6172,1.6637,1.7891,1.6964,1.6727,1.7409,1.5421,1.3551,1.1832,0.6105,0.2776,0.1688,-0.1906,-0.5004,0.9368,0.9399,0.9528,0.9166,0.0,0.0,0.9055,0.904,0.8996,0.0,0.8664,0.0,0.0,0.0,0.0,0.0,0.0,0.0,0.0,0.0,0.0,0.0,0.0,0.0,0.0,0.0,0.0,0.7634,0.7565,0.771,0.8091,0.8495,0.88,0.9035,0.9422,0.9607,0.9607,0.9802,0.9905,0.9905,0.9905,0.9905,0.9905,0.9905,1.0273,1.0915,1.1289,1.2115,1.3243,1.3779,1.4675,1.5868,1.6943,1.7832,1.8633,1.9672,2.0215,2.0382,2.0017,2.0358,2.0757,1.9803,1.9547,1.9518,1.9343,1.9284,1.9409,1.9824,1.9527,1.9054,1.8864,1.8626,1.8335,1.7912,1.7811,1.7811,1.7811,1.7811,1.7811,1.7811,1.7811,1.7811,1.7811,1.7811,1.7726,1.7526,1.7392,1.7224,1.7027,1.6712,1.6351,1.5948,1.5724,1.5448,1.5134,1.5285,1.564,1.6173,1.6091,1.6594,1.7927,1.7031,1.7013,1.8022,1.6241,1.4254,1.2008,0.8425,0.5636,0.3624,0.0939,-0.1384,0.9981,1.0058,1.0103,0.99,0.9562,0.0,0.9589,0.9205,0.8978,0.9648,0.8807,0.0,0.0,0.0,0.0,0.0,0.0,0.0,0.0,0.0,0.0,0.0,0.0,0.0,0.0,0.7626,0.7254,0.7146,0.7078,0.7344,0.8003,0.8898,0.9365,0.9365,0.9713,0.9905,0.9905,0.9905,0.9905,0.9905,0.9905,0.9919,0.9944,0.9944,1.0444,1.1269,1.1269,1.2127,1.3633,1.3955,1.4831,1.6105,1.7255,1.8062,1.8635,1.9441,2.027,2.0846,2.0156,2.0858,2.1883,2.0794,2.0416,2.0355,2.0075,2.0003,1.9973,1.9863,1.9666,1.9465,1.9235,1.8535,1.7912,1.7828,1.7811,1.7811,1.7811,1.7833,1.7833,1.7811,1.7811,1.7811,1.7811,1.7811,1.7811,1.7811,1.7549,1.7368,1.7368,1.7052,1.6738,1.6448,1.6382,1.6065,1.5359,1.5624,1.5935,1.6116,1.6185,1.68,1.799,1.7451,1.7595,1.8598,1.6908,1.4666,1.1843,1.0284,0.7676,0.4124,0.3274,0.2464,0.0,0.0,0.0,0.0,0.0,0.0,1.0306,1.0303,1.0297,0.0,0.8626,0.0,0.0,0.0,0.0,0.0,0.0,0.0,0.0,0.0,0.0,0.0,0.0,0.0,0.0,0.6824,0.6919,0.731,0.7769,0.8094,0.8238,0.8834,0.9168,0.9168,0.9642,0.9905,0.9905,0.9905,0.9905,0.9905,0.9905,1.0046,1.031,1.031,1.0828,1.1769,1.1665,1.2566,1.4127,1.4098,1.4572,1.5468,1.706,1.7682,1.7835,1.9311,2.022,2.0611,2.0123,2.0176,2.0424,2.0178,1.9706,1.9336,1.9839,1.998,1.981,1.895,1.9482,1.9887,1.8169,1.82,1.8538,1.7946,1.7811,1.7811,1.7811,1.7971,1.8057,1.7856,1.7811,1.7811,1.7811,1.7811,1.7811,1.7811,1.7726,1.7704,1.7704,1.7408,1.7175,1.7109,1.685,1.6633,1.6485,1.6313,1.621,1.6248,1.6015,1.6258,1.704,1.6453,1.6576,1.7584,1.633,1.4977,1.3544,1.1768,0.9502,0.6747,0.7182,0.6629,0.0,0.0,0.0,1.1907,0.0,0.0,0.0,1.0937,1.0535,1.0926,0.9462,0.8498,0.0,0.0,0.0,0.0,0.0,0.0,0.0,0.0,0.0,0.0,0.0,0.0,0.0,0.6599,0.6712,0.6969,0.7538,0.7851,0.7851,0.8399,0.8836,0.9088,0.9377,0.9617,0.9905,0.9905,0.9905,0.9905,0.9905,1.0097,1.0396,1.0396,1.1014,1.211,1.2035,1.2965,1.4549,1.4479,1.4846,1.558,1.6754,1.7135,1.721,1.8562,1.9347,1.9752,1.9694,1.9831,2.0002,2.0002,2.0027,2.0111,2.0483,2.0671,2.067,2.0309,2.0042,1.9639,1.8589,1.8318,1.8268,1.7896,1.7811,1.7811,1.7811,1.8014,1.8146,1.8035,1.8103,1.8103,1.7856,1.7905,1.7992,1.7992,1.8103,1.8146,1.8014,1.7849,1.7631,1.7344,1.715,1.6977,1.6815,1.6633,1.6474,1.6301,1.6136,1.6274,1.6789,1.6328,1.6285,1.6799,1.638,1.5579,1.4452,1.3703,1.2002,0.9441,0.9982,0.9792,0.0,0.0,0.0,0.0,0.0,1.287,0.0,0.0,0.0,0.0,0.0,0.0,0.0,0.0,0.0,0.0,0.0,0.0,0.0,0.0,0.0,0.0,0.0,0.0,0.0,0.6696,0.6651,0.6668,0.7049,0.7307,0.7363,0.7902,0.8482,0.9085,0.9167,0.9485,1.0097,1.0097,1.0097,1.0097,1.0097,1.026,1.0567,1.0713,1.1426,1.258,1.258,1.3517,1.4977,1.4842,1.5214,1.5858,1.6458,1.6667,1.6729,1.7745,1.8489,1.905,1.94,1.9837,2.0221,2.0221,2.0568,2.0983,2.1036,2.1165,2.1344,2.1515,2.0622,1.9517,1.9243,1.8628,1.8048,1.7895,1.7856,1.7811,1.7811,1.8057,1.8273,1.8223,1.8455,1.8528,1.8035,1.8103,1.8229,1.827,1.8471,1.8566,1.831,1.8229,1.8053,1.7716,1.7552,1.7417,1.728,1.7092,1.686,1.6575,1.6474,1.6554,1.6892,1.6712,1.6528,1.6394,1.6674,1.6275,1.5169,1.5428,1.4405,1.2263,1.237,1.2493,0.0,0.0,0.0,0.0,1.4699,0.0,0.0,0.0,1.2833,1.1646,0.0,0.0,0.0,0.0,0.0,0.0,0.0,0.0,0.0,0.0,0.0,0.0,0.0,0.0,0.0,0.0,0.6807,0.6858,0.6872,0.6969,0.721,0.7615,0.8245,0.9083,0.9399,0.9947,1.0777,1.0801,1.0801,1.0801,1.0801,1.093,1.1219,1.1799,1.2652,1.364,1.364,1.4412,1.5649,1.5064,1.5214,1.5858,1.6458,1.6547,1.6475,1.7464,1.8518,1.9481,1.9831,2.0415,2.1042,2.1042,2.0636,2.0171,2.0426,2.0522,2.046,2.0072,2.0273,2.034,1.9023,1.8909,1.8957,1.8301,1.7971,1.7811,1.7811,1.8187,1.8479,1.8253,1.861,1.8861,1.8547,1.8393,1.8336,1.8528,1.868,1.8717,1.8566,1.8351,1.8408,1.8999,1.8482,1.834,1.8972,1.8127,1.758,1.7557,1.7044,1.6876,1.7224,1.7502,1.7361,1.6763,1.706,1.6837,1.6053,1.6087,1.5845,1.53,1.4846,1.4988,0.0,0.0,0.0,0.0,0.0,0.0,1.4809,0.0,1.4263,0.0,0.0,0.0,0.0,0.0,0.0,0.0,0.919,0.0,0.0,0.0,0.0,0.0,0.0,0.0,0.0,0.0,0.0,0.0,0.0,0.7659,0.7765,0.7567,0.8127,0.9578,0.9411,0.9821,1.0897,1.0897,1.0897,1.0897,1.0897,1.1048,1.131,1.1592,1.2478,1.381,1.381,1.4558,1.5784,1.5499,1.5559,1.5829,1.6069,1.6126,1.6126,1.6912,1.7786,1.8653,1.9177,1.957,1.9858,1.9858,1.9743,1.9728,2.0481,2.0481,2.0203,2.0191,1.9974,1.961,1.9004,1.8871,1.8833,1.8518,1.8351,1.827,1.827,1.8566,1.8807,1.8681,1.8942,1.915,1.9033,1.8825,1.8734,1.8807,1.8982,1.9031,1.8861,1.8734,1.867,1.8662,1.8522,1.8493,1.8658,1.8405,1.8076,1.7715,1.7707,1.7591,1.7313,1.8021,1.8007,1.7117,1.7432,1.7327,1.6853,1.7028,1.7291,1.7584,1.6814,1.6291,1.5252,0.0,0.0,0.0,0.0,0.0,0.0,0.0,0.0,0.0,0.0,0.0,0.0,0.0,0.0,0.0,0.0,0.9131,0.0,0.0,0.0,0.0,0.0,0.0,0.0,0.0,0.0,0.0,0.0,0.0,0.8376,0.787,0.8374,1.0158,0.9743,1.0024,1.1141,1.1155,1.1155,1.1155,1.1155,1.1256,1.1445,1.162,1.2373,1.3555,1.3914,1.4618,1.5544,1.5724,1.5841,1.5926,1.5926,1.5983,1.6136,1.6607,1.7438,1.8426,1.8985,1.9198,1.9164,1.8961,1.895,1.9169,2.0008,2.0037,1.9849,2.0089,1.9654,1.9086,1.9086,1.8896,1.8715,1.8715,1.8642,1.8585,1.8585,1.8807,1.9002,1.9002,1.9166,1.9305,1.9305,1.9182,1.9086,1.9086,1.9214,1.9261,1.9084,1.9234,1.9165,1.8748,1.8903,1.905,1.9047,1.9047,1.8876,1.8483,1.8788,1.8684,1.807,1.879,1.8848,1.8053,1.8174,1.8174,1.8037,1.8174,1.8555,1.9174,1.8032,1.7352,0.0,0.0,0.0,1.5431,0.0,0.0,0.0,0.0,1.6308,0.0,0.0,0.0,0.0,0.0,0.0,0.9927,0.0,0.0,0.0,0.0,0.0,0.0,0.0,0.0,0.0,0.0,0.0,0.0,0.0,0.0,0.8827,0.8614,0.918,1.0733,1.0567,1.0875,1.1768,1.1783,1.1783,1.1783,1.1783,1.1783,1.1798,1.2463,1.2762,1.2906,1.4199,1.4782,1.4872,1.5544,1.5983,1.6301,1.6301,1.6474,1.6763,1.6789,1.7919,1.9502,1.9849,1.9951,1.9849,1.913,1.8608,1.8284,1.8579,1.8842,1.9071,1.9264,1.9308,1.9289,1.9289,1.9134,1.9002,1.9002,1.8789,1.8585,1.8585,1.8807,1.9002,1.9002,1.9166,1.9305,1.9305,1.9289,1.9289,1.9289,1.9289,1.9289,1.9289,1.9806,2.0138,2.0046,2.0101,2.0426,2.1146,2.0552,2.0217,2.0385,2.0408,2.0285,1.9917,1.9951,1.9951,1.9917,1.9538,1.9538,1.9917,1.9538,1.9555,1.9909,1.8281,1.8245,0.0,0.0,1.4903,1.516,0.0,0.0,0.0,0.0,0.0,0.0,0.0,0.0,0.0,0.0,1.2034,1.1201,1.0736,0.0,0.0,0.0,0.0,0.0,0.0,0.0,0.0,0.0,0.0,0.0,0.0,0.0,0.0,0.9475,1.0055,1.1431,1.0961,1.1152,1.2066,1.2066,1.2149,1.2336,1.2149,1.2169,1.2316,1.238,1.2663,1.3099,1.4017,1.4546,1.4869,1.575,1.6191,1.6328,1.6528,1.6686,1.6815,1.7052,1.7831,1.8823,1.9168,1.9283,1.9164,1.842,1.8289,1.8489,1.8566,1.8878,1.9196,1.9274,1.9305,1.9305,1.9305,1.9243,1.9198,1.9198,1.9132,1.9064,1.9064,1.9132,1.9198,1.9198,1.9243,1.9305,1.9305,1.9305,1.9305,1.9305,1.9748,2.0032,1.9864,2.0463,2.0855,2.0659,2.0816,2.0963,2.1036,2.0802,2.0787,2.1075,2.1097,2.0651,1.9636,2.085,2.0822,1.9299,1.9631,1.9857,2.0002,1.9857,1.9715,1.9519,1.8952,1.9056,1.4887,1.4795,0.0,1.4992,1.507,0.0,1.5388,0.0,0.0,0.0,0.0,0.0,0.0,0.0,0.0,1.1917,1.1169,1.0518,0.0,0.9953,0.0,0.0,0.0,0.0,0.0,0.0,0.0,0.0,0.0,0.0,0.0,0.0,1.0853,1.1909,1.153,1.1597,1.219,1.2291,1.2562,1.2995,1.2542,1.2578,1.2979,1.2542,1.2567,1.3036,1.3975,1.4512,1.4858,1.5993,1.6554,1.667,1.6901,1.7052,1.7167,1.7272,1.7831,1.8626,1.8822,1.8894,1.8775,1.8048,1.8166,1.8585,1.8585,1.893,1.9305,1.9305,1.9305,1.9363,1.9656,1.951,1.9363,1.9656,1.951,1.9305,1.9305,1.9243,1.9198,1.9198,1.9115,1.9048,1.9048,1.9048,1.9097,1.9274,1.9748,2.0105,2.0227,2.086,2.1233,2.1054,2.1314,2.1399,2.1084,2.1572,2.1935,2.2037,2.2043,2.1622,2.068,2.1712,2.1617,2.0145,2.0585,2.0812,2.0812,2.0511,2.0371,2.0365,2.0365,2.0454]}]]